<?xml version="1.0" encoding="UTF-8" standalone="no" ?>
<gpx xmlns="http://www.topografix.com/GPX/1/1" xmlns:xsi="http://www.w3.org/2001/XMLSchema-instance" xsi:schemaLocation="http://www.topografix.com/GPX/1/1 http://www.topografix.com/GPX/1/1/gpx.xsd" version="1.1" creator="VisuGPX - https://www.visugpx.com">
  <metadata>
    <name>12/12 - Parry/Moissac - 2018-04-27 </name>
    <desc><![CDATA[File with points/tracks from Locus Map/3.30.4]]></desc>
  </metadata>
  <trk>
    <name><![CDATA[2018-04-27 08:23:48]]></name>
    <trkseg>
      <trkpt lat="44.22933" lon="1.16352">
        <ele>202.67</ele>
        <time>2018-04-27T06:23:50.000Z</time>
      </trkpt>
      <trkpt lat="44.22931" lon="1.16354">
        <ele>202.97</ele>
        <time>2018-04-27T06:24:00.000Z</time>
      </trkpt>
      <trkpt lat="44.22932" lon="1.16353">
        <ele>202.55</ele>
        <time>2018-04-27T06:24:10.000Z</time>
      </trkpt>
      <trkpt lat="44.22933" lon="1.16354">
        <ele>202.47</ele>
        <time>2018-04-27T06:24:20.000Z</time>
      </trkpt>
      <trkpt lat="44.22935" lon="1.16358">
        <ele>203.01</ele>
        <time>2018-04-27T06:24:30.000Z</time>
      </trkpt>
      <trkpt lat="44.22934" lon="1.16357">
        <ele>203.09</ele>
        <time>2018-04-27T06:24:40.000Z</time>
      </trkpt>
      <trkpt lat="44.22935" lon="1.16356">
        <ele>202.71</ele>
        <time>2018-04-27T06:25:09.000Z</time>
      </trkpt>
      <trkpt lat="44.22936" lon="1.16354">
        <ele>202.8</ele>
        <time>2018-04-27T06:25:19.000Z</time>
      </trkpt>
      <trkpt lat="44.22938" lon="1.16355">
        <ele>202.71</ele>
        <time>2018-04-27T06:25:29.000Z</time>
      </trkpt>
      <trkpt lat="44.22945" lon="1.16357">
        <ele>203.17</ele>
        <time>2018-04-27T06:25:39.000Z</time>
      </trkpt>
      <trkpt lat="44.22946" lon="1.16356">
        <ele>203</ele>
        <time>2018-04-27T06:25:49.000Z</time>
      </trkpt>
      <trkpt lat="44.22946" lon="1.16347">
        <ele>203.18</ele>
        <time>2018-04-27T06:25:59.000Z</time>
      </trkpt>
      <trkpt lat="44.22947" lon="1.16344">
        <ele>202.91</ele>
        <time>2018-04-27T06:26:09.000Z</time>
      </trkpt>
      <trkpt lat="44.22949" lon="1.16343">
        <ele>202.86</ele>
        <time>2018-04-27T06:26:19.000Z</time>
      </trkpt>
      <trkpt lat="44.22948" lon="1.16342">
        <ele>202.77</ele>
        <time>2018-04-27T06:26:41.000Z</time>
      </trkpt>
      <trkpt lat="44.22944" lon="1.16338">
        <ele>202.99</ele>
        <time>2018-04-27T06:26:51.000Z</time>
      </trkpt>
      <trkpt lat="44.22938" lon="1.16338">
        <ele>202.6</ele>
        <time>2018-04-27T06:27:01.000Z</time>
      </trkpt>
      <trkpt lat="44.22946" lon="1.16338">
        <ele>203.03</ele>
        <time>2018-04-27T06:27:11.000Z</time>
      </trkpt>
      <trkpt lat="44.22949" lon="1.16336">
        <ele>202.99</ele>
        <time>2018-04-27T06:27:21.000Z</time>
      </trkpt>
      <trkpt lat="44.22951" lon="1.16342">
        <ele>202.93</ele>
        <time>2018-04-27T06:27:31.000Z</time>
      </trkpt>
      <trkpt lat="44.22946" lon="1.1635">
        <ele>202.92</ele>
        <time>2018-04-27T06:27:41.000Z</time>
      </trkpt>
      <trkpt lat="44.22942" lon="1.16354">
        <ele>203.26</ele>
        <time>2018-04-27T06:27:51.000Z</time>
      </trkpt>
      <trkpt lat="44.22937" lon="1.1636">
        <ele>202.93</ele>
        <time>2018-04-27T06:28:01.000Z</time>
      </trkpt>
      <trkpt lat="44.22934" lon="1.16368">
        <ele>202.56</ele>
        <time>2018-04-27T06:28:11.000Z</time>
      </trkpt>
      <trkpt lat="44.22935" lon="1.16369">
        <ele>202.81</ele>
        <time>2018-04-27T06:28:26.000Z</time>
      </trkpt>
      <trkpt lat="44.22938" lon="1.16365">
        <ele>202.77</ele>
        <time>2018-04-27T06:28:36.000Z</time>
      </trkpt>
      <trkpt lat="44.22939" lon="1.16362">
        <ele>202.65</ele>
        <time>2018-04-27T06:28:46.000Z</time>
      </trkpt>
      <trkpt lat="44.22942" lon="1.16356">
        <ele>203.27</ele>
        <time>2018-04-27T06:28:56.000Z</time>
      </trkpt>
      <trkpt lat="44.22943" lon="1.16352">
        <ele>203.1</ele>
        <time>2018-04-27T06:29:06.000Z</time>
      </trkpt>
      <trkpt lat="44.22947" lon="1.1635">
        <ele>203.04</ele>
        <time>2018-04-27T06:29:16.000Z</time>
      </trkpt>
      <trkpt lat="44.22949" lon="1.1635">
        <ele>203.17</ele>
        <time>2018-04-27T06:29:26.000Z</time>
      </trkpt>
      <trkpt lat="44.22944" lon="1.16349">
        <ele>203.04</ele>
        <time>2018-04-27T06:29:36.000Z</time>
      </trkpt>
      <trkpt lat="44.22943" lon="1.16342">
        <ele>203.33</ele>
        <time>2018-04-27T06:29:46.000Z</time>
      </trkpt>
      <trkpt lat="44.22935" lon="1.16342">
        <ele>203.05</ele>
        <time>2018-04-27T06:29:56.000Z</time>
      </trkpt>
      <trkpt lat="44.22923" lon="1.16341">
        <ele>202.23</ele>
        <time>2018-04-27T06:30:06.000Z</time>
      </trkpt>
      <trkpt lat="44.22913" lon="1.16344">
        <ele>201.94</ele>
        <time>2018-04-27T06:30:16.000Z</time>
      </trkpt>
      <trkpt lat="44.22903" lon="1.16348">
        <ele>201.43</ele>
        <time>2018-04-27T06:30:26.000Z</time>
      </trkpt>
      <trkpt lat="44.22897" lon="1.16347">
        <ele>200.82</ele>
        <time>2018-04-27T06:30:36.000Z</time>
      </trkpt>
      <trkpt lat="44.22896" lon="1.16347">
        <ele>200.98</ele>
        <time>2018-04-27T06:31:15.000Z</time>
      </trkpt>
      <trkpt lat="44.22886" lon="1.16347">
        <ele>200.71</ele>
        <time>2018-04-27T06:31:25.000Z</time>
      </trkpt>
      <trkpt lat="44.22875" lon="1.16347">
        <ele>199.71</ele>
        <time>2018-04-27T06:31:35.000Z</time>
      </trkpt>
      <trkpt lat="44.22863" lon="1.16347">
        <ele>198.81</ele>
        <time>2018-04-27T06:31:45.000Z</time>
      </trkpt>
      <trkpt lat="44.22851" lon="1.16347">
        <ele>198.07</ele>
        <time>2018-04-27T06:31:55.000Z</time>
      </trkpt>
      <trkpt lat="44.22838" lon="1.16346">
        <ele>197.12</ele>
        <time>2018-04-27T06:32:05.000Z</time>
      </trkpt>
      <trkpt lat="44.22826" lon="1.16345">
        <ele>196.43</ele>
        <time>2018-04-27T06:32:15.000Z</time>
      </trkpt>
      <trkpt lat="44.22813" lon="1.16343">
        <ele>196.08</ele>
        <time>2018-04-27T06:32:25.000Z</time>
      </trkpt>
      <trkpt lat="44.22801" lon="1.16342">
        <ele>195.94</ele>
        <time>2018-04-27T06:32:35.000Z</time>
      </trkpt>
      <trkpt lat="44.22788" lon="1.1634">
        <ele>196.05</ele>
        <time>2018-04-27T06:32:45.000Z</time>
      </trkpt>
      <trkpt lat="44.22776" lon="1.1634">
        <ele>195.87</ele>
        <time>2018-04-27T06:32:55.000Z</time>
      </trkpt>
      <trkpt lat="44.22764" lon="1.16341">
        <ele>195.49</ele>
        <time>2018-04-27T06:33:05.000Z</time>
      </trkpt>
      <trkpt lat="44.22752" lon="1.16341">
        <ele>195.22</ele>
        <time>2018-04-27T06:33:15.000Z</time>
      </trkpt>
      <trkpt lat="44.2274" lon="1.16342">
        <ele>195.05</ele>
        <time>2018-04-27T06:33:25.000Z</time>
      </trkpt>
      <trkpt lat="44.22727" lon="1.16342">
        <ele>194.97</ele>
        <time>2018-04-27T06:33:35.000Z</time>
      </trkpt>
      <trkpt lat="44.22714" lon="1.16343">
        <ele>194.75</ele>
        <time>2018-04-27T06:33:45.000Z</time>
      </trkpt>
      <trkpt lat="44.22702" lon="1.16345">
        <ele>194.52</ele>
        <time>2018-04-27T06:33:55.000Z</time>
      </trkpt>
      <trkpt lat="44.22691" lon="1.16348">
        <ele>195</ele>
        <time>2018-04-27T06:34:05.000Z</time>
      </trkpt>
      <trkpt lat="44.2268" lon="1.16351">
        <ele>194.25</ele>
        <time>2018-04-27T06:34:15.000Z</time>
      </trkpt>
      <trkpt lat="44.22666" lon="1.16352">
        <ele>194.19</ele>
        <time>2018-04-27T06:34:25.000Z</time>
      </trkpt>
      <trkpt lat="44.22652" lon="1.16353">
        <ele>193.62</ele>
        <time>2018-04-27T06:34:35.000Z</time>
      </trkpt>
      <trkpt lat="44.22639" lon="1.16356">
        <ele>192.77</ele>
        <time>2018-04-27T06:34:45.000Z</time>
      </trkpt>
      <trkpt lat="44.22627" lon="1.16359">
        <ele>191.39</ele>
        <time>2018-04-27T06:34:55.000Z</time>
      </trkpt>
      <trkpt lat="44.22616" lon="1.16363">
        <ele>190.23</ele>
        <time>2018-04-27T06:35:05.000Z</time>
      </trkpt>
      <trkpt lat="44.22603" lon="1.16366">
        <ele>189.69</ele>
        <time>2018-04-27T06:35:15.000Z</time>
      </trkpt>
      <trkpt lat="44.2259" lon="1.16368">
        <ele>188.84</ele>
        <time>2018-04-27T06:35:25.000Z</time>
      </trkpt>
      <trkpt lat="44.22575" lon="1.1637">
        <ele>188.04</ele>
        <time>2018-04-27T06:35:35.000Z</time>
      </trkpt>
      <trkpt lat="44.22562" lon="1.16373">
        <ele>186.21</ele>
        <time>2018-04-27T06:35:45.000Z</time>
      </trkpt>
      <trkpt lat="44.2255" lon="1.16381">
        <ele>185.49</ele>
        <time>2018-04-27T06:35:55.000Z</time>
      </trkpt>
      <trkpt lat="44.22538" lon="1.16389">
        <ele>184.82</ele>
        <time>2018-04-27T06:36:05.000Z</time>
      </trkpt>
      <trkpt lat="44.22526" lon="1.16395">
        <ele>184.04</ele>
        <time>2018-04-27T06:36:15.000Z</time>
      </trkpt>
      <trkpt lat="44.22514" lon="1.164">
        <ele>183.51</ele>
        <time>2018-04-27T06:36:25.000Z</time>
      </trkpt>
      <trkpt lat="44.22502" lon="1.16405">
        <ele>183.06</ele>
        <time>2018-04-27T06:36:35.000Z</time>
      </trkpt>
      <trkpt lat="44.22489" lon="1.1641">
        <ele>182.81</ele>
        <time>2018-04-27T06:36:45.000Z</time>
      </trkpt>
      <trkpt lat="44.22477" lon="1.16416">
        <ele>181.87</ele>
        <time>2018-04-27T06:36:55.000Z</time>
      </trkpt>
      <trkpt lat="44.22463" lon="1.1642">
        <ele>181.5</ele>
        <time>2018-04-27T06:37:05.000Z</time>
      </trkpt>
      <trkpt lat="44.2245" lon="1.16422">
        <ele>181.19</ele>
        <time>2018-04-27T06:37:15.000Z</time>
      </trkpt>
      <trkpt lat="44.22437" lon="1.16425">
        <ele>180.88</ele>
        <time>2018-04-27T06:37:25.000Z</time>
      </trkpt>
      <trkpt lat="44.22425" lon="1.16427">
        <ele>180.49</ele>
        <time>2018-04-27T06:37:35.000Z</time>
      </trkpt>
      <trkpt lat="44.22413" lon="1.16431">
        <ele>179.83</ele>
        <time>2018-04-27T06:37:45.000Z</time>
      </trkpt>
      <trkpt lat="44.224" lon="1.16436">
        <ele>179.06</ele>
        <time>2018-04-27T06:37:55.000Z</time>
      </trkpt>
      <trkpt lat="44.22388" lon="1.16439">
        <ele>178.35</ele>
        <time>2018-04-27T06:38:05.000Z</time>
      </trkpt>
      <trkpt lat="44.22374" lon="1.16442">
        <ele>177.68</ele>
        <time>2018-04-27T06:38:15.000Z</time>
      </trkpt>
      <trkpt lat="44.22361" lon="1.16445">
        <ele>177.55</ele>
        <time>2018-04-27T06:38:25.000Z</time>
      </trkpt>
      <trkpt lat="44.22347" lon="1.1645">
        <ele>176.93</ele>
        <time>2018-04-27T06:38:35.000Z</time>
      </trkpt>
      <trkpt lat="44.22334" lon="1.16455">
        <ele>176.24</ele>
        <time>2018-04-27T06:38:45.000Z</time>
      </trkpt>
      <trkpt lat="44.22321" lon="1.16457">
        <ele>175.74</ele>
        <time>2018-04-27T06:38:55.000Z</time>
      </trkpt>
      <trkpt lat="44.22307" lon="1.1646">
        <ele>175.64</ele>
        <time>2018-04-27T06:39:05.000Z</time>
      </trkpt>
      <trkpt lat="44.22294" lon="1.16463">
        <ele>176</ele>
        <time>2018-04-27T06:39:15.000Z</time>
      </trkpt>
      <trkpt lat="44.22283" lon="1.16467">
        <ele>175.75</ele>
        <time>2018-04-27T06:39:25.000Z</time>
      </trkpt>
      <trkpt lat="44.2227" lon="1.16469">
        <ele>175.57</ele>
        <time>2018-04-27T06:39:35.000Z</time>
      </trkpt>
      <trkpt lat="44.22257" lon="1.16474">
        <ele>176.01</ele>
        <time>2018-04-27T06:39:45.000Z</time>
      </trkpt>
      <trkpt lat="44.22245" lon="1.16477">
        <ele>175.61</ele>
        <time>2018-04-27T06:39:55.000Z</time>
      </trkpt>
      <trkpt lat="44.22231" lon="1.16478">
        <ele>175.82</ele>
        <time>2018-04-27T06:40:05.000Z</time>
      </trkpt>
      <trkpt lat="44.22218" lon="1.16481">
        <ele>176.11</ele>
        <time>2018-04-27T06:40:15.000Z</time>
      </trkpt>
      <trkpt lat="44.22206" lon="1.16486">
        <ele>176.41</ele>
        <time>2018-04-27T06:40:25.000Z</time>
      </trkpt>
      <trkpt lat="44.22195" lon="1.16493">
        <ele>176.11</ele>
        <time>2018-04-27T06:40:35.000Z</time>
      </trkpt>
      <trkpt lat="44.22184" lon="1.16503">
        <ele>176.99</ele>
        <time>2018-04-27T06:40:45.000Z</time>
      </trkpt>
      <trkpt lat="44.22174" lon="1.16515">
        <ele>176.88</ele>
        <time>2018-04-27T06:40:55.000Z</time>
      </trkpt>
      <trkpt lat="44.22163" lon="1.16519">
        <ele>176.42</ele>
        <time>2018-04-27T06:41:05.000Z</time>
      </trkpt>
      <trkpt lat="44.2215" lon="1.16514">
        <ele>175.91</ele>
        <time>2018-04-27T06:41:15.000Z</time>
      </trkpt>
      <trkpt lat="44.22144" lon="1.16513">
        <ele>175.7</ele>
        <time>2018-04-27T06:41:25.000Z</time>
      </trkpt>
      <trkpt lat="44.22143" lon="1.16514">
        <ele>176.12</ele>
        <time>2018-04-27T06:41:35.000Z</time>
      </trkpt>
      <trkpt lat="44.22144" lon="1.16515">
        <ele>175.78</ele>
        <time>2018-04-27T06:42:20.000Z</time>
      </trkpt>
      <trkpt lat="44.22143" lon="1.16516">
        <ele>176</ele>
        <time>2018-04-27T06:43:25.000Z</time>
      </trkpt>
      <trkpt lat="44.22134" lon="1.16511">
        <ele>176.21</ele>
        <time>2018-04-27T06:43:35.000Z</time>
      </trkpt>
      <trkpt lat="44.22123" lon="1.16507">
        <ele>176.67</ele>
        <time>2018-04-27T06:43:45.000Z</time>
      </trkpt>
      <trkpt lat="44.22112" lon="1.16502">
        <ele>177.17</ele>
        <time>2018-04-27T06:43:55.000Z</time>
      </trkpt>
      <trkpt lat="44.22102" lon="1.16495">
        <ele>177.27</ele>
        <time>2018-04-27T06:44:05.000Z</time>
      </trkpt>
      <trkpt lat="44.22096" lon="1.16479">
        <ele>176.96</ele>
        <time>2018-04-27T06:44:15.000Z</time>
      </trkpt>
      <trkpt lat="44.22092" lon="1.16462">
        <ele>177.06</ele>
        <time>2018-04-27T06:44:25.000Z</time>
      </trkpt>
      <trkpt lat="44.22087" lon="1.16448">
        <ele>177.4</ele>
        <time>2018-04-27T06:44:35.000Z</time>
      </trkpt>
      <trkpt lat="44.22082" lon="1.1643">
        <ele>177.51</ele>
        <time>2018-04-27T06:44:45.000Z</time>
      </trkpt>
      <trkpt lat="44.22077" lon="1.16412">
        <ele>177.84</ele>
        <time>2018-04-27T06:44:55.000Z</time>
      </trkpt>
      <trkpt lat="44.22073" lon="1.16396">
        <ele>177.51</ele>
        <time>2018-04-27T06:45:05.000Z</time>
      </trkpt>
      <trkpt lat="44.22066" lon="1.16378">
        <ele>177.66</ele>
        <time>2018-04-27T06:45:15.000Z</time>
      </trkpt>
      <trkpt lat="44.22061" lon="1.1636">
        <ele>177.73</ele>
        <time>2018-04-27T06:45:25.000Z</time>
      </trkpt>
      <trkpt lat="44.22055" lon="1.16345">
        <ele>177.24</ele>
        <time>2018-04-27T06:45:35.000Z</time>
      </trkpt>
      <trkpt lat="44.22048" lon="1.1633">
        <ele>177.17</ele>
        <time>2018-04-27T06:45:45.000Z</time>
      </trkpt>
      <trkpt lat="44.22042" lon="1.16314">
        <ele>177.23</ele>
        <time>2018-04-27T06:45:55.000Z</time>
      </trkpt>
      <trkpt lat="44.22035" lon="1.16299">
        <ele>177.26</ele>
        <time>2018-04-27T06:46:05.000Z</time>
      </trkpt>
      <trkpt lat="44.22027" lon="1.16284">
        <ele>177.07</ele>
        <time>2018-04-27T06:46:15.000Z</time>
      </trkpt>
      <trkpt lat="44.22019" lon="1.16269">
        <ele>176.93</ele>
        <time>2018-04-27T06:46:25.000Z</time>
      </trkpt>
      <trkpt lat="44.22014" lon="1.16255">
        <ele>177.01</ele>
        <time>2018-04-27T06:46:35.000Z</time>
      </trkpt>
      <trkpt lat="44.22008" lon="1.16242">
        <ele>176.82</ele>
        <time>2018-04-27T06:46:45.000Z</time>
      </trkpt>
      <trkpt lat="44.22" lon="1.16226">
        <ele>177.17</ele>
        <time>2018-04-27T06:46:55.000Z</time>
      </trkpt>
      <trkpt lat="44.21993" lon="1.1621">
        <ele>177.15</ele>
        <time>2018-04-27T06:47:05.000Z</time>
      </trkpt>
      <trkpt lat="44.21986" lon="1.16195">
        <ele>176.99</ele>
        <time>2018-04-27T06:47:15.000Z</time>
      </trkpt>
      <trkpt lat="44.2198" lon="1.16179">
        <ele>177.24</ele>
        <time>2018-04-27T06:47:25.000Z</time>
      </trkpt>
      <trkpt lat="44.21975" lon="1.16164">
        <ele>177.15</ele>
        <time>2018-04-27T06:47:35.000Z</time>
      </trkpt>
      <trkpt lat="44.21969" lon="1.16148">
        <ele>177.23</ele>
        <time>2018-04-27T06:47:45.000Z</time>
      </trkpt>
      <trkpt lat="44.21963" lon="1.16131">
        <ele>177.33</ele>
        <time>2018-04-27T06:47:55.000Z</time>
      </trkpt>
      <trkpt lat="44.21956" lon="1.16115">
        <ele>177.22</ele>
        <time>2018-04-27T06:48:05.000Z</time>
      </trkpt>
      <trkpt lat="44.2195" lon="1.16098">
        <ele>177.67</ele>
        <time>2018-04-27T06:48:15.000Z</time>
      </trkpt>
      <trkpt lat="44.21944" lon="1.16084">
        <ele>177.74</ele>
        <time>2018-04-27T06:48:25.000Z</time>
      </trkpt>
      <trkpt lat="44.21938" lon="1.16068">
        <ele>177.56</ele>
        <time>2018-04-27T06:48:35.000Z</time>
      </trkpt>
      <trkpt lat="44.21932" lon="1.16052">
        <ele>177.48</ele>
        <time>2018-04-27T06:48:45.000Z</time>
      </trkpt>
      <trkpt lat="44.21925" lon="1.16037">
        <ele>177.47</ele>
        <time>2018-04-27T06:48:55.000Z</time>
      </trkpt>
      <trkpt lat="44.21919" lon="1.16021">
        <ele>177.37</ele>
        <time>2018-04-27T06:49:05.000Z</time>
      </trkpt>
      <trkpt lat="44.21912" lon="1.16004">
        <ele>176.97</ele>
        <time>2018-04-27T06:49:15.000Z</time>
      </trkpt>
      <trkpt lat="44.21906" lon="1.15987">
        <ele>177.2</ele>
        <time>2018-04-27T06:49:25.000Z</time>
      </trkpt>
      <trkpt lat="44.21901" lon="1.15971">
        <ele>177.59</ele>
        <time>2018-04-27T06:49:35.000Z</time>
      </trkpt>
      <trkpt lat="44.21895" lon="1.15954">
        <ele>177.44</ele>
        <time>2018-04-27T06:49:45.000Z</time>
      </trkpt>
      <trkpt lat="44.21889" lon="1.15936">
        <ele>177.31</ele>
        <time>2018-04-27T06:49:55.000Z</time>
      </trkpt>
      <trkpt lat="44.21883" lon="1.15921">
        <ele>177.3</ele>
        <time>2018-04-27T06:50:05.000Z</time>
      </trkpt>
      <trkpt lat="44.21877" lon="1.15905">
        <ele>177.23</ele>
        <time>2018-04-27T06:50:15.000Z</time>
      </trkpt>
      <trkpt lat="44.21873" lon="1.1589">
        <ele>177.36</ele>
        <time>2018-04-27T06:50:25.000Z</time>
      </trkpt>
      <trkpt lat="44.21866" lon="1.15873">
        <ele>177.4</ele>
        <time>2018-04-27T06:50:35.000Z</time>
      </trkpt>
      <trkpt lat="44.21861" lon="1.15858">
        <ele>177.44</ele>
        <time>2018-04-27T06:50:45.000Z</time>
      </trkpt>
      <trkpt lat="44.21855" lon="1.15841">
        <ele>177.25</ele>
        <time>2018-04-27T06:50:55.000Z</time>
      </trkpt>
      <trkpt lat="44.21848" lon="1.15823">
        <ele>177.03</ele>
        <time>2018-04-27T06:51:05.000Z</time>
      </trkpt>
      <trkpt lat="44.21842" lon="1.15808">
        <ele>176.89</ele>
        <time>2018-04-27T06:51:15.000Z</time>
      </trkpt>
      <trkpt lat="44.21835" lon="1.15792">
        <ele>176.53</ele>
        <time>2018-04-27T06:51:25.000Z</time>
      </trkpt>
      <trkpt lat="44.21828" lon="1.15775">
        <ele>176.6</ele>
        <time>2018-04-27T06:51:35.000Z</time>
      </trkpt>
      <trkpt lat="44.21821" lon="1.15759">
        <ele>176.98</ele>
        <time>2018-04-27T06:51:45.000Z</time>
      </trkpt>
      <trkpt lat="44.21813" lon="1.15746">
        <ele>176.81</ele>
        <time>2018-04-27T06:51:55.000Z</time>
      </trkpt>
      <trkpt lat="44.21807" lon="1.15732">
        <ele>176.7</ele>
        <time>2018-04-27T06:52:05.000Z</time>
      </trkpt>
      <trkpt lat="44.218" lon="1.15716">
        <ele>176.37</ele>
        <time>2018-04-27T06:52:15.000Z</time>
      </trkpt>
      <trkpt lat="44.21793" lon="1.157">
        <ele>176.54</ele>
        <time>2018-04-27T06:52:25.000Z</time>
      </trkpt>
      <trkpt lat="44.21786" lon="1.15685">
        <ele>176.48</ele>
        <time>2018-04-27T06:52:35.000Z</time>
      </trkpt>
      <trkpt lat="44.21778" lon="1.1567">
        <ele>176.38</ele>
        <time>2018-04-27T06:52:45.000Z</time>
      </trkpt>
      <trkpt lat="44.21771" lon="1.15655">
        <ele>176.34</ele>
        <time>2018-04-27T06:52:55.000Z</time>
      </trkpt>
      <trkpt lat="44.21762" lon="1.1564">
        <ele>176.31</ele>
        <time>2018-04-27T06:53:05.000Z</time>
      </trkpt>
      <trkpt lat="44.21755" lon="1.15625">
        <ele>176.35</ele>
        <time>2018-04-27T06:53:15.000Z</time>
      </trkpt>
      <trkpt lat="44.21748" lon="1.15609">
        <ele>176.66</ele>
        <time>2018-04-27T06:53:25.000Z</time>
      </trkpt>
      <trkpt lat="44.21741" lon="1.15594">
        <ele>176.6</ele>
        <time>2018-04-27T06:53:35.000Z</time>
      </trkpt>
      <trkpt lat="44.21737" lon="1.15576">
        <ele>176.31</ele>
        <time>2018-04-27T06:53:45.000Z</time>
      </trkpt>
      <trkpt lat="44.21734" lon="1.15558">
        <ele>176.13</ele>
        <time>2018-04-27T06:53:55.000Z</time>
      </trkpt>
      <trkpt lat="44.21731" lon="1.1554">
        <ele>175.86</ele>
        <time>2018-04-27T06:54:05.000Z</time>
      </trkpt>
      <trkpt lat="44.21725" lon="1.15521">
        <ele>175.27</ele>
        <time>2018-04-27T06:54:15.000Z</time>
      </trkpt>
      <trkpt lat="44.21723" lon="1.15503">
        <ele>174.99</ele>
        <time>2018-04-27T06:54:25.000Z</time>
      </trkpt>
      <trkpt lat="44.2172" lon="1.15485">
        <ele>174.8</ele>
        <time>2018-04-27T06:54:35.000Z</time>
      </trkpt>
      <trkpt lat="44.21717" lon="1.15468">
        <ele>174.62</ele>
        <time>2018-04-27T06:54:45.000Z</time>
      </trkpt>
      <trkpt lat="44.21715" lon="1.15452">
        <ele>174.59</ele>
        <time>2018-04-27T06:54:55.000Z</time>
      </trkpt>
      <trkpt lat="44.21713" lon="1.15434">
        <ele>174.39</ele>
        <time>2018-04-27T06:55:05.000Z</time>
      </trkpt>
      <trkpt lat="44.2171" lon="1.15415">
        <ele>174.29</ele>
        <time>2018-04-27T06:55:15.000Z</time>
      </trkpt>
      <trkpt lat="44.21706" lon="1.15398">
        <ele>174.56</ele>
        <time>2018-04-27T06:55:25.000Z</time>
      </trkpt>
      <trkpt lat="44.21704" lon="1.15378">
        <ele>174.42</ele>
        <time>2018-04-27T06:55:35.000Z</time>
      </trkpt>
      <trkpt lat="44.21701" lon="1.1536">
        <ele>174.2</ele>
        <time>2018-04-27T06:55:45.000Z</time>
      </trkpt>
      <trkpt lat="44.21697" lon="1.15343">
        <ele>174.14</ele>
        <time>2018-04-27T06:55:55.000Z</time>
      </trkpt>
      <trkpt lat="44.21694" lon="1.15325">
        <ele>173.73</ele>
        <time>2018-04-27T06:56:05.000Z</time>
      </trkpt>
      <trkpt lat="44.21691" lon="1.15308">
        <ele>173.78</ele>
        <time>2018-04-27T06:56:15.000Z</time>
      </trkpt>
      <trkpt lat="44.21687" lon="1.15291">
        <ele>173.62</ele>
        <time>2018-04-27T06:56:25.000Z</time>
      </trkpt>
      <trkpt lat="44.21682" lon="1.15272">
        <ele>173.54</ele>
        <time>2018-04-27T06:56:35.000Z</time>
      </trkpt>
      <trkpt lat="44.21678" lon="1.15255">
        <ele>173.45</ele>
        <time>2018-04-27T06:56:45.000Z</time>
      </trkpt>
      <trkpt lat="44.21675" lon="1.15237">
        <ele>173.87</ele>
        <time>2018-04-27T06:56:55.000Z</time>
      </trkpt>
      <trkpt lat="44.21671" lon="1.15219">
        <ele>173.77</ele>
        <time>2018-04-27T06:57:05.000Z</time>
      </trkpt>
      <trkpt lat="44.21667" lon="1.15202">
        <ele>173.44</ele>
        <time>2018-04-27T06:57:15.000Z</time>
      </trkpt>
      <trkpt lat="44.21663" lon="1.15184">
        <ele>173.5</ele>
        <time>2018-04-27T06:57:25.000Z</time>
      </trkpt>
      <trkpt lat="44.21659" lon="1.15168">
        <ele>173.93</ele>
        <time>2018-04-27T06:57:35.000Z</time>
      </trkpt>
      <trkpt lat="44.21654" lon="1.15153">
        <ele>173.66</ele>
        <time>2018-04-27T06:57:45.000Z</time>
      </trkpt>
      <trkpt lat="44.21653" lon="1.15149">
        <ele>173.55</ele>
        <time>2018-04-27T06:57:55.000Z</time>
      </trkpt>
      <trkpt lat="44.21653" lon="1.15148">
        <ele>174.22</ele>
        <time>2018-04-27T06:58:15.000Z</time>
      </trkpt>
      <trkpt lat="44.21653" lon="1.15144">
        <ele>174.49</ele>
        <time>2018-04-27T06:58:25.000Z</time>
      </trkpt>
      <trkpt lat="44.21647" lon="1.15137">
        <ele>173.99</ele>
        <time>2018-04-27T06:58:35.000Z</time>
      </trkpt>
      <trkpt lat="44.21641" lon="1.15126">
        <ele>174.55</ele>
        <time>2018-04-27T06:58:45.000Z</time>
      </trkpt>
      <trkpt lat="44.21635" lon="1.15114">
        <ele>174.76</ele>
        <time>2018-04-27T06:58:55.000Z</time>
      </trkpt>
      <trkpt lat="44.21627" lon="1.151">
        <ele>175.74</ele>
        <time>2018-04-27T06:59:05.000Z</time>
      </trkpt>
      <trkpt lat="44.21619" lon="1.15086">
        <ele>176.12</ele>
        <time>2018-04-27T06:59:15.000Z</time>
      </trkpt>
      <trkpt lat="44.21612" lon="1.15074">
        <ele>176.11</ele>
        <time>2018-04-27T06:59:25.000Z</time>
      </trkpt>
      <trkpt lat="44.21605" lon="1.15058">
        <ele>175.65</ele>
        <time>2018-04-27T06:59:35.000Z</time>
      </trkpt>
      <trkpt lat="44.216" lon="1.1504">
        <ele>175.54</ele>
        <time>2018-04-27T06:59:45.000Z</time>
      </trkpt>
      <trkpt lat="44.21597" lon="1.15022">
        <ele>175.24</ele>
        <time>2018-04-27T06:59:55.000Z</time>
      </trkpt>
      <trkpt lat="44.21594" lon="1.15003">
        <ele>174.58</ele>
        <time>2018-04-27T07:00:05.000Z</time>
      </trkpt>
      <trkpt lat="44.21591" lon="1.14984">
        <ele>174.25</ele>
        <time>2018-04-27T07:00:15.000Z</time>
      </trkpt>
      <trkpt lat="44.21588" lon="1.14967">
        <ele>174.07</ele>
        <time>2018-04-27T07:00:25.000Z</time>
      </trkpt>
      <trkpt lat="44.21586" lon="1.14949">
        <ele>174.12</ele>
        <time>2018-04-27T07:00:35.000Z</time>
      </trkpt>
      <trkpt lat="44.21575" lon="1.14947">
        <ele>174.23</ele>
        <time>2018-04-27T07:00:45.000Z</time>
      </trkpt>
      <trkpt lat="44.21564" lon="1.14955">
        <ele>174.24</ele>
        <time>2018-04-27T07:00:55.000Z</time>
      </trkpt>
      <trkpt lat="44.21555" lon="1.14962">
        <ele>174.76</ele>
        <time>2018-04-27T07:01:05.000Z</time>
      </trkpt>
      <trkpt lat="44.21547" lon="1.14971">
        <ele>174.98</ele>
        <time>2018-04-27T07:01:15.000Z</time>
      </trkpt>
      <trkpt lat="44.21538" lon="1.14978">
        <ele>175.85</ele>
        <time>2018-04-27T07:01:25.000Z</time>
      </trkpt>
      <trkpt lat="44.2153" lon="1.14987">
        <ele>176.44</ele>
        <time>2018-04-27T07:01:35.000Z</time>
      </trkpt>
      <trkpt lat="44.21523" lon="1.14995">
        <ele>176.74</ele>
        <time>2018-04-27T07:01:45.000Z</time>
      </trkpt>
      <trkpt lat="44.21515" lon="1.15003">
        <ele>177.85</ele>
        <time>2018-04-27T07:01:55.000Z</time>
      </trkpt>
      <trkpt lat="44.21506" lon="1.1501">
        <ele>178.33</ele>
        <time>2018-04-27T07:02:05.000Z</time>
      </trkpt>
      <trkpt lat="44.21498" lon="1.15017">
        <ele>179.08</ele>
        <time>2018-04-27T07:02:15.000Z</time>
      </trkpt>
      <trkpt lat="44.21489" lon="1.15025">
        <ele>179.23</ele>
        <time>2018-04-27T07:02:25.000Z</time>
      </trkpt>
      <trkpt lat="44.21481" lon="1.15034">
        <ele>179.79</ele>
        <time>2018-04-27T07:02:35.000Z</time>
      </trkpt>
      <trkpt lat="44.21473" lon="1.15042">
        <ele>180.16</ele>
        <time>2018-04-27T07:02:45.000Z</time>
      </trkpt>
      <trkpt lat="44.21464" lon="1.15049">
        <ele>180.27</ele>
        <time>2018-04-27T07:02:55.000Z</time>
      </trkpt>
      <trkpt lat="44.21457" lon="1.15058">
        <ele>180.84</ele>
        <time>2018-04-27T07:03:05.000Z</time>
      </trkpt>
      <trkpt lat="44.2145" lon="1.15066">
        <ele>181.45</ele>
        <time>2018-04-27T07:03:15.000Z</time>
      </trkpt>
      <trkpt lat="44.21442" lon="1.15071">
        <ele>182.09</ele>
        <time>2018-04-27T07:03:25.000Z</time>
      </trkpt>
      <trkpt lat="44.21434" lon="1.15075">
        <ele>182.8</ele>
        <time>2018-04-27T07:03:35.000Z</time>
      </trkpt>
      <trkpt lat="44.21427" lon="1.15081">
        <ele>183.51</ele>
        <time>2018-04-27T07:03:45.000Z</time>
      </trkpt>
      <trkpt lat="44.2142" lon="1.15088">
        <ele>184.31</ele>
        <time>2018-04-27T07:03:55.000Z</time>
      </trkpt>
      <trkpt lat="44.21414" lon="1.15094">
        <ele>185.24</ele>
        <time>2018-04-27T07:04:05.000Z</time>
      </trkpt>
      <trkpt lat="44.21408" lon="1.15104">
        <ele>186.36</ele>
        <time>2018-04-27T07:04:15.000Z</time>
      </trkpt>
      <trkpt lat="44.21401" lon="1.15113">
        <ele>187.36</ele>
        <time>2018-04-27T07:04:25.000Z</time>
      </trkpt>
      <trkpt lat="44.21393" lon="1.15122">
        <ele>188.05</ele>
        <time>2018-04-27T07:04:35.000Z</time>
      </trkpt>
      <trkpt lat="44.21387" lon="1.15129">
        <ele>188.73</ele>
        <time>2018-04-27T07:04:45.000Z</time>
      </trkpt>
      <trkpt lat="44.2138" lon="1.15135">
        <ele>189.9</ele>
        <time>2018-04-27T07:04:55.000Z</time>
      </trkpt>
      <trkpt lat="44.21374" lon="1.15142">
        <ele>190.91</ele>
        <time>2018-04-27T07:05:05.000Z</time>
      </trkpt>
      <trkpt lat="44.21371" lon="1.15151">
        <ele>191.71</ele>
        <time>2018-04-27T07:05:15.000Z</time>
      </trkpt>
      <trkpt lat="44.21364" lon="1.15162">
        <ele>192.39</ele>
        <time>2018-04-27T07:05:25.000Z</time>
      </trkpt>
      <trkpt lat="44.21358" lon="1.15171">
        <ele>193.3</ele>
        <time>2018-04-27T07:05:35.000Z</time>
      </trkpt>
      <trkpt lat="44.2135" lon="1.15179">
        <ele>194.44</ele>
        <time>2018-04-27T07:05:45.000Z</time>
      </trkpt>
      <trkpt lat="44.21342" lon="1.15188">
        <ele>194.98</ele>
        <time>2018-04-27T07:05:55.000Z</time>
      </trkpt>
      <trkpt lat="44.21334" lon="1.15195">
        <ele>195.86</ele>
        <time>2018-04-27T07:06:05.000Z</time>
      </trkpt>
      <trkpt lat="44.21327" lon="1.15201">
        <ele>197.14</ele>
        <time>2018-04-27T07:06:15.000Z</time>
      </trkpt>
      <trkpt lat="44.21319" lon="1.15205">
        <ele>197.75</ele>
        <time>2018-04-27T07:06:25.000Z</time>
      </trkpt>
      <trkpt lat="44.21309" lon="1.15209">
        <ele>199.02</ele>
        <time>2018-04-27T07:06:35.000Z</time>
      </trkpt>
      <trkpt lat="44.213" lon="1.15213">
        <ele>200.19</ele>
        <time>2018-04-27T07:06:45.000Z</time>
      </trkpt>
      <trkpt lat="44.21291" lon="1.15216">
        <ele>200.96</ele>
        <time>2018-04-27T07:06:55.000Z</time>
      </trkpt>
      <trkpt lat="44.21282" lon="1.1522">
        <ele>201.59</ele>
        <time>2018-04-27T07:07:05.000Z</time>
      </trkpt>
      <trkpt lat="44.21273" lon="1.15222">
        <ele>202.26</ele>
        <time>2018-04-27T07:07:15.000Z</time>
      </trkpt>
      <trkpt lat="44.21264" lon="1.1522">
        <ele>203.03</ele>
        <time>2018-04-27T07:07:25.000Z</time>
      </trkpt>
      <trkpt lat="44.21255" lon="1.15215">
        <ele>203.28</ele>
        <time>2018-04-27T07:07:35.000Z</time>
      </trkpt>
      <trkpt lat="44.21248" lon="1.15206">
        <ele>203.86</ele>
        <time>2018-04-27T07:07:45.000Z</time>
      </trkpt>
      <trkpt lat="44.21242" lon="1.15198">
        <ele>205.01</ele>
        <time>2018-04-27T07:07:55.000Z</time>
      </trkpt>
      <trkpt lat="44.21237" lon="1.15189">
        <ele>205.56</ele>
        <time>2018-04-27T07:08:05.000Z</time>
      </trkpt>
      <trkpt lat="44.2123" lon="1.15181">
        <ele>206.72</ele>
        <time>2018-04-27T07:08:15.000Z</time>
      </trkpt>
      <trkpt lat="44.21223" lon="1.15173">
        <ele>207.8</ele>
        <time>2018-04-27T07:08:25.000Z</time>
      </trkpt>
      <trkpt lat="44.21217" lon="1.15165">
        <ele>208.84</ele>
        <time>2018-04-27T07:08:35.000Z</time>
      </trkpt>
      <trkpt lat="44.2121" lon="1.15158">
        <ele>210.1</ele>
        <time>2018-04-27T07:08:45.000Z</time>
      </trkpt>
      <trkpt lat="44.21202" lon="1.15152">
        <ele>210.85</ele>
        <time>2018-04-27T07:08:55.000Z</time>
      </trkpt>
      <trkpt lat="44.21195" lon="1.15146">
        <ele>211.6</ele>
        <time>2018-04-27T07:09:05.000Z</time>
      </trkpt>
      <trkpt lat="44.21187" lon="1.15141">
        <ele>212.23</ele>
        <time>2018-04-27T07:09:15.000Z</time>
      </trkpt>
      <trkpt lat="44.21179" lon="1.15137">
        <ele>213.25</ele>
        <time>2018-04-27T07:09:25.000Z</time>
      </trkpt>
      <trkpt lat="44.21174" lon="1.15132">
        <ele>213.92</ele>
        <time>2018-04-27T07:09:35.000Z</time>
      </trkpt>
      <trkpt lat="44.21173" lon="1.15131">
        <ele>214.3</ele>
        <time>2018-04-27T07:10:05.000Z</time>
      </trkpt>
      <trkpt lat="44.21169" lon="1.1513">
        <ele>214.42</ele>
        <time>2018-04-27T07:10:15.000Z</time>
      </trkpt>
      <trkpt lat="44.21167" lon="1.15131">
        <ele>214.47</ele>
        <time>2018-04-27T07:10:25.000Z</time>
      </trkpt>
      <trkpt lat="44.21167" lon="1.15132">
        <ele>214.17</ele>
        <time>2018-04-27T07:11:32.000Z</time>
      </trkpt>
      <trkpt lat="44.21166" lon="1.15133">
        <ele>213.98</ele>
        <time>2018-04-27T07:12:32.000Z</time>
      </trkpt>
      <trkpt lat="44.21165" lon="1.15136">
        <ele>214.03</ele>
        <time>2018-04-27T07:12:42.000Z</time>
      </trkpt>
      <trkpt lat="44.21161" lon="1.15142">
        <ele>214.9</ele>
        <time>2018-04-27T07:12:52.000Z</time>
      </trkpt>
      <trkpt lat="44.21152" lon="1.15146">
        <ele>215.36</ele>
        <time>2018-04-27T07:13:02.000Z</time>
      </trkpt>
      <trkpt lat="44.21142" lon="1.1515">
        <ele>216.34</ele>
        <time>2018-04-27T07:13:12.000Z</time>
      </trkpt>
      <trkpt lat="44.21132" lon="1.15155">
        <ele>217.27</ele>
        <time>2018-04-27T07:13:22.000Z</time>
      </trkpt>
      <trkpt lat="44.21121" lon="1.15159">
        <ele>218.23</ele>
        <time>2018-04-27T07:13:32.000Z</time>
      </trkpt>
      <trkpt lat="44.21108" lon="1.15163">
        <ele>218.61</ele>
        <time>2018-04-27T07:13:42.000Z</time>
      </trkpt>
      <trkpt lat="44.21098" lon="1.15167">
        <ele>219.04</ele>
        <time>2018-04-27T07:13:52.000Z</time>
      </trkpt>
      <trkpt lat="44.21087" lon="1.15173">
        <ele>219.71</ele>
        <time>2018-04-27T07:14:02.000Z</time>
      </trkpt>
      <trkpt lat="44.21077" lon="1.15181">
        <ele>220.05</ele>
        <time>2018-04-27T07:14:12.000Z</time>
      </trkpt>
      <trkpt lat="44.21067" lon="1.15188">
        <ele>220.52</ele>
        <time>2018-04-27T07:14:22.000Z</time>
      </trkpt>
      <trkpt lat="44.21058" lon="1.15197">
        <ele>221.01</ele>
        <time>2018-04-27T07:14:32.000Z</time>
      </trkpt>
      <trkpt lat="44.21048" lon="1.15207">
        <ele>221.24</ele>
        <time>2018-04-27T07:14:42.000Z</time>
      </trkpt>
      <trkpt lat="44.21039" lon="1.15217">
        <ele>221.55</ele>
        <time>2018-04-27T07:14:52.000Z</time>
      </trkpt>
      <trkpt lat="44.21029" lon="1.15228">
        <ele>221.92</ele>
        <time>2018-04-27T07:15:02.000Z</time>
      </trkpt>
      <trkpt lat="44.21021" lon="1.15239">
        <ele>222.19</ele>
        <time>2018-04-27T07:15:12.000Z</time>
      </trkpt>
      <trkpt lat="44.21012" lon="1.1525">
        <ele>222.21</ele>
        <time>2018-04-27T07:15:22.000Z</time>
      </trkpt>
      <trkpt lat="44.21002" lon="1.15259">
        <ele>222.35</ele>
        <time>2018-04-27T07:15:32.000Z</time>
      </trkpt>
      <trkpt lat="44.20991" lon="1.15268">
        <ele>222.66</ele>
        <time>2018-04-27T07:15:42.000Z</time>
      </trkpt>
      <trkpt lat="44.2098" lon="1.15276">
        <ele>222.64</ele>
        <time>2018-04-27T07:15:52.000Z</time>
      </trkpt>
      <trkpt lat="44.2097" lon="1.15285">
        <ele>223.28</ele>
        <time>2018-04-27T07:16:02.000Z</time>
      </trkpt>
      <trkpt lat="44.20959" lon="1.15293">
        <ele>224.33</ele>
        <time>2018-04-27T07:16:12.000Z</time>
      </trkpt>
      <trkpt lat="44.20948" lon="1.15301">
        <ele>224.91</ele>
        <time>2018-04-27T07:16:22.000Z</time>
      </trkpt>
      <trkpt lat="44.20937" lon="1.1531">
        <ele>224.63</ele>
        <time>2018-04-27T07:16:32.000Z</time>
      </trkpt>
      <trkpt lat="44.20927" lon="1.15321">
        <ele>224.41</ele>
        <time>2018-04-27T07:16:42.000Z</time>
      </trkpt>
      <trkpt lat="44.20916" lon="1.1533">
        <ele>224.63</ele>
        <time>2018-04-27T07:16:52.000Z</time>
      </trkpt>
      <trkpt lat="44.20905" lon="1.15335">
        <ele>224.56</ele>
        <time>2018-04-27T07:17:02.000Z</time>
      </trkpt>
      <trkpt lat="44.20891" lon="1.15339">
        <ele>225.1</ele>
        <time>2018-04-27T07:17:12.000Z</time>
      </trkpt>
      <trkpt lat="44.2088" lon="1.15343">
        <ele>224.85</ele>
        <time>2018-04-27T07:17:22.000Z</time>
      </trkpt>
      <trkpt lat="44.20869" lon="1.15349">
        <ele>225.45</ele>
        <time>2018-04-27T07:17:32.000Z</time>
      </trkpt>
      <trkpt lat="44.20857" lon="1.15354">
        <ele>225.53</ele>
        <time>2018-04-27T07:17:42.000Z</time>
      </trkpt>
      <trkpt lat="44.20845" lon="1.1536">
        <ele>225.89</ele>
        <time>2018-04-27T07:17:52.000Z</time>
      </trkpt>
      <trkpt lat="44.20834" lon="1.15366">
        <ele>226.64</ele>
        <time>2018-04-27T07:18:02.000Z</time>
      </trkpt>
      <trkpt lat="44.20823" lon="1.15371">
        <ele>226.97</ele>
        <time>2018-04-27T07:18:12.000Z</time>
      </trkpt>
      <trkpt lat="44.20813" lon="1.15375">
        <ele>227.62</ele>
        <time>2018-04-27T07:18:22.000Z</time>
      </trkpt>
      <trkpt lat="44.20802" lon="1.15374">
        <ele>228.16</ele>
        <time>2018-04-27T07:18:32.000Z</time>
      </trkpt>
      <trkpt lat="44.2079" lon="1.15371">
        <ele>229.07</ele>
        <time>2018-04-27T07:18:42.000Z</time>
      </trkpt>
      <trkpt lat="44.2078" lon="1.15369">
        <ele>229.7</ele>
        <time>2018-04-27T07:18:52.000Z</time>
      </trkpt>
      <trkpt lat="44.20771" lon="1.15365">
        <ele>230.74</ele>
        <time>2018-04-27T07:19:02.000Z</time>
      </trkpt>
      <trkpt lat="44.20763" lon="1.15362">
        <ele>231.82</ele>
        <time>2018-04-27T07:19:12.000Z</time>
      </trkpt>
      <trkpt lat="44.20754" lon="1.15359">
        <ele>232.9</ele>
        <time>2018-04-27T07:19:22.000Z</time>
      </trkpt>
      <trkpt lat="44.20744" lon="1.15357">
        <ele>234.54</ele>
        <time>2018-04-27T07:19:32.000Z</time>
      </trkpt>
      <trkpt lat="44.20735" lon="1.15352">
        <ele>235.77</ele>
        <time>2018-04-27T07:19:42.000Z</time>
      </trkpt>
      <trkpt lat="44.20727" lon="1.15347">
        <ele>237.43</ele>
        <time>2018-04-27T07:19:52.000Z</time>
      </trkpt>
      <trkpt lat="44.20719" lon="1.1534">
        <ele>238.85</ele>
        <time>2018-04-27T07:20:02.000Z</time>
      </trkpt>
      <trkpt lat="44.20711" lon="1.15336">
        <ele>240.41</ele>
        <time>2018-04-27T07:20:12.000Z</time>
      </trkpt>
      <trkpt lat="44.20705" lon="1.15331">
        <ele>241.65</ele>
        <time>2018-04-27T07:20:22.000Z</time>
      </trkpt>
      <trkpt lat="44.20699" lon="1.15328">
        <ele>243.13</ele>
        <time>2018-04-27T07:20:32.000Z</time>
      </trkpt>
      <trkpt lat="44.2069" lon="1.15322">
        <ele>244</ele>
        <time>2018-04-27T07:20:42.000Z</time>
      </trkpt>
      <trkpt lat="44.2068" lon="1.15321">
        <ele>243.67</ele>
        <time>2018-04-27T07:20:52.000Z</time>
      </trkpt>
      <trkpt lat="44.20672" lon="1.15331">
        <ele>243.23</ele>
        <time>2018-04-27T07:21:02.000Z</time>
      </trkpt>
      <trkpt lat="44.20664" lon="1.15342">
        <ele>243.46</ele>
        <time>2018-04-27T07:21:12.000Z</time>
      </trkpt>
      <trkpt lat="44.20656" lon="1.15354">
        <ele>242.83</ele>
        <time>2018-04-27T07:21:22.000Z</time>
      </trkpt>
      <trkpt lat="44.20648" lon="1.15368">
        <ele>242.83</ele>
        <time>2018-04-27T07:21:32.000Z</time>
      </trkpt>
      <trkpt lat="44.20642" lon="1.1538">
        <ele>242.86</ele>
        <time>2018-04-27T07:21:42.000Z</time>
      </trkpt>
      <trkpt lat="44.20636" lon="1.15391">
        <ele>242.54</ele>
        <time>2018-04-27T07:21:52.000Z</time>
      </trkpt>
      <trkpt lat="44.20629" lon="1.15404">
        <ele>242.69</ele>
        <time>2018-04-27T07:22:02.000Z</time>
      </trkpt>
      <trkpt lat="44.2062" lon="1.15416">
        <ele>243.37</ele>
        <time>2018-04-27T07:22:12.000Z</time>
      </trkpt>
      <trkpt lat="44.20614" lon="1.15431">
        <ele>244.15</ele>
        <time>2018-04-27T07:22:22.000Z</time>
      </trkpt>
      <trkpt lat="44.20607" lon="1.15442">
        <ele>244.13</ele>
        <time>2018-04-27T07:22:32.000Z</time>
      </trkpt>
      <trkpt lat="44.20601" lon="1.15448">
        <ele>243.19</ele>
        <time>2018-04-27T07:22:42.000Z</time>
      </trkpt>
      <trkpt lat="44.20596" lon="1.1545">
        <ele>241.73</ele>
        <time>2018-04-27T07:22:52.000Z</time>
      </trkpt>
      <trkpt lat="44.20588" lon="1.15453">
        <ele>239.83</ele>
        <time>2018-04-27T07:23:02.000Z</time>
      </trkpt>
      <trkpt lat="44.20579" lon="1.15455">
        <ele>237.88</ele>
        <time>2018-04-27T07:23:12.000Z</time>
      </trkpt>
      <trkpt lat="44.2057" lon="1.15457">
        <ele>236.32</ele>
        <time>2018-04-27T07:23:22.000Z</time>
      </trkpt>
      <trkpt lat="44.20564" lon="1.15455">
        <ele>235.08</ele>
        <time>2018-04-27T07:23:32.000Z</time>
      </trkpt>
      <trkpt lat="44.20562" lon="1.15453">
        <ele>234.02</ele>
        <time>2018-04-27T07:23:42.000Z</time>
      </trkpt>
      <trkpt lat="44.20557" lon="1.15447">
        <ele>232.91</ele>
        <time>2018-04-27T07:23:52.000Z</time>
      </trkpt>
      <trkpt lat="44.20551" lon="1.15443">
        <ele>231.02</ele>
        <time>2018-04-27T07:24:02.000Z</time>
      </trkpt>
      <trkpt lat="44.20544" lon="1.15436">
        <ele>228.82</ele>
        <time>2018-04-27T07:24:12.000Z</time>
      </trkpt>
      <trkpt lat="44.20536" lon="1.15432">
        <ele>226.92</ele>
        <time>2018-04-27T07:24:22.000Z</time>
      </trkpt>
      <trkpt lat="44.2053" lon="1.15425">
        <ele>225.18</ele>
        <time>2018-04-27T07:24:32.000Z</time>
      </trkpt>
      <trkpt lat="44.20522" lon="1.15422">
        <ele>223.06</ele>
        <time>2018-04-27T07:24:42.000Z</time>
      </trkpt>
      <trkpt lat="44.20514" lon="1.15417">
        <ele>220.82</ele>
        <time>2018-04-27T07:24:52.000Z</time>
      </trkpt>
      <trkpt lat="44.20509" lon="1.15412">
        <ele>218.54</ele>
        <time>2018-04-27T07:25:02.000Z</time>
      </trkpt>
      <trkpt lat="44.20502" lon="1.15407">
        <ele>216.33</ele>
        <time>2018-04-27T07:25:12.000Z</time>
      </trkpt>
      <trkpt lat="44.20493" lon="1.15399">
        <ele>214.12</ele>
        <time>2018-04-27T07:25:22.000Z</time>
      </trkpt>
      <trkpt lat="44.20485" lon="1.15393">
        <ele>212.16</ele>
        <time>2018-04-27T07:25:32.000Z</time>
      </trkpt>
      <trkpt lat="44.20478" lon="1.15387">
        <ele>210.67</ele>
        <time>2018-04-27T07:25:42.000Z</time>
      </trkpt>
      <trkpt lat="44.20469" lon="1.1538">
        <ele>208.83</ele>
        <time>2018-04-27T07:25:52.000Z</time>
      </trkpt>
      <trkpt lat="44.2046" lon="1.15374">
        <ele>206.96</ele>
        <time>2018-04-27T07:26:02.000Z</time>
      </trkpt>
      <trkpt lat="44.20451" lon="1.1537">
        <ele>206.19</ele>
        <time>2018-04-27T07:26:12.000Z</time>
      </trkpt>
      <trkpt lat="44.20441" lon="1.15363">
        <ele>205.44</ele>
        <time>2018-04-27T07:26:22.000Z</time>
      </trkpt>
      <trkpt lat="44.20441" lon="1.15348">
        <ele>204.41</ele>
        <time>2018-04-27T07:26:32.000Z</time>
      </trkpt>
      <trkpt lat="44.20446" lon="1.15335">
        <ele>203.47</ele>
        <time>2018-04-27T07:26:42.000Z</time>
      </trkpt>
      <trkpt lat="44.20453" lon="1.15321">
        <ele>202.5</ele>
        <time>2018-04-27T07:26:52.000Z</time>
      </trkpt>
      <trkpt lat="44.20458" lon="1.15309">
        <ele>201.92</ele>
        <time>2018-04-27T07:27:02.000Z</time>
      </trkpt>
      <trkpt lat="44.20463" lon="1.15296">
        <ele>201.33</ele>
        <time>2018-04-27T07:27:12.000Z</time>
      </trkpt>
      <trkpt lat="44.20469" lon="1.15283">
        <ele>200.84</ele>
        <time>2018-04-27T07:27:22.000Z</time>
      </trkpt>
      <trkpt lat="44.20474" lon="1.15269">
        <ele>200.91</ele>
        <time>2018-04-27T07:27:32.000Z</time>
      </trkpt>
      <trkpt lat="44.20475" lon="1.15255">
        <ele>200.32</ele>
        <time>2018-04-27T07:27:42.000Z</time>
      </trkpt>
      <trkpt lat="44.20467" lon="1.15247">
        <ele>198.41</ele>
        <time>2018-04-27T07:27:52.000Z</time>
      </trkpt>
      <trkpt lat="44.20457" lon="1.15239">
        <ele>197.39</ele>
        <time>2018-04-27T07:28:02.000Z</time>
      </trkpt>
      <trkpt lat="44.20448" lon="1.1523">
        <ele>195.86</ele>
        <time>2018-04-27T07:28:12.000Z</time>
      </trkpt>
      <trkpt lat="44.20437" lon="1.15221">
        <ele>194.47</ele>
        <time>2018-04-27T07:28:22.000Z</time>
      </trkpt>
      <trkpt lat="44.20427" lon="1.15212">
        <ele>193.56</ele>
        <time>2018-04-27T07:28:32.000Z</time>
      </trkpt>
      <trkpt lat="44.20417" lon="1.15204">
        <ele>192.13</ele>
        <time>2018-04-27T07:28:42.000Z</time>
      </trkpt>
      <trkpt lat="44.20407" lon="1.15198">
        <ele>191.11</ele>
        <time>2018-04-27T07:28:52.000Z</time>
      </trkpt>
      <trkpt lat="44.20398" lon="1.15191">
        <ele>190.35</ele>
        <time>2018-04-27T07:29:02.000Z</time>
      </trkpt>
      <trkpt lat="44.20387" lon="1.15183">
        <ele>190.31</ele>
        <time>2018-04-27T07:29:12.000Z</time>
      </trkpt>
      <trkpt lat="44.20376" lon="1.15172">
        <ele>189.39</ele>
        <time>2018-04-27T07:29:22.000Z</time>
      </trkpt>
      <trkpt lat="44.20366" lon="1.15165">
        <ele>188.14</ele>
        <time>2018-04-27T07:29:32.000Z</time>
      </trkpt>
      <trkpt lat="44.20355" lon="1.15157">
        <ele>187.58</ele>
        <time>2018-04-27T07:29:42.000Z</time>
      </trkpt>
      <trkpt lat="44.20346" lon="1.15147">
        <ele>186.85</ele>
        <time>2018-04-27T07:29:52.000Z</time>
      </trkpt>
      <trkpt lat="44.20336" lon="1.15141">
        <ele>185.28</ele>
        <time>2018-04-27T07:30:02.000Z</time>
      </trkpt>
      <trkpt lat="44.20325" lon="1.15149">
        <ele>184.99</ele>
        <time>2018-04-27T07:30:12.000Z</time>
      </trkpt>
      <trkpt lat="44.20316" lon="1.1516">
        <ele>186.25</ele>
        <time>2018-04-27T07:30:22.000Z</time>
      </trkpt>
      <trkpt lat="44.20308" lon="1.15172">
        <ele>187.06</ele>
        <time>2018-04-27T07:30:32.000Z</time>
      </trkpt>
      <trkpt lat="44.20301" lon="1.15184">
        <ele>187.97</ele>
        <time>2018-04-27T07:30:42.000Z</time>
      </trkpt>
      <trkpt lat="44.20294" lon="1.15196">
        <ele>188.19</ele>
        <time>2018-04-27T07:30:52.000Z</time>
      </trkpt>
      <trkpt lat="44.20287" lon="1.15208">
        <ele>188.53</ele>
        <time>2018-04-27T07:31:02.000Z</time>
      </trkpt>
      <trkpt lat="44.2028" lon="1.1522">
        <ele>188.87</ele>
        <time>2018-04-27T07:31:12.000Z</time>
      </trkpt>
      <trkpt lat="44.20274" lon="1.15234">
        <ele>189.92</ele>
        <time>2018-04-27T07:31:22.000Z</time>
      </trkpt>
      <trkpt lat="44.20267" lon="1.15246">
        <ele>189.81</ele>
        <time>2018-04-27T07:31:32.000Z</time>
      </trkpt>
      <trkpt lat="44.20259" lon="1.15258">
        <ele>190.17</ele>
        <time>2018-04-27T07:31:42.000Z</time>
      </trkpt>
      <trkpt lat="44.20252" lon="1.15271">
        <ele>189.52</ele>
        <time>2018-04-27T07:31:52.000Z</time>
      </trkpt>
      <trkpt lat="44.20245" lon="1.15282">
        <ele>189.2</ele>
        <time>2018-04-27T07:32:02.000Z</time>
      </trkpt>
      <trkpt lat="44.20237" lon="1.15294">
        <ele>188.77</ele>
        <time>2018-04-27T07:32:12.000Z</time>
      </trkpt>
      <trkpt lat="44.20229" lon="1.15305">
        <ele>188.72</ele>
        <time>2018-04-27T07:32:22.000Z</time>
      </trkpt>
      <trkpt lat="44.20219" lon="1.15318">
        <ele>187.92</ele>
        <time>2018-04-27T07:32:32.000Z</time>
      </trkpt>
      <trkpt lat="44.2021" lon="1.1533">
        <ele>186.98</ele>
        <time>2018-04-27T07:32:42.000Z</time>
      </trkpt>
      <trkpt lat="44.202" lon="1.15341">
        <ele>186.59</ele>
        <time>2018-04-27T07:32:52.000Z</time>
      </trkpt>
      <trkpt lat="44.20191" lon="1.15353">
        <ele>185.64</ele>
        <time>2018-04-27T07:33:02.000Z</time>
      </trkpt>
      <trkpt lat="44.20183" lon="1.15364">
        <ele>185.05</ele>
        <time>2018-04-27T07:33:12.000Z</time>
      </trkpt>
      <trkpt lat="44.20174" lon="1.15374">
        <ele>185.39</ele>
        <time>2018-04-27T07:33:22.000Z</time>
      </trkpt>
      <trkpt lat="44.20164" lon="1.15382">
        <ele>186.04</ele>
        <time>2018-04-27T07:33:32.000Z</time>
      </trkpt>
      <trkpt lat="44.20154" lon="1.15391">
        <ele>186.26</ele>
        <time>2018-04-27T07:33:42.000Z</time>
      </trkpt>
      <trkpt lat="44.20145" lon="1.154">
        <ele>186.74</ele>
        <time>2018-04-27T07:33:52.000Z</time>
      </trkpt>
      <trkpt lat="44.20136" lon="1.15409">
        <ele>187.19</ele>
        <time>2018-04-27T07:34:02.000Z</time>
      </trkpt>
      <trkpt lat="44.20127" lon="1.15417">
        <ele>187.78</ele>
        <time>2018-04-27T07:34:12.000Z</time>
      </trkpt>
      <trkpt lat="44.20118" lon="1.15426">
        <ele>188.48</ele>
        <time>2018-04-27T07:34:22.000Z</time>
      </trkpt>
      <trkpt lat="44.20109" lon="1.15436">
        <ele>189.12</ele>
        <time>2018-04-27T07:34:32.000Z</time>
      </trkpt>
      <trkpt lat="44.201" lon="1.15448">
        <ele>189.62</ele>
        <time>2018-04-27T07:34:42.000Z</time>
      </trkpt>
      <trkpt lat="44.20092" lon="1.15459">
        <ele>190</ele>
        <time>2018-04-27T07:34:52.000Z</time>
      </trkpt>
      <trkpt lat="44.20085" lon="1.15471">
        <ele>189.86</ele>
        <time>2018-04-27T07:35:02.000Z</time>
      </trkpt>
      <trkpt lat="44.20079" lon="1.15486">
        <ele>190.81</ele>
        <time>2018-04-27T07:35:12.000Z</time>
      </trkpt>
      <trkpt lat="44.20074" lon="1.15499">
        <ele>191.43</ele>
        <time>2018-04-27T07:35:22.000Z</time>
      </trkpt>
      <trkpt lat="44.20068" lon="1.15511">
        <ele>191.8</ele>
        <time>2018-04-27T07:35:32.000Z</time>
      </trkpt>
      <trkpt lat="44.2006" lon="1.15524">
        <ele>192.12</ele>
        <time>2018-04-27T07:35:42.000Z</time>
      </trkpt>
      <trkpt lat="44.20055" lon="1.15537">
        <ele>192.66</ele>
        <time>2018-04-27T07:35:52.000Z</time>
      </trkpt>
      <trkpt lat="44.20049" lon="1.15552">
        <ele>193.13</ele>
        <time>2018-04-27T07:36:02.000Z</time>
      </trkpt>
      <trkpt lat="44.20044" lon="1.15564">
        <ele>193.34</ele>
        <time>2018-04-27T07:36:12.000Z</time>
      </trkpt>
      <trkpt lat="44.20038" lon="1.15577">
        <ele>192.8</ele>
        <time>2018-04-27T07:36:22.000Z</time>
      </trkpt>
      <trkpt lat="44.20031" lon="1.15591">
        <ele>192.09</ele>
        <time>2018-04-27T07:36:32.000Z</time>
      </trkpt>
      <trkpt lat="44.20024" lon="1.15604">
        <ele>191.7</ele>
        <time>2018-04-27T07:36:42.000Z</time>
      </trkpt>
      <trkpt lat="44.20016" lon="1.15618">
        <ele>191.05</ele>
        <time>2018-04-27T07:36:52.000Z</time>
      </trkpt>
      <trkpt lat="44.20009" lon="1.15634">
        <ele>190.92</ele>
        <time>2018-04-27T07:37:02.000Z</time>
      </trkpt>
      <trkpt lat="44.20003" lon="1.15649">
        <ele>191.1</ele>
        <time>2018-04-27T07:37:12.000Z</time>
      </trkpt>
      <trkpt lat="44.19999" lon="1.15662">
        <ele>191.33</ele>
        <time>2018-04-27T07:37:22.000Z</time>
      </trkpt>
      <trkpt lat="44.19994" lon="1.15677">
        <ele>190.89</ele>
        <time>2018-04-27T07:37:32.000Z</time>
      </trkpt>
      <trkpt lat="44.19988" lon="1.15691">
        <ele>190.86</ele>
        <time>2018-04-27T07:37:42.000Z</time>
      </trkpt>
      <trkpt lat="44.19982" lon="1.15705">
        <ele>190.99</ele>
        <time>2018-04-27T07:37:52.000Z</time>
      </trkpt>
      <trkpt lat="44.19975" lon="1.1572">
        <ele>190.97</ele>
        <time>2018-04-27T07:38:02.000Z</time>
      </trkpt>
      <trkpt lat="44.19968" lon="1.15733">
        <ele>190.61</ele>
        <time>2018-04-27T07:38:12.000Z</time>
      </trkpt>
      <trkpt lat="44.19963" lon="1.15744">
        <ele>190.03</ele>
        <time>2018-04-27T07:38:22.000Z</time>
      </trkpt>
      <trkpt lat="44.19955" lon="1.1576">
        <ele>189.87</ele>
        <time>2018-04-27T07:38:32.000Z</time>
      </trkpt>
      <trkpt lat="44.19947" lon="1.15772">
        <ele>189.56</ele>
        <time>2018-04-27T07:38:42.000Z</time>
      </trkpt>
      <trkpt lat="44.1994" lon="1.15783">
        <ele>188.72</ele>
        <time>2018-04-27T07:38:52.000Z</time>
      </trkpt>
      <trkpt lat="44.1993" lon="1.15795">
        <ele>188.53</ele>
        <time>2018-04-27T07:39:02.000Z</time>
      </trkpt>
      <trkpt lat="44.19919" lon="1.15806">
        <ele>188.44</ele>
        <time>2018-04-27T07:39:12.000Z</time>
      </trkpt>
      <trkpt lat="44.19909" lon="1.15814">
        <ele>188.07</ele>
        <time>2018-04-27T07:39:22.000Z</time>
      </trkpt>
      <trkpt lat="44.19899" lon="1.1582">
        <ele>188.16</ele>
        <time>2018-04-27T07:39:32.000Z</time>
      </trkpt>
      <trkpt lat="44.19893" lon="1.15816">
        <ele>187.63</ele>
        <time>2018-04-27T07:39:42.000Z</time>
      </trkpt>
      <trkpt lat="44.19889" lon="1.15805">
        <ele>187.57</ele>
        <time>2018-04-27T07:39:52.000Z</time>
      </trkpt>
      <trkpt lat="44.19881" lon="1.15794">
        <ele>188.08</ele>
        <time>2018-04-27T07:40:02.000Z</time>
      </trkpt>
      <trkpt lat="44.19872" lon="1.15784">
        <ele>188.55</ele>
        <time>2018-04-27T07:40:12.000Z</time>
      </trkpt>
      <trkpt lat="44.19864" lon="1.15775">
        <ele>189.68</ele>
        <time>2018-04-27T07:40:22.000Z</time>
      </trkpt>
      <trkpt lat="44.19855" lon="1.15768">
        <ele>191.68</ele>
        <time>2018-04-27T07:40:32.000Z</time>
      </trkpt>
      <trkpt lat="44.19848" lon="1.15764">
        <ele>193.11</ele>
        <time>2018-04-27T07:40:42.000Z</time>
      </trkpt>
      <trkpt lat="44.19842" lon="1.15759">
        <ele>195.2</ele>
        <time>2018-04-27T07:40:52.000Z</time>
      </trkpt>
      <trkpt lat="44.19834" lon="1.15755">
        <ele>196.98</ele>
        <time>2018-04-27T07:41:02.000Z</time>
      </trkpt>
      <trkpt lat="44.19827" lon="1.15752">
        <ele>198.37</ele>
        <time>2018-04-27T07:41:12.000Z</time>
      </trkpt>
      <trkpt lat="44.19819" lon="1.15747">
        <ele>199.82</ele>
        <time>2018-04-27T07:41:22.000Z</time>
      </trkpt>
      <trkpt lat="44.19812" lon="1.15744">
        <ele>201.37</ele>
        <time>2018-04-27T07:41:32.000Z</time>
      </trkpt>
      <trkpt lat="44.19803" lon="1.15745">
        <ele>202.54</ele>
        <time>2018-04-27T07:41:42.000Z</time>
      </trkpt>
      <trkpt lat="44.19794" lon="1.15749">
        <ele>203.9</ele>
        <time>2018-04-27T07:41:52.000Z</time>
      </trkpt>
      <trkpt lat="44.19785" lon="1.15755">
        <ele>204.73</ele>
        <time>2018-04-27T07:42:02.000Z</time>
      </trkpt>
      <trkpt lat="44.19777" lon="1.15762">
        <ele>205.6</ele>
        <time>2018-04-27T07:42:12.000Z</time>
      </trkpt>
      <trkpt lat="44.19769" lon="1.15766">
        <ele>206.81</ele>
        <time>2018-04-27T07:42:22.000Z</time>
      </trkpt>
      <trkpt lat="44.19759" lon="1.1577">
        <ele>208.22</ele>
        <time>2018-04-27T07:42:32.000Z</time>
      </trkpt>
      <trkpt lat="44.1975" lon="1.15772">
        <ele>209.13</ele>
        <time>2018-04-27T07:42:42.000Z</time>
      </trkpt>
      <trkpt lat="44.1974" lon="1.15775">
        <ele>209.71</ele>
        <time>2018-04-27T07:42:52.000Z</time>
      </trkpt>
      <trkpt lat="44.1973" lon="1.15778">
        <ele>210.86</ele>
        <time>2018-04-27T07:43:02.000Z</time>
      </trkpt>
      <trkpt lat="44.19721" lon="1.15778">
        <ele>211.56</ele>
        <time>2018-04-27T07:43:12.000Z</time>
      </trkpt>
      <trkpt lat="44.19713" lon="1.1578">
        <ele>212.55</ele>
        <time>2018-04-27T07:43:22.000Z</time>
      </trkpt>
      <trkpt lat="44.19703" lon="1.1578">
        <ele>213.58</ele>
        <time>2018-04-27T07:43:32.000Z</time>
      </trkpt>
      <trkpt lat="44.19693" lon="1.15777">
        <ele>214.07</ele>
        <time>2018-04-27T07:43:42.000Z</time>
      </trkpt>
      <trkpt lat="44.19683" lon="1.15778">
        <ele>215.21</ele>
        <time>2018-04-27T07:43:52.000Z</time>
      </trkpt>
      <trkpt lat="44.19674" lon="1.15777">
        <ele>215.71</ele>
        <time>2018-04-27T07:44:02.000Z</time>
      </trkpt>
      <trkpt lat="44.19663" lon="1.15777">
        <ele>216.55</ele>
        <time>2018-04-27T07:44:12.000Z</time>
      </trkpt>
      <trkpt lat="44.19653" lon="1.15777">
        <ele>217.2</ele>
        <time>2018-04-27T07:44:22.000Z</time>
      </trkpt>
      <trkpt lat="44.19643" lon="1.15776">
        <ele>218.42</ele>
        <time>2018-04-27T07:44:32.000Z</time>
      </trkpt>
      <trkpt lat="44.19633" lon="1.15777">
        <ele>219.38</ele>
        <time>2018-04-27T07:44:42.000Z</time>
      </trkpt>
      <trkpt lat="44.19624" lon="1.15778">
        <ele>220.54</ele>
        <time>2018-04-27T07:44:52.000Z</time>
      </trkpt>
      <trkpt lat="44.19614" lon="1.15777">
        <ele>221.75</ele>
        <time>2018-04-27T07:45:02.000Z</time>
      </trkpt>
      <trkpt lat="44.19603" lon="1.15777">
        <ele>222.3</ele>
        <time>2018-04-27T07:45:12.000Z</time>
      </trkpt>
      <trkpt lat="44.19593" lon="1.15781">
        <ele>223.39</ele>
        <time>2018-04-27T07:45:22.000Z</time>
      </trkpt>
      <trkpt lat="44.19584" lon="1.15787">
        <ele>224.58</ele>
        <time>2018-04-27T07:45:32.000Z</time>
      </trkpt>
      <trkpt lat="44.19577" lon="1.15793">
        <ele>224.91</ele>
        <time>2018-04-27T07:45:42.000Z</time>
      </trkpt>
      <trkpt lat="44.19568" lon="1.15798">
        <ele>226.02</ele>
        <time>2018-04-27T07:45:52.000Z</time>
      </trkpt>
      <trkpt lat="44.19559" lon="1.15804">
        <ele>226.36</ele>
        <time>2018-04-27T07:46:02.000Z</time>
      </trkpt>
      <trkpt lat="44.19549" lon="1.15808">
        <ele>228.29</ele>
        <time>2018-04-27T07:46:12.000Z</time>
      </trkpt>
      <trkpt lat="44.19538" lon="1.15811">
        <ele>229.29</ele>
        <time>2018-04-27T07:46:22.000Z</time>
      </trkpt>
      <trkpt lat="44.19528" lon="1.15812">
        <ele>229.99</ele>
        <time>2018-04-27T07:46:32.000Z</time>
      </trkpt>
      <trkpt lat="44.19518" lon="1.15813">
        <ele>231.09</ele>
        <time>2018-04-27T07:46:42.000Z</time>
      </trkpt>
      <trkpt lat="44.19508" lon="1.15812">
        <ele>232.05</ele>
        <time>2018-04-27T07:46:52.000Z</time>
      </trkpt>
      <trkpt lat="44.19498" lon="1.1581">
        <ele>233.16</ele>
        <time>2018-04-27T07:47:02.000Z</time>
      </trkpt>
      <trkpt lat="44.19488" lon="1.15805">
        <ele>233.72</ele>
        <time>2018-04-27T07:47:12.000Z</time>
      </trkpt>
      <trkpt lat="44.1948" lon="1.15798">
        <ele>234.39</ele>
        <time>2018-04-27T07:47:22.000Z</time>
      </trkpt>
      <trkpt lat="44.19471" lon="1.15795">
        <ele>234.76</ele>
        <time>2018-04-27T07:47:32.000Z</time>
      </trkpt>
      <trkpt lat="44.19459" lon="1.15793">
        <ele>234.9</ele>
        <time>2018-04-27T07:47:42.000Z</time>
      </trkpt>
      <trkpt lat="44.19447" lon="1.15792">
        <ele>234.88</ele>
        <time>2018-04-27T07:47:52.000Z</time>
      </trkpt>
      <trkpt lat="44.19435" lon="1.15792">
        <ele>234.83</ele>
        <time>2018-04-27T07:48:02.000Z</time>
      </trkpt>
      <trkpt lat="44.19422" lon="1.15795">
        <ele>235.71</ele>
        <time>2018-04-27T07:48:12.000Z</time>
      </trkpt>
      <trkpt lat="44.19409" lon="1.15796">
        <ele>235.46</ele>
        <time>2018-04-27T07:48:22.000Z</time>
      </trkpt>
      <trkpt lat="44.19397" lon="1.15797">
        <ele>235.64</ele>
        <time>2018-04-27T07:48:32.000Z</time>
      </trkpt>
      <trkpt lat="44.19386" lon="1.15802">
        <ele>236.24</ele>
        <time>2018-04-27T07:48:42.000Z</time>
      </trkpt>
      <trkpt lat="44.19374" lon="1.15808">
        <ele>236.05</ele>
        <time>2018-04-27T07:48:52.000Z</time>
      </trkpt>
      <trkpt lat="44.19363" lon="1.15814">
        <ele>235.96</ele>
        <time>2018-04-27T07:49:02.000Z</time>
      </trkpt>
      <trkpt lat="44.1935" lon="1.15815">
        <ele>236.01</ele>
        <time>2018-04-27T07:49:12.000Z</time>
      </trkpt>
      <trkpt lat="44.19337" lon="1.1582">
        <ele>236.9</ele>
        <time>2018-04-27T07:49:22.000Z</time>
      </trkpt>
      <trkpt lat="44.19326" lon="1.1582">
        <ele>236.05</ele>
        <time>2018-04-27T07:49:32.000Z</time>
      </trkpt>
      <trkpt lat="44.19315" lon="1.15823">
        <ele>235.87</ele>
        <time>2018-04-27T07:49:42.000Z</time>
      </trkpt>
      <trkpt lat="44.19303" lon="1.15824">
        <ele>235.47</ele>
        <time>2018-04-27T07:49:52.000Z</time>
      </trkpt>
      <trkpt lat="44.19291" lon="1.15823">
        <ele>234.8</ele>
        <time>2018-04-27T07:50:02.000Z</time>
      </trkpt>
      <trkpt lat="44.19279" lon="1.15822">
        <ele>234.18</ele>
        <time>2018-04-27T07:50:12.000Z</time>
      </trkpt>
      <trkpt lat="44.19267" lon="1.15821">
        <ele>233.73</ele>
        <time>2018-04-27T07:50:22.000Z</time>
      </trkpt>
      <trkpt lat="44.19256" lon="1.15819">
        <ele>233.63</ele>
        <time>2018-04-27T07:50:32.000Z</time>
      </trkpt>
      <trkpt lat="44.19243" lon="1.15818">
        <ele>233.89</ele>
        <time>2018-04-27T07:50:42.000Z</time>
      </trkpt>
      <trkpt lat="44.19231" lon="1.15814">
        <ele>233.59</ele>
        <time>2018-04-27T07:50:52.000Z</time>
      </trkpt>
      <trkpt lat="44.19222" lon="1.15806">
        <ele>233.8</ele>
        <time>2018-04-27T07:51:02.000Z</time>
      </trkpt>
      <trkpt lat="44.19214" lon="1.15797">
        <ele>232.88</ele>
        <time>2018-04-27T07:51:12.000Z</time>
      </trkpt>
      <trkpt lat="44.19207" lon="1.15784">
        <ele>232.61</ele>
        <time>2018-04-27T07:51:22.000Z</time>
      </trkpt>
      <trkpt lat="44.19202" lon="1.15769">
        <ele>232.96</ele>
        <time>2018-04-27T07:51:32.000Z</time>
      </trkpt>
      <trkpt lat="44.19196" lon="1.15756">
        <ele>233.78</ele>
        <time>2018-04-27T07:51:42.000Z</time>
      </trkpt>
      <trkpt lat="44.19191" lon="1.15741">
        <ele>234.23</ele>
        <time>2018-04-27T07:51:52.000Z</time>
      </trkpt>
      <trkpt lat="44.19187" lon="1.15726">
        <ele>234.29</ele>
        <time>2018-04-27T07:52:02.000Z</time>
      </trkpt>
      <trkpt lat="44.19186" lon="1.1571">
        <ele>235.76</ele>
        <time>2018-04-27T07:52:12.000Z</time>
      </trkpt>
      <trkpt lat="44.19188" lon="1.15695">
        <ele>236.31</ele>
        <time>2018-04-27T07:52:22.000Z</time>
      </trkpt>
      <trkpt lat="44.1919" lon="1.15681">
        <ele>237.65</ele>
        <time>2018-04-27T07:52:32.000Z</time>
      </trkpt>
      <trkpt lat="44.19193" lon="1.15667">
        <ele>238.44</ele>
        <time>2018-04-27T07:52:42.000Z</time>
      </trkpt>
      <trkpt lat="44.19195" lon="1.15653">
        <ele>239.26</ele>
        <time>2018-04-27T07:52:52.000Z</time>
      </trkpt>
      <trkpt lat="44.19199" lon="1.15639">
        <ele>240.39</ele>
        <time>2018-04-27T07:53:02.000Z</time>
      </trkpt>
      <trkpt lat="44.19203" lon="1.15625">
        <ele>241.51</ele>
        <time>2018-04-27T07:53:12.000Z</time>
      </trkpt>
      <trkpt lat="44.19206" lon="1.15611">
        <ele>242.67</ele>
        <time>2018-04-27T07:53:22.000Z</time>
      </trkpt>
      <trkpt lat="44.1921" lon="1.15596">
        <ele>243.71</ele>
        <time>2018-04-27T07:53:32.000Z</time>
      </trkpt>
      <trkpt lat="44.19213" lon="1.15582">
        <ele>244.83</ele>
        <time>2018-04-27T07:53:42.000Z</time>
      </trkpt>
      <trkpt lat="44.19215" lon="1.15568">
        <ele>246.01</ele>
        <time>2018-04-27T07:53:52.000Z</time>
      </trkpt>
      <trkpt lat="44.19214" lon="1.15555">
        <ele>247.36</ele>
        <time>2018-04-27T07:54:02.000Z</time>
      </trkpt>
      <trkpt lat="44.1921" lon="1.15541">
        <ele>248.92</ele>
        <time>2018-04-27T07:54:12.000Z</time>
      </trkpt>
      <trkpt lat="44.19206" lon="1.1553">
        <ele>250.48</ele>
        <time>2018-04-27T07:54:22.000Z</time>
      </trkpt>
      <trkpt lat="44.19199" lon="1.15519">
        <ele>252.31</ele>
        <time>2018-04-27T07:54:32.000Z</time>
      </trkpt>
      <trkpt lat="44.1919" lon="1.1551">
        <ele>253.54</ele>
        <time>2018-04-27T07:54:42.000Z</time>
      </trkpt>
      <trkpt lat="44.1918" lon="1.15507">
        <ele>253.7</ele>
        <time>2018-04-27T07:54:52.000Z</time>
      </trkpt>
      <trkpt lat="44.19171" lon="1.15516">
        <ele>253.75</ele>
        <time>2018-04-27T07:55:02.000Z</time>
      </trkpt>
      <trkpt lat="44.19163" lon="1.15525">
        <ele>254.4</ele>
        <time>2018-04-27T07:55:12.000Z</time>
      </trkpt>
      <trkpt lat="44.19155" lon="1.15536">
        <ele>254.85</ele>
        <time>2018-04-27T07:55:22.000Z</time>
      </trkpt>
      <trkpt lat="44.19148" lon="1.15546">
        <ele>255.1</ele>
        <time>2018-04-27T07:55:32.000Z</time>
      </trkpt>
      <trkpt lat="44.19142" lon="1.15552">
        <ele>255.55</ele>
        <time>2018-04-27T07:55:42.000Z</time>
      </trkpt>
      <trkpt lat="44.19132" lon="1.15563">
        <ele>256.13</ele>
        <time>2018-04-27T07:55:52.000Z</time>
      </trkpt>
      <trkpt lat="44.19124" lon="1.15574">
        <ele>256.89</ele>
        <time>2018-04-27T07:56:02.000Z</time>
      </trkpt>
      <trkpt lat="44.19115" lon="1.15585">
        <ele>257.33</ele>
        <time>2018-04-27T07:56:12.000Z</time>
      </trkpt>
      <trkpt lat="44.19106" lon="1.15597">
        <ele>257.44</ele>
        <time>2018-04-27T07:56:22.000Z</time>
      </trkpt>
      <trkpt lat="44.19098" lon="1.1561">
        <ele>257.58</ele>
        <time>2018-04-27T07:56:32.000Z</time>
      </trkpt>
      <trkpt lat="44.1909" lon="1.15622">
        <ele>257.91</ele>
        <time>2018-04-27T07:56:42.000Z</time>
      </trkpt>
      <trkpt lat="44.19082" lon="1.15633">
        <ele>258.53</ele>
        <time>2018-04-27T07:56:52.000Z</time>
      </trkpt>
      <trkpt lat="44.19075" lon="1.15645">
        <ele>258.67</ele>
        <time>2018-04-27T07:57:02.000Z</time>
      </trkpt>
      <trkpt lat="44.19066" lon="1.15658">
        <ele>259.17</ele>
        <time>2018-04-27T07:57:12.000Z</time>
      </trkpt>
      <trkpt lat="44.19055" lon="1.15666">
        <ele>259.14</ele>
        <time>2018-04-27T07:57:22.000Z</time>
      </trkpt>
      <trkpt lat="44.19051" lon="1.15669">
        <ele>258.35</ele>
        <time>2018-04-27T07:57:32.000Z</time>
      </trkpt>
      <trkpt lat="44.19042" lon="1.15677">
        <ele>258.49</ele>
        <time>2018-04-27T07:57:42.000Z</time>
      </trkpt>
      <trkpt lat="44.19033" lon="1.1569">
        <ele>259.42</ele>
        <time>2018-04-27T07:57:52.000Z</time>
      </trkpt>
      <trkpt lat="44.19024" lon="1.15702">
        <ele>259.83</ele>
        <time>2018-04-27T07:58:02.000Z</time>
      </trkpt>
      <trkpt lat="44.19015" lon="1.15712">
        <ele>259.88</ele>
        <time>2018-04-27T07:58:12.000Z</time>
      </trkpt>
      <trkpt lat="44.19006" lon="1.15721">
        <ele>260.15</ele>
        <time>2018-04-27T07:58:22.000Z</time>
      </trkpt>
      <trkpt lat="44.18997" lon="1.15732">
        <ele>260.12</ele>
        <time>2018-04-27T07:58:32.000Z</time>
      </trkpt>
      <trkpt lat="44.18988" lon="1.15743">
        <ele>260.38</ele>
        <time>2018-04-27T07:58:42.000Z</time>
      </trkpt>
      <trkpt lat="44.18978" lon="1.15753">
        <ele>260.56</ele>
        <time>2018-04-27T07:58:52.000Z</time>
      </trkpt>
      <trkpt lat="44.18969" lon="1.15762">
        <ele>260.12</ele>
        <time>2018-04-27T07:59:02.000Z</time>
      </trkpt>
      <trkpt lat="44.18963" lon="1.1576">
        <ele>259.74</ele>
        <time>2018-04-27T07:59:12.000Z</time>
      </trkpt>
      <trkpt lat="44.18959" lon="1.1575">
        <ele>258.32</ele>
        <time>2018-04-27T07:59:22.000Z</time>
      </trkpt>
      <trkpt lat="44.18954" lon="1.15741">
        <ele>256.75</ele>
        <time>2018-04-27T07:59:32.000Z</time>
      </trkpt>
      <trkpt lat="44.18948" lon="1.15732">
        <ele>255.16</ele>
        <time>2018-04-27T07:59:42.000Z</time>
      </trkpt>
      <trkpt lat="44.18941" lon="1.15723">
        <ele>253.7</ele>
        <time>2018-04-27T07:59:52.000Z</time>
      </trkpt>
      <trkpt lat="44.18937" lon="1.15711">
        <ele>252.21</ele>
        <time>2018-04-27T08:00:02.000Z</time>
      </trkpt>
      <trkpt lat="44.1893" lon="1.15702">
        <ele>250.93</ele>
        <time>2018-04-27T08:00:12.000Z</time>
      </trkpt>
      <trkpt lat="44.18923" lon="1.15691">
        <ele>249.23</ele>
        <time>2018-04-27T08:00:22.000Z</time>
      </trkpt>
      <trkpt lat="44.18915" lon="1.15679">
        <ele>248.11</ele>
        <time>2018-04-27T08:00:32.000Z</time>
      </trkpt>
      <trkpt lat="44.18908" lon="1.15671">
        <ele>247.14</ele>
        <time>2018-04-27T08:00:42.000Z</time>
      </trkpt>
      <trkpt lat="44.18908" lon="1.15663">
        <ele>245.12</ele>
        <time>2018-04-27T08:00:52.000Z</time>
      </trkpt>
      <trkpt lat="44.1891" lon="1.15652">
        <ele>243.79</ele>
        <time>2018-04-27T08:01:02.000Z</time>
      </trkpt>
      <trkpt lat="44.18916" lon="1.1564">
        <ele>243.18</ele>
        <time>2018-04-27T08:01:12.000Z</time>
      </trkpt>
      <trkpt lat="44.18919" lon="1.15628">
        <ele>243.23</ele>
        <time>2018-04-27T08:01:22.000Z</time>
      </trkpt>
      <trkpt lat="44.1891" lon="1.15627">
        <ele>242.82</ele>
        <time>2018-04-27T08:01:32.000Z</time>
      </trkpt>
      <trkpt lat="44.18899" lon="1.15623">
        <ele>241.87</ele>
        <time>2018-04-27T08:01:42.000Z</time>
      </trkpt>
      <trkpt lat="44.18886" lon="1.15619">
        <ele>241.09</ele>
        <time>2018-04-27T08:01:52.000Z</time>
      </trkpt>
      <trkpt lat="44.18875" lon="1.15613">
        <ele>240.65</ele>
        <time>2018-04-27T08:02:02.000Z</time>
      </trkpt>
      <trkpt lat="44.18865" lon="1.15605">
        <ele>240.18</ele>
        <time>2018-04-27T08:02:12.000Z</time>
      </trkpt>
      <trkpt lat="44.18854" lon="1.15596">
        <ele>240.84</ele>
        <time>2018-04-27T08:02:22.000Z</time>
      </trkpt>
      <trkpt lat="44.18843" lon="1.1559">
        <ele>241.01</ele>
        <time>2018-04-27T08:02:32.000Z</time>
      </trkpt>
      <trkpt lat="44.18831" lon="1.15585">
        <ele>241.39</ele>
        <time>2018-04-27T08:02:42.000Z</time>
      </trkpt>
      <trkpt lat="44.1882" lon="1.1558">
        <ele>241.74</ele>
        <time>2018-04-27T08:02:52.000Z</time>
      </trkpt>
      <trkpt lat="44.18809" lon="1.15572">
        <ele>241.86</ele>
        <time>2018-04-27T08:03:02.000Z</time>
      </trkpt>
      <trkpt lat="44.188" lon="1.15562">
        <ele>242.34</ele>
        <time>2018-04-27T08:03:12.000Z</time>
      </trkpt>
      <trkpt lat="44.18789" lon="1.15557">
        <ele>242.83</ele>
        <time>2018-04-27T08:03:22.000Z</time>
      </trkpt>
      <trkpt lat="44.18779" lon="1.15554">
        <ele>243.54</ele>
        <time>2018-04-27T08:03:32.000Z</time>
      </trkpt>
      <trkpt lat="44.1877" lon="1.15547">
        <ele>243.89</ele>
        <time>2018-04-27T08:03:42.000Z</time>
      </trkpt>
      <trkpt lat="44.18757" lon="1.1554">
        <ele>244.87</ele>
        <time>2018-04-27T08:03:52.000Z</time>
      </trkpt>
      <trkpt lat="44.18746" lon="1.15541">
        <ele>245.41</ele>
        <time>2018-04-27T08:04:02.000Z</time>
      </trkpt>
      <trkpt lat="44.18739" lon="1.15548">
        <ele>245.66</ele>
        <time>2018-04-27T08:04:12.000Z</time>
      </trkpt>
      <trkpt lat="44.1873" lon="1.15554">
        <ele>245.89</ele>
        <time>2018-04-27T08:04:22.000Z</time>
      </trkpt>
      <trkpt lat="44.18722" lon="1.15548">
        <ele>246.03</ele>
        <time>2018-04-27T08:04:32.000Z</time>
      </trkpt>
      <trkpt lat="44.18715" lon="1.15533">
        <ele>245.83</ele>
        <time>2018-04-27T08:04:42.000Z</time>
      </trkpt>
      <trkpt lat="44.18708" lon="1.1552">
        <ele>246.36</ele>
        <time>2018-04-27T08:04:52.000Z</time>
      </trkpt>
      <trkpt lat="44.18698" lon="1.15507">
        <ele>247.3</ele>
        <time>2018-04-27T08:05:02.000Z</time>
      </trkpt>
      <trkpt lat="44.18687" lon="1.15498">
        <ele>247.73</ele>
        <time>2018-04-27T08:05:12.000Z</time>
      </trkpt>
      <trkpt lat="44.18676" lon="1.15491">
        <ele>248.48</ele>
        <time>2018-04-27T08:05:22.000Z</time>
      </trkpt>
      <trkpt lat="44.18665" lon="1.15486">
        <ele>249.11</ele>
        <time>2018-04-27T08:05:32.000Z</time>
      </trkpt>
      <trkpt lat="44.18653" lon="1.1548">
        <ele>249.87</ele>
        <time>2018-04-27T08:05:42.000Z</time>
      </trkpt>
      <trkpt lat="44.1864" lon="1.15476">
        <ele>250.62</ele>
        <time>2018-04-27T08:05:52.000Z</time>
      </trkpt>
      <trkpt lat="44.18629" lon="1.15473">
        <ele>251.08</ele>
        <time>2018-04-27T08:06:02.000Z</time>
      </trkpt>
      <trkpt lat="44.18616" lon="1.1547">
        <ele>251.29</ele>
        <time>2018-04-27T08:06:12.000Z</time>
      </trkpt>
      <trkpt lat="44.18605" lon="1.15469">
        <ele>251.53</ele>
        <time>2018-04-27T08:06:22.000Z</time>
      </trkpt>
      <trkpt lat="44.18594" lon="1.15467">
        <ele>251.54</ele>
        <time>2018-04-27T08:06:32.000Z</time>
      </trkpt>
      <trkpt lat="44.18582" lon="1.15467">
        <ele>251.6</ele>
        <time>2018-04-27T08:06:42.000Z</time>
      </trkpt>
      <trkpt lat="44.1857" lon="1.15471">
        <ele>251.24</ele>
        <time>2018-04-27T08:06:52.000Z</time>
      </trkpt>
      <trkpt lat="44.18562" lon="1.15476">
        <ele>251.51</ele>
        <time>2018-04-27T08:07:02.000Z</time>
      </trkpt>
      <trkpt lat="44.18549" lon="1.15479">
        <ele>251.78</ele>
        <time>2018-04-27T08:07:12.000Z</time>
      </trkpt>
      <trkpt lat="44.1854" lon="1.15484">
        <ele>251.82</ele>
        <time>2018-04-27T08:07:22.000Z</time>
      </trkpt>
      <trkpt lat="44.18533" lon="1.15481">
        <ele>251.7</ele>
        <time>2018-04-27T08:07:32.000Z</time>
      </trkpt>
      <trkpt lat="44.18528" lon="1.15481">
        <ele>251.65</ele>
        <time>2018-04-27T08:07:42.000Z</time>
      </trkpt>
      <trkpt lat="44.18529" lon="1.15479">
        <ele>251.8</ele>
        <time>2018-04-27T08:08:06.000Z</time>
      </trkpt>
      <trkpt lat="44.18527" lon="1.15479">
        <ele>251.44</ele>
        <time>2018-04-27T08:08:16.000Z</time>
      </trkpt>
      <trkpt lat="44.18525" lon="1.15477">
        <ele>251.6</ele>
        <time>2018-04-27T08:08:26.000Z</time>
      </trkpt>
      <trkpt lat="44.18521" lon="1.15475">
        <ele>251.1</ele>
        <time>2018-04-27T08:08:36.000Z</time>
      </trkpt>
      <trkpt lat="44.18521" lon="1.15476">
        <ele>251.54</ele>
        <time>2018-04-27T08:08:58.000Z</time>
      </trkpt>
      <trkpt lat="44.18524" lon="1.15478">
        <ele>251.11</ele>
        <time>2018-04-27T08:09:08.000Z</time>
      </trkpt>
      <trkpt lat="44.18523" lon="1.15478">
        <ele>251.54</ele>
        <time>2018-04-27T08:09:18.000Z</time>
      </trkpt>
      <trkpt lat="44.18521" lon="1.15477">
        <ele>250.98</ele>
        <time>2018-04-27T08:09:28.000Z</time>
      </trkpt>
      <trkpt lat="44.1852" lon="1.15477">
        <ele>251.39</ele>
        <time>2018-04-27T08:09:38.000Z</time>
      </trkpt>
      <trkpt lat="44.18521" lon="1.15479">
        <ele>251.56</ele>
        <time>2018-04-27T08:09:48.000Z</time>
      </trkpt>
      <trkpt lat="44.18521" lon="1.1548">
        <ele>251.3</ele>
        <time>2018-04-27T08:10:09.000Z</time>
      </trkpt>
      <trkpt lat="44.18522" lon="1.15479">
        <ele>251.34</ele>
        <time>2018-04-27T08:10:19.000Z</time>
      </trkpt>
      <trkpt lat="44.18523" lon="1.15478">
        <ele>251.44</ele>
        <time>2018-04-27T08:10:29.000Z</time>
      </trkpt>
      <trkpt lat="44.18523" lon="1.15474">
        <ele>251.15</ele>
        <time>2018-04-27T08:10:39.000Z</time>
      </trkpt>
      <trkpt lat="44.18522" lon="1.15473">
        <ele>251.09</ele>
        <time>2018-04-27T08:10:49.000Z</time>
      </trkpt>
      <trkpt lat="44.18524" lon="1.15474">
        <ele>250.98</ele>
        <time>2018-04-27T08:10:59.000Z</time>
      </trkpt>
      <trkpt lat="44.18524" lon="1.15476">
        <ele>250.84</ele>
        <time>2018-04-27T08:11:09.000Z</time>
      </trkpt>
      <trkpt lat="44.18525" lon="1.15477">
        <ele>250.57</ele>
        <time>2018-04-27T08:12:41.000Z</time>
      </trkpt>
      <trkpt lat="44.18527" lon="1.15479">
        <ele>251.03</ele>
        <time>2018-04-27T08:12:51.000Z</time>
      </trkpt>
      <trkpt lat="44.18527" lon="1.1548">
        <ele>250.98</ele>
        <time>2018-04-27T08:13:29.000Z</time>
      </trkpt>
      <trkpt lat="44.18528" lon="1.15482">
        <ele>251.01</ele>
        <time>2018-04-27T08:13:50.000Z</time>
      </trkpt>
      <trkpt lat="44.18528" lon="1.15483">
        <ele>250.95</ele>
        <time>2018-04-27T08:14:12.000Z</time>
      </trkpt>
      <trkpt lat="44.18529" lon="1.15482">
        <ele>251.22</ele>
        <time>2018-04-27T08:14:42.000Z</time>
      </trkpt>
      <trkpt lat="44.1853" lon="1.15481">
        <ele>250.86</ele>
        <time>2018-04-27T08:14:52.000Z</time>
      </trkpt>
      <trkpt lat="44.1853" lon="1.1548">
        <ele>250.69</ele>
        <time>2018-04-27T08:15:40.000Z</time>
      </trkpt>
      <trkpt lat="44.18531" lon="1.15481">
        <ele>251.06</ele>
        <time>2018-04-27T08:15:50.000Z</time>
      </trkpt>
      <trkpt lat="44.18538" lon="1.15487">
        <ele>250.54</ele>
        <time>2018-04-27T08:16:00.000Z</time>
      </trkpt>
      <trkpt lat="44.18547" lon="1.15483">
        <ele>251.21</ele>
        <time>2018-04-27T08:16:10.000Z</time>
      </trkpt>
      <trkpt lat="44.18553" lon="1.15474">
        <ele>251.07</ele>
        <time>2018-04-27T08:16:20.000Z</time>
      </trkpt>
      <trkpt lat="44.18556" lon="1.15465">
        <ele>250.09</ele>
        <time>2018-04-27T08:16:30.000Z</time>
      </trkpt>
      <trkpt lat="44.18549" lon="1.15458">
        <ele>248.62</ele>
        <time>2018-04-27T08:16:40.000Z</time>
      </trkpt>
      <trkpt lat="44.18538" lon="1.15452">
        <ele>247.62</ele>
        <time>2018-04-27T08:16:50.000Z</time>
      </trkpt>
      <trkpt lat="44.18531" lon="1.15448">
        <ele>247.34</ele>
        <time>2018-04-27T08:17:00.000Z</time>
      </trkpt>
      <trkpt lat="44.18528" lon="1.15448">
        <ele>246.83</ele>
        <time>2018-04-27T08:17:10.000Z</time>
      </trkpt>
      <trkpt lat="44.18518" lon="1.15445">
        <ele>246.38</ele>
        <time>2018-04-27T08:17:20.000Z</time>
      </trkpt>
      <trkpt lat="44.18507" lon="1.15437">
        <ele>245.28</ele>
        <time>2018-04-27T08:17:30.000Z</time>
      </trkpt>
      <trkpt lat="44.18497" lon="1.1543">
        <ele>244.16</ele>
        <time>2018-04-27T08:17:40.000Z</time>
      </trkpt>
      <trkpt lat="44.18485" lon="1.15423">
        <ele>243.41</ele>
        <time>2018-04-27T08:17:50.000Z</time>
      </trkpt>
      <trkpt lat="44.18475" lon="1.15418">
        <ele>243.43</ele>
        <time>2018-04-27T08:18:00.000Z</time>
      </trkpt>
      <trkpt lat="44.18464" lon="1.15415">
        <ele>243.16</ele>
        <time>2018-04-27T08:18:10.000Z</time>
      </trkpt>
      <trkpt lat="44.18452" lon="1.15409">
        <ele>243.04</ele>
        <time>2018-04-27T08:18:20.000Z</time>
      </trkpt>
      <trkpt lat="44.18441" lon="1.15402">
        <ele>242.39</ele>
        <time>2018-04-27T08:18:30.000Z</time>
      </trkpt>
      <trkpt lat="44.1843" lon="1.15395">
        <ele>242.06</ele>
        <time>2018-04-27T08:18:40.000Z</time>
      </trkpt>
      <trkpt lat="44.1842" lon="1.15387">
        <ele>241.95</ele>
        <time>2018-04-27T08:18:50.000Z</time>
      </trkpt>
      <trkpt lat="44.1841" lon="1.15376">
        <ele>242.11</ele>
        <time>2018-04-27T08:19:00.000Z</time>
      </trkpt>
      <trkpt lat="44.184" lon="1.15367">
        <ele>241.52</ele>
        <time>2018-04-27T08:19:10.000Z</time>
      </trkpt>
      <trkpt lat="44.1839" lon="1.15357">
        <ele>241.32</ele>
        <time>2018-04-27T08:19:20.000Z</time>
      </trkpt>
      <trkpt lat="44.18382" lon="1.15344">
        <ele>241.47</ele>
        <time>2018-04-27T08:19:30.000Z</time>
      </trkpt>
      <trkpt lat="44.18374" lon="1.15327">
        <ele>241.56</ele>
        <time>2018-04-27T08:19:40.000Z</time>
      </trkpt>
      <trkpt lat="44.18368" lon="1.15318">
        <ele>241.48</ele>
        <time>2018-04-27T08:19:50.000Z</time>
      </trkpt>
      <trkpt lat="44.18361" lon="1.15304">
        <ele>241.72</ele>
        <time>2018-04-27T08:20:00.000Z</time>
      </trkpt>
      <trkpt lat="44.18356" lon="1.15291">
        <ele>242.04</ele>
        <time>2018-04-27T08:20:10.000Z</time>
      </trkpt>
      <trkpt lat="44.18349" lon="1.15285">
        <ele>241.81</ele>
        <time>2018-04-27T08:20:20.000Z</time>
      </trkpt>
      <trkpt lat="44.18339" lon="1.15291">
        <ele>241.97</ele>
        <time>2018-04-27T08:20:30.000Z</time>
      </trkpt>
      <trkpt lat="44.18329" lon="1.15298">
        <ele>241.49</ele>
        <time>2018-04-27T08:20:40.000Z</time>
      </trkpt>
      <trkpt lat="44.18322" lon="1.15308">
        <ele>241.41</ele>
        <time>2018-04-27T08:20:50.000Z</time>
      </trkpt>
      <trkpt lat="44.18314" lon="1.15317">
        <ele>239.84</ele>
        <time>2018-04-27T08:21:00.000Z</time>
      </trkpt>
      <trkpt lat="44.18306" lon="1.15324">
        <ele>238.43</ele>
        <time>2018-04-27T08:21:10.000Z</time>
      </trkpt>
      <trkpt lat="44.18297" lon="1.15332">
        <ele>237.59</ele>
        <time>2018-04-27T08:21:20.000Z</time>
      </trkpt>
      <trkpt lat="44.18301" lon="1.15331">
        <ele>237.03</ele>
        <time>2018-04-27T08:21:30.000Z</time>
      </trkpt>
      <trkpt lat="44.18301" lon="1.15323">
        <ele>236.93</ele>
        <time>2018-04-27T08:21:40.000Z</time>
      </trkpt>
      <trkpt lat="44.18298" lon="1.15317">
        <ele>236.49</ele>
        <time>2018-04-27T08:21:50.000Z</time>
      </trkpt>
      <trkpt lat="44.1829" lon="1.15311">
        <ele>235.17</ele>
        <time>2018-04-27T08:22:00.000Z</time>
      </trkpt>
      <trkpt lat="44.18281" lon="1.15303">
        <ele>233.6</ele>
        <time>2018-04-27T08:22:10.000Z</time>
      </trkpt>
      <trkpt lat="44.18273" lon="1.15295">
        <ele>232.31</ele>
        <time>2018-04-27T08:22:20.000Z</time>
      </trkpt>
      <trkpt lat="44.18265" lon="1.15287">
        <ele>230.71</ele>
        <time>2018-04-27T08:22:30.000Z</time>
      </trkpt>
      <trkpt lat="44.18256" lon="1.1528">
        <ele>229.62</ele>
        <time>2018-04-27T08:22:40.000Z</time>
      </trkpt>
      <trkpt lat="44.18252" lon="1.15278">
        <ele>228.76</ele>
        <time>2018-04-27T08:22:50.000Z</time>
      </trkpt>
      <trkpt lat="44.18253" lon="1.15277">
        <ele>228.78</ele>
        <time>2018-04-27T08:23:00.000Z</time>
      </trkpt>
      <trkpt lat="44.18254" lon="1.15276">
        <ele>228.8</ele>
        <time>2018-04-27T08:23:22.000Z</time>
      </trkpt>
      <trkpt lat="44.18248" lon="1.15274">
        <ele>228.51</ele>
        <time>2018-04-27T08:23:32.000Z</time>
      </trkpt>
      <trkpt lat="44.18239" lon="1.15268">
        <ele>227.24</ele>
        <time>2018-04-27T08:23:42.000Z</time>
      </trkpt>
      <trkpt lat="44.18231" lon="1.15261">
        <ele>225.61</ele>
        <time>2018-04-27T08:23:52.000Z</time>
      </trkpt>
      <trkpt lat="44.18222" lon="1.15251">
        <ele>224.57</ele>
        <time>2018-04-27T08:24:02.000Z</time>
      </trkpt>
      <trkpt lat="44.18214" lon="1.15242">
        <ele>224.08</ele>
        <time>2018-04-27T08:24:12.000Z</time>
      </trkpt>
      <trkpt lat="44.18204" lon="1.15233">
        <ele>224.9</ele>
        <time>2018-04-27T08:24:22.000Z</time>
      </trkpt>
      <trkpt lat="44.18197" lon="1.15226">
        <ele>225.88</ele>
        <time>2018-04-27T08:24:32.000Z</time>
      </trkpt>
      <trkpt lat="44.18188" lon="1.1522">
        <ele>226.51</ele>
        <time>2018-04-27T08:24:42.000Z</time>
      </trkpt>
      <trkpt lat="44.18179" lon="1.15212">
        <ele>226.22</ele>
        <time>2018-04-27T08:24:52.000Z</time>
      </trkpt>
      <trkpt lat="44.18169" lon="1.15208">
        <ele>225.1</ele>
        <time>2018-04-27T08:25:02.000Z</time>
      </trkpt>
      <trkpt lat="44.18159" lon="1.15205">
        <ele>223.96</ele>
        <time>2018-04-27T08:25:12.000Z</time>
      </trkpt>
      <trkpt lat="44.18152" lon="1.15204">
        <ele>222.29</ele>
        <time>2018-04-27T08:25:22.000Z</time>
      </trkpt>
      <trkpt lat="44.18143" lon="1.15204">
        <ele>220.59</ele>
        <time>2018-04-27T08:25:32.000Z</time>
      </trkpt>
      <trkpt lat="44.18136" lon="1.15205">
        <ele>218.86</ele>
        <time>2018-04-27T08:25:42.000Z</time>
      </trkpt>
      <trkpt lat="44.18127" lon="1.15206">
        <ele>217.63</ele>
        <time>2018-04-27T08:25:52.000Z</time>
      </trkpt>
      <trkpt lat="44.1812" lon="1.15207">
        <ele>215.91</ele>
        <time>2018-04-27T08:26:02.000Z</time>
      </trkpt>
      <trkpt lat="44.1811" lon="1.15211">
        <ele>214.69</ele>
        <time>2018-04-27T08:26:12.000Z</time>
      </trkpt>
      <trkpt lat="44.18099" lon="1.15215">
        <ele>212.48</ele>
        <time>2018-04-27T08:26:22.000Z</time>
      </trkpt>
      <trkpt lat="44.18092" lon="1.15219">
        <ele>210.62</ele>
        <time>2018-04-27T08:26:32.000Z</time>
      </trkpt>
      <trkpt lat="44.18083" lon="1.15224">
        <ele>209.39</ele>
        <time>2018-04-27T08:26:42.000Z</time>
      </trkpt>
      <trkpt lat="44.18074" lon="1.15228">
        <ele>207.91</ele>
        <time>2018-04-27T08:26:52.000Z</time>
      </trkpt>
      <trkpt lat="44.18064" lon="1.15231">
        <ele>206.12</ele>
        <time>2018-04-27T08:27:02.000Z</time>
      </trkpt>
      <trkpt lat="44.18057" lon="1.15233">
        <ele>204.14</ele>
        <time>2018-04-27T08:27:12.000Z</time>
      </trkpt>
      <trkpt lat="44.18053" lon="1.15236">
        <ele>202.32</ele>
        <time>2018-04-27T08:27:22.000Z</time>
      </trkpt>
      <trkpt lat="44.18044" lon="1.15239">
        <ele>201.17</ele>
        <time>2018-04-27T08:27:32.000Z</time>
      </trkpt>
      <trkpt lat="44.18034" lon="1.15241">
        <ele>199.94</ele>
        <time>2018-04-27T08:27:42.000Z</time>
      </trkpt>
      <trkpt lat="44.1802" lon="1.15243">
        <ele>198.28</ele>
        <time>2018-04-27T08:27:52.000Z</time>
      </trkpt>
      <trkpt lat="44.18006" lon="1.1525">
        <ele>197.73</ele>
        <time>2018-04-27T08:28:02.000Z</time>
      </trkpt>
      <trkpt lat="44.17997" lon="1.15261">
        <ele>197.62</ele>
        <time>2018-04-27T08:28:12.000Z</time>
      </trkpt>
      <trkpt lat="44.17991" lon="1.15275">
        <ele>197.38</ele>
        <time>2018-04-27T08:28:22.000Z</time>
      </trkpt>
      <trkpt lat="44.17984" lon="1.15292">
        <ele>196.97</ele>
        <time>2018-04-27T08:28:32.000Z</time>
      </trkpt>
      <trkpt lat="44.17977" lon="1.15304">
        <ele>196.33</ele>
        <time>2018-04-27T08:28:42.000Z</time>
      </trkpt>
      <trkpt lat="44.1797" lon="1.15316">
        <ele>195.54</ele>
        <time>2018-04-27T08:28:52.000Z</time>
      </trkpt>
      <trkpt lat="44.17962" lon="1.15326">
        <ele>195.08</ele>
        <time>2018-04-27T08:29:02.000Z</time>
      </trkpt>
      <trkpt lat="44.17953" lon="1.15336">
        <ele>194.55</ele>
        <time>2018-04-27T08:29:12.000Z</time>
      </trkpt>
      <trkpt lat="44.17943" lon="1.15349">
        <ele>194.68</ele>
        <time>2018-04-27T08:29:22.000Z</time>
      </trkpt>
      <trkpt lat="44.17936" lon="1.1536">
        <ele>194.4</ele>
        <time>2018-04-27T08:29:32.000Z</time>
      </trkpt>
      <trkpt lat="44.17929" lon="1.15371">
        <ele>193.91</ele>
        <time>2018-04-27T08:29:42.000Z</time>
      </trkpt>
      <trkpt lat="44.17917" lon="1.15382">
        <ele>193.8</ele>
        <time>2018-04-27T08:29:52.000Z</time>
      </trkpt>
      <trkpt lat="44.17908" lon="1.15392">
        <ele>193.49</ele>
        <time>2018-04-27T08:30:02.000Z</time>
      </trkpt>
      <trkpt lat="44.17902" lon="1.15398">
        <ele>193.28</ele>
        <time>2018-04-27T08:30:13.000Z</time>
      </trkpt>
      <trkpt lat="44.17893" lon="1.15404">
        <ele>193.23</ele>
        <time>2018-04-27T08:30:23.000Z</time>
      </trkpt>
      <trkpt lat="44.17883" lon="1.15405">
        <ele>192.64</ele>
        <time>2018-04-27T08:30:33.000Z</time>
      </trkpt>
      <trkpt lat="44.1787" lon="1.15411">
        <ele>192.7</ele>
        <time>2018-04-27T08:30:43.000Z</time>
      </trkpt>
      <trkpt lat="44.17864" lon="1.15418">
        <ele>192.37</ele>
        <time>2018-04-27T08:30:53.000Z</time>
      </trkpt>
      <trkpt lat="44.17859" lon="1.15419">
        <ele>192.89</ele>
        <time>2018-04-27T08:31:03.000Z</time>
      </trkpt>
      <trkpt lat="44.17859" lon="1.15413">
        <ele>192.94</ele>
        <time>2018-04-27T08:31:13.000Z</time>
      </trkpt>
      <trkpt lat="44.17857" lon="1.15403">
        <ele>194.29</ele>
        <time>2018-04-27T08:31:23.000Z</time>
      </trkpt>
      <trkpt lat="44.17848" lon="1.15395">
        <ele>194.94</ele>
        <time>2018-04-27T08:31:33.000Z</time>
      </trkpt>
      <trkpt lat="44.17835" lon="1.15396">
        <ele>193.88</ele>
        <time>2018-04-27T08:31:43.000Z</time>
      </trkpt>
      <trkpt lat="44.17824" lon="1.15399">
        <ele>192.8</ele>
        <time>2018-04-27T08:31:53.000Z</time>
      </trkpt>
      <trkpt lat="44.17815" lon="1.15402">
        <ele>193.03</ele>
        <time>2018-04-27T08:32:03.000Z</time>
      </trkpt>
      <trkpt lat="44.1781" lon="1.15406">
        <ele>192.48</ele>
        <time>2018-04-27T08:32:13.000Z</time>
      </trkpt>
      <trkpt lat="44.17802" lon="1.1541">
        <ele>192.69</ele>
        <time>2018-04-27T08:32:23.000Z</time>
      </trkpt>
      <trkpt lat="44.17792" lon="1.15415">
        <ele>192.82</ele>
        <time>2018-04-27T08:32:33.000Z</time>
      </trkpt>
      <trkpt lat="44.1778" lon="1.15421">
        <ele>193.08</ele>
        <time>2018-04-27T08:32:43.000Z</time>
      </trkpt>
      <trkpt lat="44.17772" lon="1.15427">
        <ele>193.17</ele>
        <time>2018-04-27T08:32:53.000Z</time>
      </trkpt>
      <trkpt lat="44.17766" lon="1.15435">
        <ele>193.41</ele>
        <time>2018-04-27T08:33:03.000Z</time>
      </trkpt>
      <trkpt lat="44.17763" lon="1.1543">
        <ele>194.41</ele>
        <time>2018-04-27T08:33:13.000Z</time>
      </trkpt>
      <trkpt lat="44.17766" lon="1.15421">
        <ele>195.79</ele>
        <time>2018-04-27T08:33:23.000Z</time>
      </trkpt>
      <trkpt lat="44.17767" lon="1.15409">
        <ele>196.91</ele>
        <time>2018-04-27T08:33:33.000Z</time>
      </trkpt>
      <trkpt lat="44.17769" lon="1.15397">
        <ele>197.49</ele>
        <time>2018-04-27T08:33:43.000Z</time>
      </trkpt>
      <trkpt lat="44.17771" lon="1.15385">
        <ele>198.48</ele>
        <time>2018-04-27T08:33:53.000Z</time>
      </trkpt>
      <trkpt lat="44.17774" lon="1.15372">
        <ele>199.82</ele>
        <time>2018-04-27T08:34:03.000Z</time>
      </trkpt>
      <trkpt lat="44.17778" lon="1.15361">
        <ele>200.62</ele>
        <time>2018-04-27T08:34:13.000Z</time>
      </trkpt>
      <trkpt lat="44.17782" lon="1.15351">
        <ele>201.86</ele>
        <time>2018-04-27T08:34:23.000Z</time>
      </trkpt>
      <trkpt lat="44.17784" lon="1.15342">
        <ele>203.29</ele>
        <time>2018-04-27T08:34:33.000Z</time>
      </trkpt>
      <trkpt lat="44.17786" lon="1.1533">
        <ele>204.41</ele>
        <time>2018-04-27T08:34:43.000Z</time>
      </trkpt>
      <trkpt lat="44.17786" lon="1.1532">
        <ele>205.53</ele>
        <time>2018-04-27T08:34:53.000Z</time>
      </trkpt>
      <trkpt lat="44.17784" lon="1.1531">
        <ele>207.07</ele>
        <time>2018-04-27T08:35:03.000Z</time>
      </trkpt>
      <trkpt lat="44.1778" lon="1.15299">
        <ele>208.22</ele>
        <time>2018-04-27T08:35:13.000Z</time>
      </trkpt>
      <trkpt lat="44.17777" lon="1.15289">
        <ele>208.85</ele>
        <time>2018-04-27T08:35:23.000Z</time>
      </trkpt>
      <trkpt lat="44.17773" lon="1.15276">
        <ele>209.81</ele>
        <time>2018-04-27T08:35:33.000Z</time>
      </trkpt>
      <trkpt lat="44.17769" lon="1.15266">
        <ele>210.26</ele>
        <time>2018-04-27T08:35:43.000Z</time>
      </trkpt>
      <trkpt lat="44.17766" lon="1.15256">
        <ele>211.08</ele>
        <time>2018-04-27T08:35:53.000Z</time>
      </trkpt>
      <trkpt lat="44.17763" lon="1.15246">
        <ele>212.21</ele>
        <time>2018-04-27T08:36:03.000Z</time>
      </trkpt>
      <trkpt lat="44.17759" lon="1.15238">
        <ele>213.29</ele>
        <time>2018-04-27T08:36:13.000Z</time>
      </trkpt>
      <trkpt lat="44.17759" lon="1.15227">
        <ele>214.76</ele>
        <time>2018-04-27T08:36:23.000Z</time>
      </trkpt>
      <trkpt lat="44.17757" lon="1.15218">
        <ele>215.21</ele>
        <time>2018-04-27T08:36:33.000Z</time>
      </trkpt>
      <trkpt lat="44.17757" lon="1.15208">
        <ele>216.22</ele>
        <time>2018-04-27T08:36:43.000Z</time>
      </trkpt>
      <trkpt lat="44.17757" lon="1.15196">
        <ele>217.08</ele>
        <time>2018-04-27T08:36:53.000Z</time>
      </trkpt>
      <trkpt lat="44.17758" lon="1.15185">
        <ele>217.91</ele>
        <time>2018-04-27T08:37:03.000Z</time>
      </trkpt>
      <trkpt lat="44.17759" lon="1.15174">
        <ele>218.21</ele>
        <time>2018-04-27T08:37:13.000Z</time>
      </trkpt>
      <trkpt lat="44.17759" lon="1.15164">
        <ele>218.62</ele>
        <time>2018-04-27T08:37:23.000Z</time>
      </trkpt>
      <trkpt lat="44.17759" lon="1.15152">
        <ele>219.66</ele>
        <time>2018-04-27T08:37:33.000Z</time>
      </trkpt>
      <trkpt lat="44.17756" lon="1.15142">
        <ele>220.19</ele>
        <time>2018-04-27T08:37:43.000Z</time>
      </trkpt>
      <trkpt lat="44.17752" lon="1.15133">
        <ele>220.69</ele>
        <time>2018-04-27T08:37:53.000Z</time>
      </trkpt>
      <trkpt lat="44.17749" lon="1.15124">
        <ele>221.67</ele>
        <time>2018-04-27T08:38:03.000Z</time>
      </trkpt>
      <trkpt lat="44.17746" lon="1.15118">
        <ele>223</ele>
        <time>2018-04-27T08:38:13.000Z</time>
      </trkpt>
      <trkpt lat="44.17742" lon="1.15114">
        <ele>224.71</ele>
        <time>2018-04-27T08:38:23.000Z</time>
      </trkpt>
      <trkpt lat="44.17738" lon="1.15109">
        <ele>225.98</ele>
        <time>2018-04-27T08:38:33.000Z</time>
      </trkpt>
      <trkpt lat="44.17733" lon="1.15104">
        <ele>226.91</ele>
        <time>2018-04-27T08:38:43.000Z</time>
      </trkpt>
      <trkpt lat="44.17727" lon="1.15098">
        <ele>227.77</ele>
        <time>2018-04-27T08:38:53.000Z</time>
      </trkpt>
      <trkpt lat="44.17722" lon="1.15092">
        <ele>228.88</ele>
        <time>2018-04-27T08:39:03.000Z</time>
      </trkpt>
      <trkpt lat="44.17715" lon="1.15086">
        <ele>230.25</ele>
        <time>2018-04-27T08:39:13.000Z</time>
      </trkpt>
      <trkpt lat="44.1771" lon="1.1508">
        <ele>231.46</ele>
        <time>2018-04-27T08:39:23.000Z</time>
      </trkpt>
      <trkpt lat="44.17705" lon="1.15074">
        <ele>232.36</ele>
        <time>2018-04-27T08:39:33.000Z</time>
      </trkpt>
      <trkpt lat="44.17699" lon="1.15067">
        <ele>233.62</ele>
        <time>2018-04-27T08:39:43.000Z</time>
      </trkpt>
      <trkpt lat="44.17693" lon="1.1506">
        <ele>234.39</ele>
        <time>2018-04-27T08:39:53.000Z</time>
      </trkpt>
      <trkpt lat="44.17686" lon="1.15053">
        <ele>235.22</ele>
        <time>2018-04-27T08:40:03.000Z</time>
      </trkpt>
      <trkpt lat="44.17686" lon="1.1505">
        <ele>235.4</ele>
        <time>2018-04-27T08:40:13.000Z</time>
      </trkpt>
      <trkpt lat="44.17693" lon="1.15039">
        <ele>236.06</ele>
        <time>2018-04-27T08:40:23.000Z</time>
      </trkpt>
      <trkpt lat="44.17698" lon="1.15027">
        <ele>236.21</ele>
        <time>2018-04-27T08:40:33.000Z</time>
      </trkpt>
      <trkpt lat="44.17705" lon="1.15016">
        <ele>236.18</ele>
        <time>2018-04-27T08:40:43.000Z</time>
      </trkpt>
      <trkpt lat="44.17713" lon="1.15003">
        <ele>235.88</ele>
        <time>2018-04-27T08:40:53.000Z</time>
      </trkpt>
      <trkpt lat="44.17718" lon="1.1499">
        <ele>236.26</ele>
        <time>2018-04-27T08:41:03.000Z</time>
      </trkpt>
      <trkpt lat="44.17725" lon="1.14977">
        <ele>236.06</ele>
        <time>2018-04-27T08:41:13.000Z</time>
      </trkpt>
      <trkpt lat="44.17734" lon="1.14964">
        <ele>235.92</ele>
        <time>2018-04-27T08:41:23.000Z</time>
      </trkpt>
      <trkpt lat="44.1774" lon="1.14951">
        <ele>236.16</ele>
        <time>2018-04-27T08:41:33.000Z</time>
      </trkpt>
      <trkpt lat="44.17748" lon="1.14937">
        <ele>236.46</ele>
        <time>2018-04-27T08:41:43.000Z</time>
      </trkpt>
      <trkpt lat="44.17753" lon="1.14924">
        <ele>236.96</ele>
        <time>2018-04-27T08:41:53.000Z</time>
      </trkpt>
      <trkpt lat="44.17758" lon="1.14915">
        <ele>236.69</ele>
        <time>2018-04-27T08:42:03.000Z</time>
      </trkpt>
      <trkpt lat="44.17764" lon="1.149">
        <ele>237.31</ele>
        <time>2018-04-27T08:42:13.000Z</time>
      </trkpt>
      <trkpt lat="44.17769" lon="1.14891">
        <ele>236.89</ele>
        <time>2018-04-27T08:42:23.000Z</time>
      </trkpt>
      <trkpt lat="44.17777" lon="1.14878">
        <ele>237.35</ele>
        <time>2018-04-27T08:42:33.000Z</time>
      </trkpt>
      <trkpt lat="44.17783" lon="1.14864">
        <ele>237.47</ele>
        <time>2018-04-27T08:42:43.000Z</time>
      </trkpt>
      <trkpt lat="44.1779" lon="1.1485">
        <ele>237.59</ele>
        <time>2018-04-27T08:42:53.000Z</time>
      </trkpt>
      <trkpt lat="44.17797" lon="1.14837">
        <ele>237.98</ele>
        <time>2018-04-27T08:43:03.000Z</time>
      </trkpt>
      <trkpt lat="44.178" lon="1.14825">
        <ele>238.77</ele>
        <time>2018-04-27T08:43:13.000Z</time>
      </trkpt>
      <trkpt lat="44.17805" lon="1.14811">
        <ele>239.08</ele>
        <time>2018-04-27T08:43:23.000Z</time>
      </trkpt>
      <trkpt lat="44.17807" lon="1.14795">
        <ele>239.65</ele>
        <time>2018-04-27T08:43:33.000Z</time>
      </trkpt>
      <trkpt lat="44.17807" lon="1.14784">
        <ele>240.03</ele>
        <time>2018-04-27T08:43:43.000Z</time>
      </trkpt>
      <trkpt lat="44.17806" lon="1.14771">
        <ele>240.34</ele>
        <time>2018-04-27T08:43:53.000Z</time>
      </trkpt>
      <trkpt lat="44.17805" lon="1.14755">
        <ele>241.34</ele>
        <time>2018-04-27T08:44:03.000Z</time>
      </trkpt>
      <trkpt lat="44.17802" lon="1.1474">
        <ele>241.91</ele>
        <time>2018-04-27T08:44:13.000Z</time>
      </trkpt>
      <trkpt lat="44.17799" lon="1.14724">
        <ele>242.33</ele>
        <time>2018-04-27T08:44:23.000Z</time>
      </trkpt>
      <trkpt lat="44.17798" lon="1.1471">
        <ele>242.25</ele>
        <time>2018-04-27T08:44:33.000Z</time>
      </trkpt>
      <trkpt lat="44.17801" lon="1.14695">
        <ele>243.04</ele>
        <time>2018-04-27T08:44:43.000Z</time>
      </trkpt>
      <trkpt lat="44.17806" lon="1.14683">
        <ele>243.35</ele>
        <time>2018-04-27T08:44:53.000Z</time>
      </trkpt>
      <trkpt lat="44.17812" lon="1.14671">
        <ele>243.99</ele>
        <time>2018-04-27T08:45:03.000Z</time>
      </trkpt>
      <trkpt lat="44.17819" lon="1.14659">
        <ele>244.11</ele>
        <time>2018-04-27T08:45:13.000Z</time>
      </trkpt>
      <trkpt lat="44.17827" lon="1.14646">
        <ele>244.34</ele>
        <time>2018-04-27T08:45:23.000Z</time>
      </trkpt>
      <trkpt lat="44.17835" lon="1.14633">
        <ele>245.09</ele>
        <time>2018-04-27T08:45:33.000Z</time>
      </trkpt>
      <trkpt lat="44.17841" lon="1.14619">
        <ele>244.95</ele>
        <time>2018-04-27T08:45:43.000Z</time>
      </trkpt>
      <trkpt lat="44.17847" lon="1.14605">
        <ele>244.92</ele>
        <time>2018-04-27T08:45:53.000Z</time>
      </trkpt>
      <trkpt lat="44.17853" lon="1.14591">
        <ele>244.83</ele>
        <time>2018-04-27T08:46:03.000Z</time>
      </trkpt>
      <trkpt lat="44.17859" lon="1.14576">
        <ele>244.43</ele>
        <time>2018-04-27T08:46:13.000Z</time>
      </trkpt>
      <trkpt lat="44.17861" lon="1.14567">
        <ele>244.12</ele>
        <time>2018-04-27T08:46:23.000Z</time>
      </trkpt>
      <trkpt lat="44.17863" lon="1.14555">
        <ele>243.99</ele>
        <time>2018-04-27T08:46:33.000Z</time>
      </trkpt>
      <trkpt lat="44.17865" lon="1.14552">
        <ele>244.21</ele>
        <time>2018-04-27T08:46:43.000Z</time>
      </trkpt>
      <trkpt lat="44.17871" lon="1.14541">
        <ele>244.11</ele>
        <time>2018-04-27T08:46:53.000Z</time>
      </trkpt>
      <trkpt lat="44.17877" lon="1.14527">
        <ele>243.84</ele>
        <time>2018-04-27T08:47:03.000Z</time>
      </trkpt>
      <trkpt lat="44.17882" lon="1.14513">
        <ele>243.39</ele>
        <time>2018-04-27T08:47:13.000Z</time>
      </trkpt>
      <trkpt lat="44.17886" lon="1.145">
        <ele>243.21</ele>
        <time>2018-04-27T08:47:23.000Z</time>
      </trkpt>
      <trkpt lat="44.17893" lon="1.14484">
        <ele>242.73</ele>
        <time>2018-04-27T08:47:33.000Z</time>
      </trkpt>
      <trkpt lat="44.17898" lon="1.1447">
        <ele>242.35</ele>
        <time>2018-04-27T08:47:43.000Z</time>
      </trkpt>
      <trkpt lat="44.17904" lon="1.14454">
        <ele>242</ele>
        <time>2018-04-27T08:47:53.000Z</time>
      </trkpt>
      <trkpt lat="44.17909" lon="1.14439">
        <ele>241.47</ele>
        <time>2018-04-27T08:48:03.000Z</time>
      </trkpt>
      <trkpt lat="44.17913" lon="1.14424">
        <ele>241.47</ele>
        <time>2018-04-27T08:48:13.000Z</time>
      </trkpt>
      <trkpt lat="44.17919" lon="1.14409">
        <ele>240.72</ele>
        <time>2018-04-27T08:48:23.000Z</time>
      </trkpt>
      <trkpt lat="44.17923" lon="1.14395">
        <ele>240.2</ele>
        <time>2018-04-27T08:48:33.000Z</time>
      </trkpt>
      <trkpt lat="44.17928" lon="1.1438">
        <ele>239.82</ele>
        <time>2018-04-27T08:48:43.000Z</time>
      </trkpt>
      <trkpt lat="44.17933" lon="1.14365">
        <ele>239.08</ele>
        <time>2018-04-27T08:48:53.000Z</time>
      </trkpt>
      <trkpt lat="44.17939" lon="1.1435">
        <ele>238.73</ele>
        <time>2018-04-27T08:49:03.000Z</time>
      </trkpt>
      <trkpt lat="44.17943" lon="1.14334">
        <ele>239.53</ele>
        <time>2018-04-27T08:49:13.000Z</time>
      </trkpt>
      <trkpt lat="44.17944" lon="1.14317">
        <ele>240.15</ele>
        <time>2018-04-27T08:49:23.000Z</time>
      </trkpt>
      <trkpt lat="44.17946" lon="1.14301">
        <ele>240.54</ele>
        <time>2018-04-27T08:49:33.000Z</time>
      </trkpt>
      <trkpt lat="44.17947" lon="1.14284">
        <ele>239.8</ele>
        <time>2018-04-27T08:49:43.000Z</time>
      </trkpt>
      <trkpt lat="44.17946" lon="1.14267">
        <ele>239.98</ele>
        <time>2018-04-27T08:49:53.000Z</time>
      </trkpt>
      <trkpt lat="44.17945" lon="1.14249">
        <ele>239.84</ele>
        <time>2018-04-27T08:50:03.000Z</time>
      </trkpt>
      <trkpt lat="44.17943" lon="1.14231">
        <ele>239.36</ele>
        <time>2018-04-27T08:50:13.000Z</time>
      </trkpt>
      <trkpt lat="44.1794" lon="1.14215">
        <ele>238.98</ele>
        <time>2018-04-27T08:50:23.000Z</time>
      </trkpt>
      <trkpt lat="44.17936" lon="1.142">
        <ele>238.48</ele>
        <time>2018-04-27T08:50:33.000Z</time>
      </trkpt>
      <trkpt lat="44.1793" lon="1.14184">
        <ele>238.69</ele>
        <time>2018-04-27T08:50:43.000Z</time>
      </trkpt>
      <trkpt lat="44.17925" lon="1.14169">
        <ele>238.44</ele>
        <time>2018-04-27T08:50:53.000Z</time>
      </trkpt>
      <trkpt lat="44.1792" lon="1.14154">
        <ele>237.93</ele>
        <time>2018-04-27T08:51:03.000Z</time>
      </trkpt>
      <trkpt lat="44.17915" lon="1.14138">
        <ele>238.28</ele>
        <time>2018-04-27T08:51:13.000Z</time>
      </trkpt>
      <trkpt lat="44.17909" lon="1.14122">
        <ele>237.8</ele>
        <time>2018-04-27T08:51:23.000Z</time>
      </trkpt>
      <trkpt lat="44.17904" lon="1.14105">
        <ele>237.73</ele>
        <time>2018-04-27T08:51:33.000Z</time>
      </trkpt>
      <trkpt lat="44.17902" lon="1.14088">
        <ele>237.71</ele>
        <time>2018-04-27T08:51:43.000Z</time>
      </trkpt>
      <trkpt lat="44.179" lon="1.14069">
        <ele>237.56</ele>
        <time>2018-04-27T08:51:53.000Z</time>
      </trkpt>
      <trkpt lat="44.179" lon="1.14052">
        <ele>237.53</ele>
        <time>2018-04-27T08:52:03.000Z</time>
      </trkpt>
      <trkpt lat="44.17902" lon="1.14034">
        <ele>237.39</ele>
        <time>2018-04-27T08:52:13.000Z</time>
      </trkpt>
      <trkpt lat="44.17905" lon="1.14017">
        <ele>237.46</ele>
        <time>2018-04-27T08:52:23.000Z</time>
      </trkpt>
      <trkpt lat="44.17908" lon="1.14001">
        <ele>237.64</ele>
        <time>2018-04-27T08:52:33.000Z</time>
      </trkpt>
      <trkpt lat="44.17912" lon="1.13984">
        <ele>237.47</ele>
        <time>2018-04-27T08:52:43.000Z</time>
      </trkpt>
      <trkpt lat="44.17917" lon="1.13967">
        <ele>237.81</ele>
        <time>2018-04-27T08:52:53.000Z</time>
      </trkpt>
      <trkpt lat="44.17924" lon="1.13952">
        <ele>238.06</ele>
        <time>2018-04-27T08:53:03.000Z</time>
      </trkpt>
      <trkpt lat="44.1793" lon="1.13935">
        <ele>238.22</ele>
        <time>2018-04-27T08:53:13.000Z</time>
      </trkpt>
      <trkpt lat="44.17936" lon="1.1392">
        <ele>238.36</ele>
        <time>2018-04-27T08:53:23.000Z</time>
      </trkpt>
      <trkpt lat="44.17939" lon="1.13904">
        <ele>238.34</ele>
        <time>2018-04-27T08:53:33.000Z</time>
      </trkpt>
      <trkpt lat="44.17941" lon="1.13889">
        <ele>238.81</ele>
        <time>2018-04-27T08:53:43.000Z</time>
      </trkpt>
      <trkpt lat="44.1794" lon="1.13872">
        <ele>238.84</ele>
        <time>2018-04-27T08:53:53.000Z</time>
      </trkpt>
      <trkpt lat="44.1794" lon="1.13854">
        <ele>238.26</ele>
        <time>2018-04-27T08:54:03.000Z</time>
      </trkpt>
      <trkpt lat="44.17939" lon="1.13836">
        <ele>237.5</ele>
        <time>2018-04-27T08:54:13.000Z</time>
      </trkpt>
      <trkpt lat="44.1794" lon="1.13818">
        <ele>237.8</ele>
        <time>2018-04-27T08:54:23.000Z</time>
      </trkpt>
      <trkpt lat="44.1794" lon="1.13799">
        <ele>237.25</ele>
        <time>2018-04-27T08:54:33.000Z</time>
      </trkpt>
      <trkpt lat="44.1794" lon="1.13781">
        <ele>236.95</ele>
        <time>2018-04-27T08:54:43.000Z</time>
      </trkpt>
      <trkpt lat="44.17939" lon="1.13763">
        <ele>236.78</ele>
        <time>2018-04-27T08:54:53.000Z</time>
      </trkpt>
      <trkpt lat="44.17938" lon="1.13745">
        <ele>236.67</ele>
        <time>2018-04-27T08:55:03.000Z</time>
      </trkpt>
      <trkpt lat="44.17937" lon="1.13729">
        <ele>235.51</ele>
        <time>2018-04-27T08:55:13.000Z</time>
      </trkpt>
      <trkpt lat="44.17937" lon="1.13712">
        <ele>235.73</ele>
        <time>2018-04-27T08:55:23.000Z</time>
      </trkpt>
      <trkpt lat="44.17935" lon="1.13694">
        <ele>235.79</ele>
        <time>2018-04-27T08:55:33.000Z</time>
      </trkpt>
      <trkpt lat="44.17934" lon="1.13678">
        <ele>235.5</ele>
        <time>2018-04-27T08:55:43.000Z</time>
      </trkpt>
      <trkpt lat="44.17933" lon="1.13661">
        <ele>235.37</ele>
        <time>2018-04-27T08:55:53.000Z</time>
      </trkpt>
      <trkpt lat="44.1793" lon="1.13643">
        <ele>235.71</ele>
        <time>2018-04-27T08:56:03.000Z</time>
      </trkpt>
      <trkpt lat="44.17929" lon="1.13626">
        <ele>236.06</ele>
        <time>2018-04-27T08:56:13.000Z</time>
      </trkpt>
      <trkpt lat="44.17928" lon="1.1361">
        <ele>236.01</ele>
        <time>2018-04-27T08:56:23.000Z</time>
      </trkpt>
      <trkpt lat="44.17925" lon="1.13594">
        <ele>236.29</ele>
        <time>2018-04-27T08:56:33.000Z</time>
      </trkpt>
      <trkpt lat="44.17923" lon="1.13577">
        <ele>236.41</ele>
        <time>2018-04-27T08:56:43.000Z</time>
      </trkpt>
      <trkpt lat="44.17924" lon="1.13558">
        <ele>236.39</ele>
        <time>2018-04-27T08:56:53.000Z</time>
      </trkpt>
      <trkpt lat="44.17924" lon="1.13539">
        <ele>236.31</ele>
        <time>2018-04-27T08:57:03.000Z</time>
      </trkpt>
      <trkpt lat="44.17925" lon="1.13521">
        <ele>236.11</ele>
        <time>2018-04-27T08:57:13.000Z</time>
      </trkpt>
      <trkpt lat="44.17923" lon="1.13506">
        <ele>236.41</ele>
        <time>2018-04-27T08:57:23.000Z</time>
      </trkpt>
      <trkpt lat="44.17923" lon="1.13488">
        <ele>236.95</ele>
        <time>2018-04-27T08:57:33.000Z</time>
      </trkpt>
      <trkpt lat="44.17923" lon="1.1347">
        <ele>237.2</ele>
        <time>2018-04-27T08:57:43.000Z</time>
      </trkpt>
      <trkpt lat="44.17922" lon="1.13454">
        <ele>237.03</ele>
        <time>2018-04-27T08:57:53.000Z</time>
      </trkpt>
      <trkpt lat="44.17922" lon="1.13437">
        <ele>237.18</ele>
        <time>2018-04-27T08:58:03.000Z</time>
      </trkpt>
      <trkpt lat="44.17922" lon="1.1342">
        <ele>237.17</ele>
        <time>2018-04-27T08:58:13.000Z</time>
      </trkpt>
      <trkpt lat="44.17924" lon="1.13404">
        <ele>237.73</ele>
        <time>2018-04-27T08:58:23.000Z</time>
      </trkpt>
      <trkpt lat="44.17924" lon="1.13388">
        <ele>237.83</ele>
        <time>2018-04-27T08:58:33.000Z</time>
      </trkpt>
      <trkpt lat="44.17924" lon="1.13372">
        <ele>238.11</ele>
        <time>2018-04-27T08:58:43.000Z</time>
      </trkpt>
      <trkpt lat="44.17923" lon="1.13356">
        <ele>238.61</ele>
        <time>2018-04-27T08:58:53.000Z</time>
      </trkpt>
      <trkpt lat="44.17922" lon="1.13338">
        <ele>238.75</ele>
        <time>2018-04-27T08:59:03.000Z</time>
      </trkpt>
      <trkpt lat="44.17921" lon="1.13322">
        <ele>238.91</ele>
        <time>2018-04-27T08:59:13.000Z</time>
      </trkpt>
      <trkpt lat="44.17923" lon="1.13305">
        <ele>239.27</ele>
        <time>2018-04-27T08:59:23.000Z</time>
      </trkpt>
      <trkpt lat="44.17925" lon="1.13288">
        <ele>239.82</ele>
        <time>2018-04-27T08:59:33.000Z</time>
      </trkpt>
      <trkpt lat="44.17929" lon="1.13272">
        <ele>240.41</ele>
        <time>2018-04-27T08:59:43.000Z</time>
      </trkpt>
      <trkpt lat="44.17932" lon="1.13256">
        <ele>240.33</ele>
        <time>2018-04-27T08:59:53.000Z</time>
      </trkpt>
      <trkpt lat="44.17936" lon="1.13241">
        <ele>241.32</ele>
        <time>2018-04-27T09:00:03.000Z</time>
      </trkpt>
      <trkpt lat="44.17938" lon="1.13226">
        <ele>241.92</ele>
        <time>2018-04-27T09:00:13.000Z</time>
      </trkpt>
      <trkpt lat="44.17942" lon="1.1321">
        <ele>242.19</ele>
        <time>2018-04-27T09:00:23.000Z</time>
      </trkpt>
      <trkpt lat="44.17947" lon="1.13195">
        <ele>242.33</ele>
        <time>2018-04-27T09:00:33.000Z</time>
      </trkpt>
      <trkpt lat="44.17951" lon="1.1318">
        <ele>243.13</ele>
        <time>2018-04-27T09:00:43.000Z</time>
      </trkpt>
      <trkpt lat="44.17955" lon="1.13164">
        <ele>243.16</ele>
        <time>2018-04-27T09:00:53.000Z</time>
      </trkpt>
      <trkpt lat="44.17959" lon="1.13148">
        <ele>243.37</ele>
        <time>2018-04-27T09:01:03.000Z</time>
      </trkpt>
      <trkpt lat="44.17964" lon="1.13133">
        <ele>243</ele>
        <time>2018-04-27T09:01:13.000Z</time>
      </trkpt>
      <trkpt lat="44.17967" lon="1.13118">
        <ele>243.68</ele>
        <time>2018-04-27T09:01:23.000Z</time>
      </trkpt>
      <trkpt lat="44.17974" lon="1.131">
        <ele>243.46</ele>
        <time>2018-04-27T09:01:33.000Z</time>
      </trkpt>
      <trkpt lat="44.1798" lon="1.13084">
        <ele>243.18</ele>
        <time>2018-04-27T09:01:43.000Z</time>
      </trkpt>
      <trkpt lat="44.17986" lon="1.1307">
        <ele>243.69</ele>
        <time>2018-04-27T09:01:53.000Z</time>
      </trkpt>
      <trkpt lat="44.17992" lon="1.13057">
        <ele>243.09</ele>
        <time>2018-04-27T09:02:03.000Z</time>
      </trkpt>
      <trkpt lat="44.17999" lon="1.13042">
        <ele>242.52</ele>
        <time>2018-04-27T09:02:13.000Z</time>
      </trkpt>
      <trkpt lat="44.18004" lon="1.13031">
        <ele>242.24</ele>
        <time>2018-04-27T09:02:23.000Z</time>
      </trkpt>
      <trkpt lat="44.1801" lon="1.13017">
        <ele>241.68</ele>
        <time>2018-04-27T09:02:33.000Z</time>
      </trkpt>
      <trkpt lat="44.18015" lon="1.13">
        <ele>241.32</ele>
        <time>2018-04-27T09:02:43.000Z</time>
      </trkpt>
      <trkpt lat="44.1802" lon="1.12983">
        <ele>240.9</ele>
        <time>2018-04-27T09:02:53.000Z</time>
      </trkpt>
      <trkpt lat="44.18024" lon="1.12966">
        <ele>240.59</ele>
        <time>2018-04-27T09:03:03.000Z</time>
      </trkpt>
      <trkpt lat="44.18027" lon="1.1295">
        <ele>240.3</ele>
        <time>2018-04-27T09:03:13.000Z</time>
      </trkpt>
      <trkpt lat="44.18029" lon="1.12933">
        <ele>239.68</ele>
        <time>2018-04-27T09:03:23.000Z</time>
      </trkpt>
      <trkpt lat="44.18032" lon="1.12916">
        <ele>239.84</ele>
        <time>2018-04-27T09:03:33.000Z</time>
      </trkpt>
      <trkpt lat="44.18033" lon="1.12899">
        <ele>239.46</ele>
        <time>2018-04-27T09:03:43.000Z</time>
      </trkpt>
      <trkpt lat="44.18032" lon="1.12884">
        <ele>239.47</ele>
        <time>2018-04-27T09:03:53.000Z</time>
      </trkpt>
      <trkpt lat="44.18032" lon="1.12865">
        <ele>239.85</ele>
        <time>2018-04-27T09:04:03.000Z</time>
      </trkpt>
      <trkpt lat="44.18033" lon="1.12849">
        <ele>239.69</ele>
        <time>2018-04-27T09:04:13.000Z</time>
      </trkpt>
      <trkpt lat="44.18034" lon="1.12833">
        <ele>239.39</ele>
        <time>2018-04-27T09:04:23.000Z</time>
      </trkpt>
      <trkpt lat="44.18035" lon="1.12816">
        <ele>239.61</ele>
        <time>2018-04-27T09:04:33.000Z</time>
      </trkpt>
      <trkpt lat="44.18037" lon="1.12798">
        <ele>240.33</ele>
        <time>2018-04-27T09:04:43.000Z</time>
      </trkpt>
      <trkpt lat="44.18039" lon="1.12785">
        <ele>240.38</ele>
        <time>2018-04-27T09:04:53.000Z</time>
      </trkpt>
      <trkpt lat="44.1804" lon="1.12775">
        <ele>240.53</ele>
        <time>2018-04-27T09:05:03.000Z</time>
      </trkpt>
      <trkpt lat="44.18041" lon="1.12758">
        <ele>241.1</ele>
        <time>2018-04-27T09:05:13.000Z</time>
      </trkpt>
      <trkpt lat="44.18041" lon="1.12742">
        <ele>241.93</ele>
        <time>2018-04-27T09:05:23.000Z</time>
      </trkpt>
      <trkpt lat="44.18041" lon="1.12726">
        <ele>242.48</ele>
        <time>2018-04-27T09:05:33.000Z</time>
      </trkpt>
      <trkpt lat="44.18036" lon="1.1271">
        <ele>242.41</ele>
        <time>2018-04-27T09:05:43.000Z</time>
      </trkpt>
      <trkpt lat="44.18025" lon="1.12705">
        <ele>243.77</ele>
        <time>2018-04-27T09:05:53.000Z</time>
      </trkpt>
      <trkpt lat="44.18014" lon="1.12703">
        <ele>244.34</ele>
        <time>2018-04-27T09:06:03.000Z</time>
      </trkpt>
      <trkpt lat="44.18004" lon="1.12698">
        <ele>244.3</ele>
        <time>2018-04-27T09:06:13.000Z</time>
      </trkpt>
      <trkpt lat="44.17992" lon="1.12693">
        <ele>243.96</ele>
        <time>2018-04-27T09:06:23.000Z</time>
      </trkpt>
      <trkpt lat="44.1798" lon="1.12687">
        <ele>243.49</ele>
        <time>2018-04-27T09:06:33.000Z</time>
      </trkpt>
      <trkpt lat="44.1797" lon="1.1268">
        <ele>243.58</ele>
        <time>2018-04-27T09:06:43.000Z</time>
      </trkpt>
      <trkpt lat="44.17958" lon="1.12674">
        <ele>242.97</ele>
        <time>2018-04-27T09:06:53.000Z</time>
      </trkpt>
      <trkpt lat="44.17947" lon="1.12666">
        <ele>242.56</ele>
        <time>2018-04-27T09:07:03.000Z</time>
      </trkpt>
      <trkpt lat="44.17936" lon="1.12656">
        <ele>242.87</ele>
        <time>2018-04-27T09:07:13.000Z</time>
      </trkpt>
      <trkpt lat="44.17934" lon="1.12643">
        <ele>243.86</ele>
        <time>2018-04-27T09:07:23.000Z</time>
      </trkpt>
      <trkpt lat="44.17941" lon="1.12631">
        <ele>244.89</ele>
        <time>2018-04-27T09:07:33.000Z</time>
      </trkpt>
      <trkpt lat="44.17944" lon="1.12627">
        <ele>245.03</ele>
        <time>2018-04-27T09:07:43.000Z</time>
      </trkpt>
      <trkpt lat="44.17945" lon="1.12628">
        <ele>245.48</ele>
        <time>2018-04-27T09:08:24.000Z</time>
      </trkpt>
      <trkpt lat="44.17946" lon="1.12627">
        <ele>245.23</ele>
        <time>2018-04-27T09:11:42.000Z</time>
      </trkpt>
      <trkpt lat="44.17946" lon="1.12627">
        <ele>244.73</ele>
        <time>2018-04-27T09:12:34.000Z</time>
      </trkpt>
      <trkpt lat="44.17953" lon="1.1262">
        <ele>244.98</ele>
        <time>2018-04-27T09:12:44.000Z</time>
      </trkpt>
      <trkpt lat="44.17962" lon="1.12612">
        <ele>245.65</ele>
        <time>2018-04-27T09:12:54.000Z</time>
      </trkpt>
      <trkpt lat="44.17972" lon="1.12606">
        <ele>245.13</ele>
        <time>2018-04-27T09:13:04.000Z</time>
      </trkpt>
      <trkpt lat="44.17976" lon="1.12605">
        <ele>245.22</ele>
        <time>2018-04-27T09:13:14.000Z</time>
      </trkpt>
      <trkpt lat="44.17973" lon="1.12604">
        <ele>245.11</ele>
        <time>2018-04-27T09:13:24.000Z</time>
      </trkpt>
      <trkpt lat="44.17972" lon="1.12604">
        <ele>245.06</ele>
        <time>2018-04-27T09:13:34.000Z</time>
      </trkpt>
      <trkpt lat="44.17963" lon="1.12608">
        <ele>244.89</ele>
        <time>2018-04-27T09:13:44.000Z</time>
      </trkpt>
      <trkpt lat="44.17954" lon="1.12615">
        <ele>244.89</ele>
        <time>2018-04-27T09:13:54.000Z</time>
      </trkpt>
      <trkpt lat="44.17951" lon="1.12624">
        <ele>244.8</ele>
        <time>2018-04-27T09:14:04.000Z</time>
      </trkpt>
      <trkpt lat="44.17951" lon="1.12625">
        <ele>244.96</ele>
        <time>2018-04-27T09:14:14.000Z</time>
      </trkpt>
      <trkpt lat="44.1795" lon="1.12626">
        <ele>244.25</ele>
        <time>2018-04-27T09:15:33.000Z</time>
      </trkpt>
      <trkpt lat="44.17942" lon="1.12632">
        <ele>243.78</ele>
        <time>2018-04-27T09:15:43.000Z</time>
      </trkpt>
      <trkpt lat="44.17933" lon="1.12642">
        <ele>242.92</ele>
        <time>2018-04-27T09:15:53.000Z</time>
      </trkpt>
      <trkpt lat="44.17925" lon="1.12649">
        <ele>242.67</ele>
        <time>2018-04-27T09:16:03.000Z</time>
      </trkpt>
      <trkpt lat="44.17915" lon="1.12645">
        <ele>241.92</ele>
        <time>2018-04-27T09:16:13.000Z</time>
      </trkpt>
      <trkpt lat="44.17906" lon="1.12637">
        <ele>241.42</ele>
        <time>2018-04-27T09:16:23.000Z</time>
      </trkpt>
      <trkpt lat="44.17898" lon="1.12623">
        <ele>240.9</ele>
        <time>2018-04-27T09:16:33.000Z</time>
      </trkpt>
      <trkpt lat="44.17892" lon="1.12608">
        <ele>239.86</ele>
        <time>2018-04-27T09:16:43.000Z</time>
      </trkpt>
      <trkpt lat="44.17886" lon="1.12594">
        <ele>238.61</ele>
        <time>2018-04-27T09:16:53.000Z</time>
      </trkpt>
      <trkpt lat="44.1788" lon="1.12578">
        <ele>238.01</ele>
        <time>2018-04-27T09:17:03.000Z</time>
      </trkpt>
      <trkpt lat="44.17875" lon="1.12564">
        <ele>237.27</ele>
        <time>2018-04-27T09:17:13.000Z</time>
      </trkpt>
      <trkpt lat="44.17868" lon="1.12549">
        <ele>236.96</ele>
        <time>2018-04-27T09:17:23.000Z</time>
      </trkpt>
      <trkpt lat="44.17861" lon="1.12534">
        <ele>236.16</ele>
        <time>2018-04-27T09:17:33.000Z</time>
      </trkpt>
      <trkpt lat="44.17855" lon="1.12519">
        <ele>235.8</ele>
        <time>2018-04-27T09:17:43.000Z</time>
      </trkpt>
      <trkpt lat="44.17848" lon="1.12505">
        <ele>235</ele>
        <time>2018-04-27T09:17:53.000Z</time>
      </trkpt>
      <trkpt lat="44.1784" lon="1.1249">
        <ele>233.84</ele>
        <time>2018-04-27T09:18:03.000Z</time>
      </trkpt>
      <trkpt lat="44.17831" lon="1.12477">
        <ele>233.18</ele>
        <time>2018-04-27T09:18:13.000Z</time>
      </trkpt>
      <trkpt lat="44.17823" lon="1.12464">
        <ele>232.6</ele>
        <time>2018-04-27T09:18:23.000Z</time>
      </trkpt>
      <trkpt lat="44.17814" lon="1.12451">
        <ele>232.44</ele>
        <time>2018-04-27T09:18:33.000Z</time>
      </trkpt>
      <trkpt lat="44.17806" lon="1.1244">
        <ele>231.37</ele>
        <time>2018-04-27T09:18:43.000Z</time>
      </trkpt>
      <trkpt lat="44.17797" lon="1.12428">
        <ele>230.88</ele>
        <time>2018-04-27T09:18:53.000Z</time>
      </trkpt>
      <trkpt lat="44.17787" lon="1.12417">
        <ele>230.32</ele>
        <time>2018-04-27T09:19:03.000Z</time>
      </trkpt>
      <trkpt lat="44.17777" lon="1.12407">
        <ele>230.61</ele>
        <time>2018-04-27T09:19:13.000Z</time>
      </trkpt>
      <trkpt lat="44.17767" lon="1.12398">
        <ele>230.23</ele>
        <time>2018-04-27T09:19:23.000Z</time>
      </trkpt>
      <trkpt lat="44.17757" lon="1.12391">
        <ele>230.25</ele>
        <time>2018-04-27T09:19:33.000Z</time>
      </trkpt>
      <trkpt lat="44.17746" lon="1.1238">
        <ele>230.23</ele>
        <time>2018-04-27T09:19:43.000Z</time>
      </trkpt>
      <trkpt lat="44.17736" lon="1.12371">
        <ele>229.86</ele>
        <time>2018-04-27T09:19:53.000Z</time>
      </trkpt>
      <trkpt lat="44.17724" lon="1.12364">
        <ele>229.79</ele>
        <time>2018-04-27T09:20:03.000Z</time>
      </trkpt>
      <trkpt lat="44.17714" lon="1.12357">
        <ele>229.45</ele>
        <time>2018-04-27T09:20:13.000Z</time>
      </trkpt>
      <trkpt lat="44.17704" lon="1.12348">
        <ele>229.94</ele>
        <time>2018-04-27T09:20:23.000Z</time>
      </trkpt>
      <trkpt lat="44.17693" lon="1.1234">
        <ele>230.32</ele>
        <time>2018-04-27T09:20:33.000Z</time>
      </trkpt>
      <trkpt lat="44.17681" lon="1.12331">
        <ele>230.36</ele>
        <time>2018-04-27T09:20:43.000Z</time>
      </trkpt>
      <trkpt lat="44.17669" lon="1.12324">
        <ele>230.37</ele>
        <time>2018-04-27T09:20:53.000Z</time>
      </trkpt>
      <trkpt lat="44.17658" lon="1.12315">
        <ele>230.02</ele>
        <time>2018-04-27T09:21:03.000Z</time>
      </trkpt>
      <trkpt lat="44.17646" lon="1.12308">
        <ele>229.66</ele>
        <time>2018-04-27T09:21:13.000Z</time>
      </trkpt>
      <trkpt lat="44.17634" lon="1.12301">
        <ele>229.29</ele>
        <time>2018-04-27T09:21:23.000Z</time>
      </trkpt>
      <trkpt lat="44.17623" lon="1.12295">
        <ele>228.78</ele>
        <time>2018-04-27T09:21:33.000Z</time>
      </trkpt>
      <trkpt lat="44.17612" lon="1.12288">
        <ele>228</ele>
        <time>2018-04-27T09:21:43.000Z</time>
      </trkpt>
      <trkpt lat="44.17602" lon="1.1228">
        <ele>227.67</ele>
        <time>2018-04-27T09:21:53.000Z</time>
      </trkpt>
      <trkpt lat="44.17592" lon="1.1227">
        <ele>227.5</ele>
        <time>2018-04-27T09:22:03.000Z</time>
      </trkpt>
      <trkpt lat="44.17583" lon="1.12256">
        <ele>226.93</ele>
        <time>2018-04-27T09:22:13.000Z</time>
      </trkpt>
      <trkpt lat="44.17573" lon="1.12246">
        <ele>226.66</ele>
        <time>2018-04-27T09:22:23.000Z</time>
      </trkpt>
      <trkpt lat="44.17564" lon="1.12236">
        <ele>226.34</ele>
        <time>2018-04-27T09:22:33.000Z</time>
      </trkpt>
      <trkpt lat="44.17555" lon="1.12222">
        <ele>225.66</ele>
        <time>2018-04-27T09:22:43.000Z</time>
      </trkpt>
      <trkpt lat="44.17547" lon="1.1221">
        <ele>224.81</ele>
        <time>2018-04-27T09:22:53.000Z</time>
      </trkpt>
      <trkpt lat="44.17537" lon="1.12197">
        <ele>224.59</ele>
        <time>2018-04-27T09:23:03.000Z</time>
      </trkpt>
      <trkpt lat="44.17527" lon="1.12184">
        <ele>225.13</ele>
        <time>2018-04-27T09:23:13.000Z</time>
      </trkpt>
      <trkpt lat="44.17518" lon="1.12171">
        <ele>225.26</ele>
        <time>2018-04-27T09:23:23.000Z</time>
      </trkpt>
      <trkpt lat="44.1751" lon="1.12161">
        <ele>224.32</ele>
        <time>2018-04-27T09:23:33.000Z</time>
      </trkpt>
      <trkpt lat="44.17501" lon="1.1215">
        <ele>223.95</ele>
        <time>2018-04-27T09:23:43.000Z</time>
      </trkpt>
      <trkpt lat="44.17491" lon="1.12138">
        <ele>223.51</ele>
        <time>2018-04-27T09:23:53.000Z</time>
      </trkpt>
      <trkpt lat="44.17482" lon="1.12126">
        <ele>223.7</ele>
        <time>2018-04-27T09:24:03.000Z</time>
      </trkpt>
      <trkpt lat="44.17471" lon="1.12117">
        <ele>224.33</ele>
        <time>2018-04-27T09:24:13.000Z</time>
      </trkpt>
      <trkpt lat="44.17461" lon="1.12108">
        <ele>224</ele>
        <time>2018-04-27T09:24:23.000Z</time>
      </trkpt>
      <trkpt lat="44.17449" lon="1.12099">
        <ele>224.36</ele>
        <time>2018-04-27T09:24:33.000Z</time>
      </trkpt>
      <trkpt lat="44.17437" lon="1.12091">
        <ele>224.14</ele>
        <time>2018-04-27T09:24:43.000Z</time>
      </trkpt>
      <trkpt lat="44.17426" lon="1.12086">
        <ele>223.85</ele>
        <time>2018-04-27T09:24:53.000Z</time>
      </trkpt>
      <trkpt lat="44.17413" lon="1.12081">
        <ele>223.84</ele>
        <time>2018-04-27T09:25:03.000Z</time>
      </trkpt>
      <trkpt lat="44.17401" lon="1.12076">
        <ele>223.37</ele>
        <time>2018-04-27T09:25:13.000Z</time>
      </trkpt>
      <trkpt lat="44.1739" lon="1.12071">
        <ele>223.06</ele>
        <time>2018-04-27T09:25:23.000Z</time>
      </trkpt>
      <trkpt lat="44.17378" lon="1.12065">
        <ele>222.07</ele>
        <time>2018-04-27T09:25:33.000Z</time>
      </trkpt>
      <trkpt lat="44.17367" lon="1.12061">
        <ele>222.18</ele>
        <time>2018-04-27T09:25:43.000Z</time>
      </trkpt>
      <trkpt lat="44.17355" lon="1.12056">
        <ele>221.36</ele>
        <time>2018-04-27T09:25:53.000Z</time>
      </trkpt>
      <trkpt lat="44.17344" lon="1.12049">
        <ele>221.66</ele>
        <time>2018-04-27T09:26:03.000Z</time>
      </trkpt>
      <trkpt lat="44.17333" lon="1.12041">
        <ele>221.73</ele>
        <time>2018-04-27T09:26:13.000Z</time>
      </trkpt>
      <trkpt lat="44.17321" lon="1.12033">
        <ele>220.99</ele>
        <time>2018-04-27T09:26:23.000Z</time>
      </trkpt>
      <trkpt lat="44.1731" lon="1.12026">
        <ele>220.28</ele>
        <time>2018-04-27T09:26:33.000Z</time>
      </trkpt>
      <trkpt lat="44.173" lon="1.12019">
        <ele>219.53</ele>
        <time>2018-04-27T09:26:43.000Z</time>
      </trkpt>
      <trkpt lat="44.17289" lon="1.12012">
        <ele>218.09</ele>
        <time>2018-04-27T09:26:53.000Z</time>
      </trkpt>
      <trkpt lat="44.17282" lon="1.1201">
        <ele>217.49</ele>
        <time>2018-04-27T09:27:03.000Z</time>
      </trkpt>
      <trkpt lat="44.17273" lon="1.12008">
        <ele>216.43</ele>
        <time>2018-04-27T09:27:13.000Z</time>
      </trkpt>
      <trkpt lat="44.17263" lon="1.12003">
        <ele>214.58</ele>
        <time>2018-04-27T09:27:23.000Z</time>
      </trkpt>
      <trkpt lat="44.17253" lon="1.11997">
        <ele>213.38</ele>
        <time>2018-04-27T09:27:33.000Z</time>
      </trkpt>
      <trkpt lat="44.17242" lon="1.11992">
        <ele>211.35</ele>
        <time>2018-04-27T09:27:43.000Z</time>
      </trkpt>
      <trkpt lat="44.17232" lon="1.1199">
        <ele>209.59</ele>
        <time>2018-04-27T09:27:53.000Z</time>
      </trkpt>
      <trkpt lat="44.17222" lon="1.11985">
        <ele>208.42</ele>
        <time>2018-04-27T09:28:03.000Z</time>
      </trkpt>
      <trkpt lat="44.17212" lon="1.11983">
        <ele>206.5</ele>
        <time>2018-04-27T09:28:13.000Z</time>
      </trkpt>
      <trkpt lat="44.172" lon="1.1198">
        <ele>204.97</ele>
        <time>2018-04-27T09:28:23.000Z</time>
      </trkpt>
      <trkpt lat="44.17193" lon="1.11977">
        <ele>203.51</ele>
        <time>2018-04-27T09:28:33.000Z</time>
      </trkpt>
      <trkpt lat="44.17183" lon="1.11974">
        <ele>201.78</ele>
        <time>2018-04-27T09:28:43.000Z</time>
      </trkpt>
      <trkpt lat="44.17172" lon="1.11969">
        <ele>200.05</ele>
        <time>2018-04-27T09:28:53.000Z</time>
      </trkpt>
      <trkpt lat="44.17165" lon="1.1196">
        <ele>198.69</ele>
        <time>2018-04-27T09:29:03.000Z</time>
      </trkpt>
      <trkpt lat="44.17157" lon="1.11949">
        <ele>197.08</ele>
        <time>2018-04-27T09:29:13.000Z</time>
      </trkpt>
      <trkpt lat="44.1715" lon="1.11938">
        <ele>195.59</ele>
        <time>2018-04-27T09:29:23.000Z</time>
      </trkpt>
      <trkpt lat="44.17143" lon="1.11927">
        <ele>193.76</ele>
        <time>2018-04-27T09:29:33.000Z</time>
      </trkpt>
      <trkpt lat="44.17135" lon="1.11914">
        <ele>191.77</ele>
        <time>2018-04-27T09:29:43.000Z</time>
      </trkpt>
      <trkpt lat="44.17127" lon="1.11902">
        <ele>189.95</ele>
        <time>2018-04-27T09:29:53.000Z</time>
      </trkpt>
      <trkpt lat="44.1712" lon="1.11892">
        <ele>188.5</ele>
        <time>2018-04-27T09:30:03.000Z</time>
      </trkpt>
      <trkpt lat="44.17111" lon="1.11883">
        <ele>186.86</ele>
        <time>2018-04-27T09:30:13.000Z</time>
      </trkpt>
      <trkpt lat="44.17102" lon="1.11875">
        <ele>185.15</ele>
        <time>2018-04-27T09:30:23.000Z</time>
      </trkpt>
      <trkpt lat="44.17095" lon="1.11867">
        <ele>183.47</ele>
        <time>2018-04-27T09:30:33.000Z</time>
      </trkpt>
      <trkpt lat="44.17087" lon="1.11859">
        <ele>181.73</ele>
        <time>2018-04-27T09:30:43.000Z</time>
      </trkpt>
      <trkpt lat="44.17076" lon="1.11851">
        <ele>179.73</ele>
        <time>2018-04-27T09:30:53.000Z</time>
      </trkpt>
      <trkpt lat="44.17067" lon="1.11843">
        <ele>177.93</ele>
        <time>2018-04-27T09:31:03.000Z</time>
      </trkpt>
      <trkpt lat="44.17058" lon="1.11835">
        <ele>176.35</ele>
        <time>2018-04-27T09:31:13.000Z</time>
      </trkpt>
      <trkpt lat="44.17049" lon="1.11827">
        <ele>174.77</ele>
        <time>2018-04-27T09:31:23.000Z</time>
      </trkpt>
      <trkpt lat="44.17039" lon="1.11819">
        <ele>173.6</ele>
        <time>2018-04-27T09:31:33.000Z</time>
      </trkpt>
      <trkpt lat="44.17027" lon="1.1181">
        <ele>172.33</ele>
        <time>2018-04-27T09:31:43.000Z</time>
      </trkpt>
      <trkpt lat="44.17018" lon="1.118">
        <ele>170.79</ele>
        <time>2018-04-27T09:31:53.000Z</time>
      </trkpt>
      <trkpt lat="44.17006" lon="1.11791">
        <ele>169.98</ele>
        <time>2018-04-27T09:32:03.000Z</time>
      </trkpt>
      <trkpt lat="44.16994" lon="1.11784">
        <ele>168.51</ele>
        <time>2018-04-27T09:32:13.000Z</time>
      </trkpt>
      <trkpt lat="44.16982" lon="1.11782">
        <ele>167.67</ele>
        <time>2018-04-27T09:32:23.000Z</time>
      </trkpt>
      <trkpt lat="44.16971" lon="1.1178">
        <ele>167.08</ele>
        <time>2018-04-27T09:32:33.000Z</time>
      </trkpt>
      <trkpt lat="44.16963" lon="1.11781">
        <ele>166.51</ele>
        <time>2018-04-27T09:32:43.000Z</time>
      </trkpt>
      <trkpt lat="44.16961" lon="1.11784">
        <ele>165.54</ele>
        <time>2018-04-27T09:32:53.000Z</time>
      </trkpt>
      <trkpt lat="44.16955" lon="1.11782">
        <ele>165.23</ele>
        <time>2018-04-27T09:33:03.000Z</time>
      </trkpt>
      <trkpt lat="44.16945" lon="1.11774">
        <ele>165.34</ele>
        <time>2018-04-27T09:33:13.000Z</time>
      </trkpt>
      <trkpt lat="44.16936" lon="1.11768">
        <ele>165.1</ele>
        <time>2018-04-27T09:33:23.000Z</time>
      </trkpt>
      <trkpt lat="44.16924" lon="1.11767">
        <ele>164.87</ele>
        <time>2018-04-27T09:33:33.000Z</time>
      </trkpt>
      <trkpt lat="44.16916" lon="1.11777">
        <ele>164.82</ele>
        <time>2018-04-27T09:33:43.000Z</time>
      </trkpt>
      <trkpt lat="44.16912" lon="1.11789">
        <ele>164.7</ele>
        <time>2018-04-27T09:33:53.000Z</time>
      </trkpt>
      <trkpt lat="44.16906" lon="1.11792">
        <ele>164.85</ele>
        <time>2018-04-27T09:34:03.000Z</time>
      </trkpt>
      <trkpt lat="44.16896" lon="1.11788">
        <ele>164.28</ele>
        <time>2018-04-27T09:34:13.000Z</time>
      </trkpt>
      <trkpt lat="44.16885" lon="1.11784">
        <ele>164.38</ele>
        <time>2018-04-27T09:34:23.000Z</time>
      </trkpt>
      <trkpt lat="44.16876" lon="1.1178">
        <ele>164.49</ele>
        <time>2018-04-27T09:34:33.000Z</time>
      </trkpt>
      <trkpt lat="44.16864" lon="1.11776">
        <ele>164.16</ele>
        <time>2018-04-27T09:34:43.000Z</time>
      </trkpt>
      <trkpt lat="44.16852" lon="1.11773">
        <ele>164.15</ele>
        <time>2018-04-27T09:34:53.000Z</time>
      </trkpt>
      <trkpt lat="44.16839" lon="1.1177">
        <ele>164.15</ele>
        <time>2018-04-27T09:35:03.000Z</time>
      </trkpt>
      <trkpt lat="44.16827" lon="1.11765">
        <ele>163.73</ele>
        <time>2018-04-27T09:35:13.000Z</time>
      </trkpt>
      <trkpt lat="44.16816" lon="1.11762">
        <ele>164.05</ele>
        <time>2018-04-27T09:35:23.000Z</time>
      </trkpt>
      <trkpt lat="44.16805" lon="1.1176">
        <ele>163.91</ele>
        <time>2018-04-27T09:35:33.000Z</time>
      </trkpt>
      <trkpt lat="44.16795" lon="1.11761">
        <ele>164.06</ele>
        <time>2018-04-27T09:35:43.000Z</time>
      </trkpt>
      <trkpt lat="44.16784" lon="1.1176">
        <ele>163.95</ele>
        <time>2018-04-27T09:35:53.000Z</time>
      </trkpt>
      <trkpt lat="44.16774" lon="1.11763">
        <ele>163.61</ele>
        <time>2018-04-27T09:36:03.000Z</time>
      </trkpt>
      <trkpt lat="44.16765" lon="1.11774">
        <ele>163.51</ele>
        <time>2018-04-27T09:36:13.000Z</time>
      </trkpt>
      <trkpt lat="44.16756" lon="1.11784">
        <ele>164.24</ele>
        <time>2018-04-27T09:36:23.000Z</time>
      </trkpt>
      <trkpt lat="44.16746" lon="1.11787">
        <ele>164.15</ele>
        <time>2018-04-27T09:36:33.000Z</time>
      </trkpt>
      <trkpt lat="44.16735" lon="1.11792">
        <ele>164.22</ele>
        <time>2018-04-27T09:36:43.000Z</time>
      </trkpt>
      <trkpt lat="44.16725" lon="1.11795">
        <ele>164.5</ele>
        <time>2018-04-27T09:36:53.000Z</time>
      </trkpt>
      <trkpt lat="44.16712" lon="1.11799">
        <ele>164.33</ele>
        <time>2018-04-27T09:37:03.000Z</time>
      </trkpt>
      <trkpt lat="44.16702" lon="1.11801">
        <ele>164.27</ele>
        <time>2018-04-27T09:37:13.000Z</time>
      </trkpt>
      <trkpt lat="44.16689" lon="1.11801">
        <ele>164.5</ele>
        <time>2018-04-27T09:37:23.000Z</time>
      </trkpt>
      <trkpt lat="44.16676" lon="1.11801">
        <ele>165.08</ele>
        <time>2018-04-27T09:37:33.000Z</time>
      </trkpt>
      <trkpt lat="44.16667" lon="1.11799">
        <ele>164.93</ele>
        <time>2018-04-27T09:37:43.000Z</time>
      </trkpt>
      <trkpt lat="44.16661" lon="1.11799">
        <ele>164.31</ele>
        <time>2018-04-27T09:37:53.000Z</time>
      </trkpt>
      <trkpt lat="44.16654" lon="1.11795">
        <ele>163.59</ele>
        <time>2018-04-27T09:38:03.000Z</time>
      </trkpt>
      <trkpt lat="44.16644" lon="1.11789">
        <ele>163.11</ele>
        <time>2018-04-27T09:38:13.000Z</time>
      </trkpt>
      <trkpt lat="44.16632" lon="1.11781">
        <ele>163.15</ele>
        <time>2018-04-27T09:38:23.000Z</time>
      </trkpt>
      <trkpt lat="44.16624" lon="1.11773">
        <ele>163.09</ele>
        <time>2018-04-27T09:38:33.000Z</time>
      </trkpt>
      <trkpt lat="44.16616" lon="1.11762">
        <ele>162.97</ele>
        <time>2018-04-27T09:38:43.000Z</time>
      </trkpt>
      <trkpt lat="44.16606" lon="1.11751">
        <ele>163.75</ele>
        <time>2018-04-27T09:38:53.000Z</time>
      </trkpt>
      <trkpt lat="44.16604" lon="1.11738">
        <ele>163.55</ele>
        <time>2018-04-27T09:39:03.000Z</time>
      </trkpt>
      <trkpt lat="44.16603" lon="1.11725">
        <ele>162.04</ele>
        <time>2018-04-27T09:39:13.000Z</time>
      </trkpt>
      <trkpt lat="44.16601" lon="1.11713">
        <ele>161.89</ele>
        <time>2018-04-27T09:39:23.000Z</time>
      </trkpt>
      <trkpt lat="44.16599" lon="1.11697">
        <ele>161.61</ele>
        <time>2018-04-27T09:39:33.000Z</time>
      </trkpt>
      <trkpt lat="44.16595" lon="1.1168">
        <ele>161.9</ele>
        <time>2018-04-27T09:39:43.000Z</time>
      </trkpt>
      <trkpt lat="44.16585" lon="1.11673">
        <ele>161.85</ele>
        <time>2018-04-27T09:39:53.000Z</time>
      </trkpt>
      <trkpt lat="44.16576" lon="1.11671">
        <ele>161.36</ele>
        <time>2018-04-27T09:40:03.000Z</time>
      </trkpt>
      <trkpt lat="44.16563" lon="1.11673">
        <ele>160.96</ele>
        <time>2018-04-27T09:40:13.000Z</time>
      </trkpt>
      <trkpt lat="44.16551" lon="1.11671">
        <ele>161.38</ele>
        <time>2018-04-27T09:40:23.000Z</time>
      </trkpt>
      <trkpt lat="44.1654" lon="1.1167">
        <ele>161.02</ele>
        <time>2018-04-27T09:40:33.000Z</time>
      </trkpt>
      <trkpt lat="44.16527" lon="1.11668">
        <ele>160.89</ele>
        <time>2018-04-27T09:40:43.000Z</time>
      </trkpt>
      <trkpt lat="44.16517" lon="1.11664">
        <ele>160.83</ele>
        <time>2018-04-27T09:40:53.000Z</time>
      </trkpt>
      <trkpt lat="44.16508" lon="1.1166">
        <ele>160.6</ele>
        <time>2018-04-27T09:41:03.000Z</time>
      </trkpt>
      <trkpt lat="44.16498" lon="1.11652">
        <ele>160.3</ele>
        <time>2018-04-27T09:41:13.000Z</time>
      </trkpt>
      <trkpt lat="44.16492" lon="1.11645">
        <ele>159.75</ele>
        <time>2018-04-27T09:41:23.000Z</time>
      </trkpt>
      <trkpt lat="44.16483" lon="1.11641">
        <ele>159.88</ele>
        <time>2018-04-27T09:41:33.000Z</time>
      </trkpt>
      <trkpt lat="44.16474" lon="1.11636">
        <ele>160.17</ele>
        <time>2018-04-27T09:41:43.000Z</time>
      </trkpt>
      <trkpt lat="44.16462" lon="1.11633">
        <ele>159.98</ele>
        <time>2018-04-27T09:41:53.000Z</time>
      </trkpt>
      <trkpt lat="44.1645" lon="1.11631">
        <ele>159.88</ele>
        <time>2018-04-27T09:42:03.000Z</time>
      </trkpt>
      <trkpt lat="44.1644" lon="1.11632">
        <ele>160.22</ele>
        <time>2018-04-27T09:42:13.000Z</time>
      </trkpt>
      <trkpt lat="44.16429" lon="1.11629">
        <ele>160.11</ele>
        <time>2018-04-27T09:42:23.000Z</time>
      </trkpt>
      <trkpt lat="44.16419" lon="1.11628">
        <ele>160.3</ele>
        <time>2018-04-27T09:42:33.000Z</time>
      </trkpt>
      <trkpt lat="44.16409" lon="1.11628">
        <ele>160.34</ele>
        <time>2018-04-27T09:42:43.000Z</time>
      </trkpt>
      <trkpt lat="44.16399" lon="1.11626">
        <ele>160.33</ele>
        <time>2018-04-27T09:42:53.000Z</time>
      </trkpt>
      <trkpt lat="44.1639" lon="1.11618">
        <ele>160.24</ele>
        <time>2018-04-27T09:43:03.000Z</time>
      </trkpt>
      <trkpt lat="44.16381" lon="1.11611">
        <ele>160.18</ele>
        <time>2018-04-27T09:43:13.000Z</time>
      </trkpt>
      <trkpt lat="44.16373" lon="1.11608">
        <ele>160.25</ele>
        <time>2018-04-27T09:43:23.000Z</time>
      </trkpt>
      <trkpt lat="44.16363" lon="1.11604">
        <ele>160.08</ele>
        <time>2018-04-27T09:43:33.000Z</time>
      </trkpt>
      <trkpt lat="44.16351" lon="1.11602">
        <ele>160.36</ele>
        <time>2018-04-27T09:43:43.000Z</time>
      </trkpt>
      <trkpt lat="44.1634" lon="1.11602">
        <ele>160.17</ele>
        <time>2018-04-27T09:43:53.000Z</time>
      </trkpt>
      <trkpt lat="44.16329" lon="1.11599">
        <ele>160.02</ele>
        <time>2018-04-27T09:44:03.000Z</time>
      </trkpt>
      <trkpt lat="44.16318" lon="1.11596">
        <ele>159.84</ele>
        <time>2018-04-27T09:44:13.000Z</time>
      </trkpt>
      <trkpt lat="44.16306" lon="1.11593">
        <ele>159.68</ele>
        <time>2018-04-27T09:44:23.000Z</time>
      </trkpt>
      <trkpt lat="44.16295" lon="1.11593">
        <ele>159.68</ele>
        <time>2018-04-27T09:44:33.000Z</time>
      </trkpt>
      <trkpt lat="44.16284" lon="1.11593">
        <ele>159.68</ele>
        <time>2018-04-27T09:44:43.000Z</time>
      </trkpt>
      <trkpt lat="44.16273" lon="1.11593">
        <ele>159.35</ele>
        <time>2018-04-27T09:44:53.000Z</time>
      </trkpt>
      <trkpt lat="44.16263" lon="1.11591">
        <ele>159.04</ele>
        <time>2018-04-27T09:45:03.000Z</time>
      </trkpt>
      <trkpt lat="44.16255" lon="1.11593">
        <ele>159.06</ele>
        <time>2018-04-27T09:45:13.000Z</time>
      </trkpt>
      <trkpt lat="44.16247" lon="1.11596">
        <ele>159.52</ele>
        <time>2018-04-27T09:45:23.000Z</time>
      </trkpt>
      <trkpt lat="44.16237" lon="1.11597">
        <ele>158.86</ele>
        <time>2018-04-27T09:45:33.000Z</time>
      </trkpt>
      <trkpt lat="44.16229" lon="1.11596">
        <ele>158.57</ele>
        <time>2018-04-27T09:45:43.000Z</time>
      </trkpt>
      <trkpt lat="44.16227" lon="1.11596">
        <ele>158.42</ele>
        <time>2018-04-27T09:45:53.000Z</time>
      </trkpt>
      <trkpt lat="44.16225" lon="1.11595">
        <ele>158.22</ele>
        <time>2018-04-27T09:46:03.000Z</time>
      </trkpt>
      <trkpt lat="44.16215" lon="1.11596">
        <ele>157.98</ele>
        <time>2018-04-27T09:46:13.000Z</time>
      </trkpt>
      <trkpt lat="44.16203" lon="1.11601">
        <ele>158.08</ele>
        <time>2018-04-27T09:46:23.000Z</time>
      </trkpt>
      <trkpt lat="44.16191" lon="1.11603">
        <ele>158.54</ele>
        <time>2018-04-27T09:46:33.000Z</time>
      </trkpt>
      <trkpt lat="44.16178" lon="1.11603">
        <ele>158.1</ele>
        <time>2018-04-27T09:46:43.000Z</time>
      </trkpt>
      <trkpt lat="44.16168" lon="1.11605">
        <ele>157.9</ele>
        <time>2018-04-27T09:46:53.000Z</time>
      </trkpt>
      <trkpt lat="44.1616" lon="1.11603">
        <ele>157.84</ele>
        <time>2018-04-27T09:47:03.000Z</time>
      </trkpt>
      <trkpt lat="44.16148" lon="1.116">
        <ele>158.06</ele>
        <time>2018-04-27T09:47:13.000Z</time>
      </trkpt>
      <trkpt lat="44.16139" lon="1.11598">
        <ele>157.98</ele>
        <time>2018-04-27T09:47:23.000Z</time>
      </trkpt>
      <trkpt lat="44.16128" lon="1.11592">
        <ele>157.86</ele>
        <time>2018-04-27T09:47:33.000Z</time>
      </trkpt>
      <trkpt lat="44.16116" lon="1.1159">
        <ele>157.26</ele>
        <time>2018-04-27T09:47:43.000Z</time>
      </trkpt>
      <trkpt lat="44.16104" lon="1.11585">
        <ele>157.52</ele>
        <time>2018-04-27T09:47:53.000Z</time>
      </trkpt>
      <trkpt lat="44.16096" lon="1.11584">
        <ele>157.3</ele>
        <time>2018-04-27T09:48:03.000Z</time>
      </trkpt>
      <trkpt lat="44.16095" lon="1.11586">
        <ele>157.25</ele>
        <time>2018-04-27T09:48:13.000Z</time>
      </trkpt>
      <trkpt lat="44.16089" lon="1.11592">
        <ele>157.43</ele>
        <time>2018-04-27T09:48:23.000Z</time>
      </trkpt>
      <trkpt lat="44.16083" lon="1.11588">
        <ele>158.27</ele>
        <time>2018-04-27T09:48:33.000Z</time>
      </trkpt>
      <trkpt lat="44.16081" lon="1.11582">
        <ele>159.12</ele>
        <time>2018-04-27T09:48:43.000Z</time>
      </trkpt>
      <trkpt lat="44.16086" lon="1.1157">
        <ele>159.04</ele>
        <time>2018-04-27T09:48:53.000Z</time>
      </trkpt>
      <trkpt lat="44.16091" lon="1.1156">
        <ele>158.88</ele>
        <time>2018-04-27T09:49:03.000Z</time>
      </trkpt>
      <trkpt lat="44.16095" lon="1.11544">
        <ele>157.98</ele>
        <time>2018-04-27T09:49:13.000Z</time>
      </trkpt>
      <trkpt lat="44.16098" lon="1.11526">
        <ele>157.9</ele>
        <time>2018-04-27T09:49:23.000Z</time>
      </trkpt>
      <trkpt lat="44.16103" lon="1.11511">
        <ele>157.99</ele>
        <time>2018-04-27T09:49:33.000Z</time>
      </trkpt>
      <trkpt lat="44.16107" lon="1.11495">
        <ele>158.3</ele>
        <time>2018-04-27T09:49:43.000Z</time>
      </trkpt>
      <trkpt lat="44.16101" lon="1.1148">
        <ele>158.06</ele>
        <time>2018-04-27T09:49:53.000Z</time>
      </trkpt>
      <trkpt lat="44.1609" lon="1.11474">
        <ele>158.14</ele>
        <time>2018-04-27T09:50:03.000Z</time>
      </trkpt>
      <trkpt lat="44.16079" lon="1.11468">
        <ele>157.57</ele>
        <time>2018-04-27T09:50:13.000Z</time>
      </trkpt>
      <trkpt lat="44.1607" lon="1.1146">
        <ele>157.41</ele>
        <time>2018-04-27T09:50:23.000Z</time>
      </trkpt>
      <trkpt lat="44.16062" lon="1.11452">
        <ele>157.19</ele>
        <time>2018-04-27T09:50:33.000Z</time>
      </trkpt>
      <trkpt lat="44.16052" lon="1.11444">
        <ele>157.06</ele>
        <time>2018-04-27T09:50:43.000Z</time>
      </trkpt>
      <trkpt lat="44.16041" lon="1.11435">
        <ele>156.97</ele>
        <time>2018-04-27T09:50:53.000Z</time>
      </trkpt>
      <trkpt lat="44.16031" lon="1.11426">
        <ele>157.14</ele>
        <time>2018-04-27T09:51:03.000Z</time>
      </trkpt>
      <trkpt lat="44.16021" lon="1.11416">
        <ele>157.17</ele>
        <time>2018-04-27T09:51:13.000Z</time>
      </trkpt>
      <trkpt lat="44.16013" lon="1.11404">
        <ele>156.96</ele>
        <time>2018-04-27T09:51:23.000Z</time>
      </trkpt>
      <trkpt lat="44.16005" lon="1.11391">
        <ele>157.08</ele>
        <time>2018-04-27T09:51:33.000Z</time>
      </trkpt>
      <trkpt lat="44.15996" lon="1.11379">
        <ele>157.07</ele>
        <time>2018-04-27T09:51:43.000Z</time>
      </trkpt>
      <trkpt lat="44.15987" lon="1.11367">
        <ele>156.78</ele>
        <time>2018-04-27T09:51:53.000Z</time>
      </trkpt>
      <trkpt lat="44.15977" lon="1.11354">
        <ele>156.15</ele>
        <time>2018-04-27T09:52:03.000Z</time>
      </trkpt>
      <trkpt lat="44.1597" lon="1.11344">
        <ele>156.48</ele>
        <time>2018-04-27T09:52:13.000Z</time>
      </trkpt>
      <trkpt lat="44.15965" lon="1.11336">
        <ele>156.74</ele>
        <time>2018-04-27T09:52:23.000Z</time>
      </trkpt>
      <trkpt lat="44.15956" lon="1.11326">
        <ele>155.6</ele>
        <time>2018-04-27T09:52:33.000Z</time>
      </trkpt>
      <trkpt lat="44.15949" lon="1.11318">
        <ele>155.68</ele>
        <time>2018-04-27T09:52:43.000Z</time>
      </trkpt>
      <trkpt lat="44.1594" lon="1.11308">
        <ele>155.69</ele>
        <time>2018-04-27T09:52:53.000Z</time>
      </trkpt>
      <trkpt lat="44.15932" lon="1.11299">
        <ele>155.69</ele>
        <time>2018-04-27T09:53:03.000Z</time>
      </trkpt>
      <trkpt lat="44.15923" lon="1.1129">
        <ele>155.76</ele>
        <time>2018-04-27T09:53:13.000Z</time>
      </trkpt>
      <trkpt lat="44.15915" lon="1.11281">
        <ele>155.78</ele>
        <time>2018-04-27T09:53:23.000Z</time>
      </trkpt>
      <trkpt lat="44.15906" lon="1.11271">
        <ele>155.97</ele>
        <time>2018-04-27T09:53:33.000Z</time>
      </trkpt>
      <trkpt lat="44.15897" lon="1.11262">
        <ele>155.8</ele>
        <time>2018-04-27T09:53:43.000Z</time>
      </trkpt>
      <trkpt lat="44.15889" lon="1.11254">
        <ele>155.63</ele>
        <time>2018-04-27T09:53:53.000Z</time>
      </trkpt>
      <trkpt lat="44.1588" lon="1.11245">
        <ele>155.61</ele>
        <time>2018-04-27T09:54:03.000Z</time>
      </trkpt>
      <trkpt lat="44.15869" lon="1.11235">
        <ele>155.31</ele>
        <time>2018-04-27T09:54:13.000Z</time>
      </trkpt>
      <trkpt lat="44.15858" lon="1.11226">
        <ele>155.55</ele>
        <time>2018-04-27T09:54:23.000Z</time>
      </trkpt>
      <trkpt lat="44.15849" lon="1.11218">
        <ele>156.26</ele>
        <time>2018-04-27T09:54:33.000Z</time>
      </trkpt>
      <trkpt lat="44.15839" lon="1.11217">
        <ele>156.4</ele>
        <time>2018-04-27T09:54:43.000Z</time>
      </trkpt>
      <trkpt lat="44.15831" lon="1.11228">
        <ele>156.01</ele>
        <time>2018-04-27T09:54:53.000Z</time>
      </trkpt>
      <trkpt lat="44.15826" lon="1.11241">
        <ele>155.4</ele>
        <time>2018-04-27T09:55:03.000Z</time>
      </trkpt>
      <trkpt lat="44.15821" lon="1.11254">
        <ele>154.77</ele>
        <time>2018-04-27T09:55:13.000Z</time>
      </trkpt>
      <trkpt lat="44.15815" lon="1.11269">
        <ele>155.05</ele>
        <time>2018-04-27T09:55:23.000Z</time>
      </trkpt>
      <trkpt lat="44.1581" lon="1.11284">
        <ele>155.08</ele>
        <time>2018-04-27T09:55:33.000Z</time>
      </trkpt>
      <trkpt lat="44.15806" lon="1.113">
        <ele>155.43</ele>
        <time>2018-04-27T09:55:43.000Z</time>
      </trkpt>
      <trkpt lat="44.15803" lon="1.11316">
        <ele>155.51</ele>
        <time>2018-04-27T09:55:53.000Z</time>
      </trkpt>
      <trkpt lat="44.15799" lon="1.1133">
        <ele>156.33</ele>
        <time>2018-04-27T09:56:03.000Z</time>
      </trkpt>
      <trkpt lat="44.15792" lon="1.11339">
        <ele>156.29</ele>
        <time>2018-04-27T09:56:13.000Z</time>
      </trkpt>
      <trkpt lat="44.1578" lon="1.11342">
        <ele>156.64</ele>
        <time>2018-04-27T09:56:23.000Z</time>
      </trkpt>
      <trkpt lat="44.15769" lon="1.11346">
        <ele>157.04</ele>
        <time>2018-04-27T09:56:33.000Z</time>
      </trkpt>
      <trkpt lat="44.15758" lon="1.11349">
        <ele>157.06</ele>
        <time>2018-04-27T09:56:43.000Z</time>
      </trkpt>
      <trkpt lat="44.15746" lon="1.11352">
        <ele>156.21</ele>
        <time>2018-04-27T09:56:53.000Z</time>
      </trkpt>
      <trkpt lat="44.15735" lon="1.11354">
        <ele>155.5</ele>
        <time>2018-04-27T09:57:03.000Z</time>
      </trkpt>
      <trkpt lat="44.15722" lon="1.11355">
        <ele>155.28</ele>
        <time>2018-04-27T09:57:13.000Z</time>
      </trkpt>
      <trkpt lat="44.15711" lon="1.11356">
        <ele>155.1</ele>
        <time>2018-04-27T09:57:23.000Z</time>
      </trkpt>
      <trkpt lat="44.15699" lon="1.11357">
        <ele>155.36</ele>
        <time>2018-04-27T09:57:33.000Z</time>
      </trkpt>
      <trkpt lat="44.15686" lon="1.11355">
        <ele>155.79</ele>
        <time>2018-04-27T09:57:43.000Z</time>
      </trkpt>
      <trkpt lat="44.15674" lon="1.11353">
        <ele>155.43</ele>
        <time>2018-04-27T09:57:53.000Z</time>
      </trkpt>
      <trkpt lat="44.15664" lon="1.11354">
        <ele>155.12</ele>
        <time>2018-04-27T09:58:03.000Z</time>
      </trkpt>
      <trkpt lat="44.15653" lon="1.11352">
        <ele>154.62</ele>
        <time>2018-04-27T09:58:13.000Z</time>
      </trkpt>
      <trkpt lat="44.15641" lon="1.11351">
        <ele>154.82</ele>
        <time>2018-04-27T09:58:23.000Z</time>
      </trkpt>
      <trkpt lat="44.15631" lon="1.11351">
        <ele>154.17</ele>
        <time>2018-04-27T09:58:33.000Z</time>
      </trkpt>
      <trkpt lat="44.1562" lon="1.1135">
        <ele>154.27</ele>
        <time>2018-04-27T09:58:43.000Z</time>
      </trkpt>
      <trkpt lat="44.15609" lon="1.1135">
        <ele>153.78</ele>
        <time>2018-04-27T09:58:53.000Z</time>
      </trkpt>
      <trkpt lat="44.15598" lon="1.11349">
        <ele>153.75</ele>
        <time>2018-04-27T09:59:03.000Z</time>
      </trkpt>
      <trkpt lat="44.15587" lon="1.11348">
        <ele>153.59</ele>
        <time>2018-04-27T09:59:13.000Z</time>
      </trkpt>
      <trkpt lat="44.15575" lon="1.11345">
        <ele>153.59</ele>
        <time>2018-04-27T09:59:23.000Z</time>
      </trkpt>
      <trkpt lat="44.15565" lon="1.1135">
        <ele>154.05</ele>
        <time>2018-04-27T09:59:33.000Z</time>
      </trkpt>
      <trkpt lat="44.15555" lon="1.11357">
        <ele>154.12</ele>
        <time>2018-04-27T09:59:43.000Z</time>
      </trkpt>
      <trkpt lat="44.15544" lon="1.11365">
        <ele>154.38</ele>
        <time>2018-04-27T09:59:53.000Z</time>
      </trkpt>
      <trkpt lat="44.15533" lon="1.11371">
        <ele>155</ele>
        <time>2018-04-27T10:00:03.000Z</time>
      </trkpt>
      <trkpt lat="44.15522" lon="1.11374">
        <ele>154.28</ele>
        <time>2018-04-27T10:00:13.000Z</time>
      </trkpt>
      <trkpt lat="44.15512" lon="1.11375">
        <ele>154.03</ele>
        <time>2018-04-27T10:00:23.000Z</time>
      </trkpt>
      <trkpt lat="44.15501" lon="1.11375">
        <ele>154.33</ele>
        <time>2018-04-27T10:00:33.000Z</time>
      </trkpt>
      <trkpt lat="44.15492" lon="1.11375">
        <ele>154.6</ele>
        <time>2018-04-27T10:00:43.000Z</time>
      </trkpt>
      <trkpt lat="44.15481" lon="1.11374">
        <ele>154.65</ele>
        <time>2018-04-27T10:00:53.000Z</time>
      </trkpt>
      <trkpt lat="44.15471" lon="1.11371">
        <ele>154.57</ele>
        <time>2018-04-27T10:01:03.000Z</time>
      </trkpt>
      <trkpt lat="44.1546" lon="1.11369">
        <ele>154.67</ele>
        <time>2018-04-27T10:01:13.000Z</time>
      </trkpt>
      <trkpt lat="44.1545" lon="1.11366">
        <ele>154.92</ele>
        <time>2018-04-27T10:01:23.000Z</time>
      </trkpt>
      <trkpt lat="44.1544" lon="1.11361">
        <ele>155.51</ele>
        <time>2018-04-27T10:01:33.000Z</time>
      </trkpt>
      <trkpt lat="44.15429" lon="1.11357">
        <ele>156.02</ele>
        <time>2018-04-27T10:01:43.000Z</time>
      </trkpt>
      <trkpt lat="44.15421" lon="1.11354">
        <ele>156.1</ele>
        <time>2018-04-27T10:01:53.000Z</time>
      </trkpt>
      <trkpt lat="44.1541" lon="1.11351">
        <ele>156.65</ele>
        <time>2018-04-27T10:02:03.000Z</time>
      </trkpt>
      <trkpt lat="44.15401" lon="1.1135">
        <ele>156.78</ele>
        <time>2018-04-27T10:02:13.000Z</time>
      </trkpt>
      <trkpt lat="44.154" lon="1.11357">
        <ele>158.74</ele>
        <time>2018-04-27T10:02:23.000Z</time>
      </trkpt>
      <trkpt lat="44.15403" lon="1.11368">
        <ele>159.91</ele>
        <time>2018-04-27T10:02:33.000Z</time>
      </trkpt>
      <trkpt lat="44.15405" lon="1.11378">
        <ele>161.17</ele>
        <time>2018-04-27T10:02:43.000Z</time>
      </trkpt>
      <trkpt lat="44.15408" lon="1.11389">
        <ele>163.04</ele>
        <time>2018-04-27T10:02:53.000Z</time>
      </trkpt>
      <trkpt lat="44.1541" lon="1.11401">
        <ele>164.54</ele>
        <time>2018-04-27T10:03:03.000Z</time>
      </trkpt>
      <trkpt lat="44.15412" lon="1.1141">
        <ele>165.38</ele>
        <time>2018-04-27T10:03:13.000Z</time>
      </trkpt>
      <trkpt lat="44.15412" lon="1.11417">
        <ele>166</ele>
        <time>2018-04-27T10:03:23.000Z</time>
      </trkpt>
      <trkpt lat="44.15413" lon="1.11421">
        <ele>165.82</ele>
        <time>2018-04-27T10:03:33.000Z</time>
      </trkpt>
      <trkpt lat="44.15416" lon="1.11431">
        <ele>167.46</ele>
        <time>2018-04-27T10:03:43.000Z</time>
      </trkpt>
      <trkpt lat="44.15418" lon="1.11444">
        <ele>168.55</ele>
        <time>2018-04-27T10:03:53.000Z</time>
      </trkpt>
      <trkpt lat="44.15421" lon="1.11458">
        <ele>169.19</ele>
        <time>2018-04-27T10:04:03.000Z</time>
      </trkpt>
      <trkpt lat="44.15422" lon="1.11471">
        <ele>170.16</ele>
        <time>2018-04-27T10:04:13.000Z</time>
      </trkpt>
      <trkpt lat="44.15425" lon="1.11482">
        <ele>171.31</ele>
        <time>2018-04-27T10:04:23.000Z</time>
      </trkpt>
      <trkpt lat="44.15428" lon="1.11495">
        <ele>171.85</ele>
        <time>2018-04-27T10:04:33.000Z</time>
      </trkpt>
      <trkpt lat="44.15428" lon="1.11507">
        <ele>173.32</ele>
        <time>2018-04-27T10:04:43.000Z</time>
      </trkpt>
      <trkpt lat="44.15429" lon="1.11518">
        <ele>174.1</ele>
        <time>2018-04-27T10:04:53.000Z</time>
      </trkpt>
      <trkpt lat="44.15431" lon="1.1153">
        <ele>174.86</ele>
        <time>2018-04-27T10:05:03.000Z</time>
      </trkpt>
      <trkpt lat="44.15432" lon="1.11544">
        <ele>175.36</ele>
        <time>2018-04-27T10:05:13.000Z</time>
      </trkpt>
      <trkpt lat="44.15431" lon="1.11559">
        <ele>176.12</ele>
        <time>2018-04-27T10:05:23.000Z</time>
      </trkpt>
      <trkpt lat="44.15431" lon="1.11573">
        <ele>176.85</ele>
        <time>2018-04-27T10:05:33.000Z</time>
      </trkpt>
      <trkpt lat="44.15429" lon="1.11586">
        <ele>177.59</ele>
        <time>2018-04-27T10:05:43.000Z</time>
      </trkpt>
      <trkpt lat="44.15427" lon="1.11599">
        <ele>178.79</ele>
        <time>2018-04-27T10:05:53.000Z</time>
      </trkpt>
      <trkpt lat="44.15424" lon="1.1161">
        <ele>179.23</ele>
        <time>2018-04-27T10:06:03.000Z</time>
      </trkpt>
      <trkpt lat="44.15419" lon="1.11619">
        <ele>179.85</ele>
        <time>2018-04-27T10:06:13.000Z</time>
      </trkpt>
      <trkpt lat="44.15415" lon="1.11629">
        <ele>181.09</ele>
        <time>2018-04-27T10:06:23.000Z</time>
      </trkpt>
      <trkpt lat="44.15411" lon="1.1164">
        <ele>182.02</ele>
        <time>2018-04-27T10:06:33.000Z</time>
      </trkpt>
      <trkpt lat="44.15405" lon="1.1165">
        <ele>183.11</ele>
        <time>2018-04-27T10:06:43.000Z</time>
      </trkpt>
      <trkpt lat="44.15398" lon="1.1166">
        <ele>184.02</ele>
        <time>2018-04-27T10:06:53.000Z</time>
      </trkpt>
      <trkpt lat="44.15391" lon="1.11671">
        <ele>184.54</ele>
        <time>2018-04-27T10:07:03.000Z</time>
      </trkpt>
      <trkpt lat="44.15384" lon="1.11681">
        <ele>185.83</ele>
        <time>2018-04-27T10:07:13.000Z</time>
      </trkpt>
      <trkpt lat="44.15379" lon="1.11695">
        <ele>185.97</ele>
        <time>2018-04-27T10:07:23.000Z</time>
      </trkpt>
      <trkpt lat="44.15376" lon="1.11708">
        <ele>187</ele>
        <time>2018-04-27T10:07:33.000Z</time>
      </trkpt>
      <trkpt lat="44.15372" lon="1.1172">
        <ele>188.58</ele>
        <time>2018-04-27T10:07:43.000Z</time>
      </trkpt>
      <trkpt lat="44.15371" lon="1.1173">
        <ele>190</ele>
        <time>2018-04-27T10:07:53.000Z</time>
      </trkpt>
      <trkpt lat="44.1537" lon="1.11739">
        <ele>191.3</ele>
        <time>2018-04-27T10:08:03.000Z</time>
      </trkpt>
      <trkpt lat="44.15366" lon="1.11744">
        <ele>192.6</ele>
        <time>2018-04-27T10:08:13.000Z</time>
      </trkpt>
      <trkpt lat="44.15366" lon="1.11751">
        <ele>193.62</ele>
        <time>2018-04-27T10:08:23.000Z</time>
      </trkpt>
      <trkpt lat="44.15364" lon="1.11758">
        <ele>194.62</ele>
        <time>2018-04-27T10:08:33.000Z</time>
      </trkpt>
      <trkpt lat="44.1536" lon="1.11767">
        <ele>196.01</ele>
        <time>2018-04-27T10:08:43.000Z</time>
      </trkpt>
      <trkpt lat="44.15359" lon="1.11775">
        <ele>197.52</ele>
        <time>2018-04-27T10:08:53.000Z</time>
      </trkpt>
      <trkpt lat="44.15356" lon="1.11784">
        <ele>198.24</ele>
        <time>2018-04-27T10:09:03.000Z</time>
      </trkpt>
      <trkpt lat="44.15355" lon="1.1179">
        <ele>200.16</ele>
        <time>2018-04-27T10:09:13.000Z</time>
      </trkpt>
      <trkpt lat="44.15352" lon="1.11797">
        <ele>201.85</ele>
        <time>2018-04-27T10:09:23.000Z</time>
      </trkpt>
      <trkpt lat="44.15349" lon="1.11805">
        <ele>203.21</ele>
        <time>2018-04-27T10:09:33.000Z</time>
      </trkpt>
      <trkpt lat="44.15347" lon="1.11813">
        <ele>204.71</ele>
        <time>2018-04-27T10:09:43.000Z</time>
      </trkpt>
      <trkpt lat="44.15345" lon="1.1182">
        <ele>206.1</ele>
        <time>2018-04-27T10:09:53.000Z</time>
      </trkpt>
      <trkpt lat="44.15342" lon="1.1183">
        <ele>207.52</ele>
        <time>2018-04-27T10:10:03.000Z</time>
      </trkpt>
      <trkpt lat="44.15342" lon="1.11838">
        <ele>208.53</ele>
        <time>2018-04-27T10:10:13.000Z</time>
      </trkpt>
      <trkpt lat="44.15341" lon="1.11849">
        <ele>209.95</ele>
        <time>2018-04-27T10:10:23.000Z</time>
      </trkpt>
      <trkpt lat="44.1534" lon="1.11859">
        <ele>211.05</ele>
        <time>2018-04-27T10:10:33.000Z</time>
      </trkpt>
      <trkpt lat="44.15342" lon="1.1187">
        <ele>212.56</ele>
        <time>2018-04-27T10:10:43.000Z</time>
      </trkpt>
      <trkpt lat="44.15343" lon="1.11878">
        <ele>214.23</ele>
        <time>2018-04-27T10:10:53.000Z</time>
      </trkpt>
      <trkpt lat="44.15343" lon="1.11886">
        <ele>215.65</ele>
        <time>2018-04-27T10:11:03.000Z</time>
      </trkpt>
      <trkpt lat="44.15343" lon="1.11888">
        <ele>216.32</ele>
        <time>2018-04-27T10:11:13.000Z</time>
      </trkpt>
      <trkpt lat="44.15346" lon="1.11888">
        <ele>216.21</ele>
        <time>2018-04-27T10:11:23.000Z</time>
      </trkpt>
      <trkpt lat="44.15346" lon="1.11889">
        <ele>216.11</ele>
        <time>2018-04-27T10:11:54.000Z</time>
      </trkpt>
      <trkpt lat="44.15345" lon="1.1189">
        <ele>216.21</ele>
        <time>2018-04-27T10:12:04.000Z</time>
      </trkpt>
      <trkpt lat="44.15344" lon="1.1189">
        <ele>215.87</ele>
        <time>2018-04-27T10:12:49.000Z</time>
      </trkpt>
      <trkpt lat="44.15343" lon="1.1189">
        <ele>215.39</ele>
        <time>2018-04-27T10:13:50.000Z</time>
      </trkpt>
      <trkpt lat="44.15342" lon="1.11889">
        <ele>215.63</ele>
        <time>2018-04-27T10:14:06.000Z</time>
      </trkpt>
      <trkpt lat="44.15341" lon="1.1189">
        <ele>215.94</ele>
        <time>2018-04-27T10:14:54.000Z</time>
      </trkpt>
      <trkpt lat="44.15336" lon="1.11894">
        <ele>215.85</ele>
        <time>2018-04-27T10:15:04.000Z</time>
      </trkpt>
      <trkpt lat="44.1533" lon="1.119">
        <ele>215.77</ele>
        <time>2018-04-27T10:15:14.000Z</time>
      </trkpt>
      <trkpt lat="44.15321" lon="1.11908">
        <ele>216.04</ele>
        <time>2018-04-27T10:15:24.000Z</time>
      </trkpt>
      <trkpt lat="44.15312" lon="1.11918">
        <ele>216.67</ele>
        <time>2018-04-27T10:15:34.000Z</time>
      </trkpt>
      <trkpt lat="44.15302" lon="1.11926">
        <ele>216.89</ele>
        <time>2018-04-27T10:15:44.000Z</time>
      </trkpt>
      <trkpt lat="44.15292" lon="1.11934">
        <ele>217.27</ele>
        <time>2018-04-27T10:15:54.000Z</time>
      </trkpt>
      <trkpt lat="44.15282" lon="1.11941">
        <ele>217.69</ele>
        <time>2018-04-27T10:16:04.000Z</time>
      </trkpt>
      <trkpt lat="44.15273" lon="1.11947">
        <ele>218</ele>
        <time>2018-04-27T10:16:14.000Z</time>
      </trkpt>
      <trkpt lat="44.15263" lon="1.11953">
        <ele>218.49</ele>
        <time>2018-04-27T10:16:24.000Z</time>
      </trkpt>
      <trkpt lat="44.15253" lon="1.11959">
        <ele>218.96</ele>
        <time>2018-04-27T10:16:34.000Z</time>
      </trkpt>
      <trkpt lat="44.15244" lon="1.11965">
        <ele>219.5</ele>
        <time>2018-04-27T10:16:44.000Z</time>
      </trkpt>
      <trkpt lat="44.15234" lon="1.11973">
        <ele>220.36</ele>
        <time>2018-04-27T10:16:54.000Z</time>
      </trkpt>
      <trkpt lat="44.15225" lon="1.1198">
        <ele>220.15</ele>
        <time>2018-04-27T10:17:04.000Z</time>
      </trkpt>
      <trkpt lat="44.15216" lon="1.11988">
        <ele>221.1</ele>
        <time>2018-04-27T10:17:14.000Z</time>
      </trkpt>
      <trkpt lat="44.15209" lon="1.11998">
        <ele>221.53</ele>
        <time>2018-04-27T10:17:24.000Z</time>
      </trkpt>
      <trkpt lat="44.15204" lon="1.12008">
        <ele>222.48</ele>
        <time>2018-04-27T10:17:34.000Z</time>
      </trkpt>
      <trkpt lat="44.15199" lon="1.1202">
        <ele>223.74</ele>
        <time>2018-04-27T10:17:44.000Z</time>
      </trkpt>
      <trkpt lat="44.15192" lon="1.1203">
        <ele>225.14</ele>
        <time>2018-04-27T10:17:54.000Z</time>
      </trkpt>
      <trkpt lat="44.15182" lon="1.12037">
        <ele>225.8</ele>
        <time>2018-04-27T10:18:04.000Z</time>
      </trkpt>
      <trkpt lat="44.15174" lon="1.12041">
        <ele>226.49</ele>
        <time>2018-04-27T10:18:14.000Z</time>
      </trkpt>
      <trkpt lat="44.15165" lon="1.12044">
        <ele>227.17</ele>
        <time>2018-04-27T10:18:24.000Z</time>
      </trkpt>
      <trkpt lat="44.15154" lon="1.12051">
        <ele>227.23</ele>
        <time>2018-04-27T10:18:34.000Z</time>
      </trkpt>
      <trkpt lat="44.15143" lon="1.12061">
        <ele>227.26</ele>
        <time>2018-04-27T10:18:44.000Z</time>
      </trkpt>
      <trkpt lat="44.15137" lon="1.12073">
        <ele>227.34</ele>
        <time>2018-04-27T10:18:54.000Z</time>
      </trkpt>
      <trkpt lat="44.15129" lon="1.12086">
        <ele>227.68</ele>
        <time>2018-04-27T10:19:04.000Z</time>
      </trkpt>
      <trkpt lat="44.15123" lon="1.12098">
        <ele>228.29</ele>
        <time>2018-04-27T10:19:14.000Z</time>
      </trkpt>
      <trkpt lat="44.15117" lon="1.1211">
        <ele>228.82</ele>
        <time>2018-04-27T10:19:24.000Z</time>
      </trkpt>
      <trkpt lat="44.15112" lon="1.12122">
        <ele>229.11</ele>
        <time>2018-04-27T10:19:34.000Z</time>
      </trkpt>
      <trkpt lat="44.15105" lon="1.12135">
        <ele>229.98</ele>
        <time>2018-04-27T10:19:44.000Z</time>
      </trkpt>
      <trkpt lat="44.15098" lon="1.12145">
        <ele>230.69</ele>
        <time>2018-04-27T10:19:54.000Z</time>
      </trkpt>
      <trkpt lat="44.15095" lon="1.12145">
        <ele>231.2</ele>
        <time>2018-04-27T10:20:04.000Z</time>
      </trkpt>
      <trkpt lat="44.15098" lon="1.12136">
        <ele>230.72</ele>
        <time>2018-04-27T10:20:14.000Z</time>
      </trkpt>
      <trkpt lat="44.15102" lon="1.12123">
        <ele>230.04</ele>
        <time>2018-04-27T10:20:24.000Z</time>
      </trkpt>
      <trkpt lat="44.15107" lon="1.12107">
        <ele>230.29</ele>
        <time>2018-04-27T10:20:34.000Z</time>
      </trkpt>
      <trkpt lat="44.15113" lon="1.12093">
        <ele>230.33</ele>
        <time>2018-04-27T10:20:44.000Z</time>
      </trkpt>
      <trkpt lat="44.15119" lon="1.12079">
        <ele>230.19</ele>
        <time>2018-04-27T10:20:54.000Z</time>
      </trkpt>
      <trkpt lat="44.15125" lon="1.12064">
        <ele>230.26</ele>
        <time>2018-04-27T10:21:04.000Z</time>
      </trkpt>
      <trkpt lat="44.15132" lon="1.12048">
        <ele>229.93</ele>
        <time>2018-04-27T10:21:14.000Z</time>
      </trkpt>
      <trkpt lat="44.15133" lon="1.12035">
        <ele>229.74</ele>
        <time>2018-04-27T10:21:24.000Z</time>
      </trkpt>
      <trkpt lat="44.15133" lon="1.12022">
        <ele>229.98</ele>
        <time>2018-04-27T10:21:34.000Z</time>
      </trkpt>
      <trkpt lat="44.15133" lon="1.12006">
        <ele>229.88</ele>
        <time>2018-04-27T10:21:44.000Z</time>
      </trkpt>
      <trkpt lat="44.15133" lon="1.11988">
        <ele>229.66</ele>
        <time>2018-04-27T10:21:54.000Z</time>
      </trkpt>
      <trkpt lat="44.15131" lon="1.11973">
        <ele>229.16</ele>
        <time>2018-04-27T10:22:04.000Z</time>
      </trkpt>
      <trkpt lat="44.15129" lon="1.11957">
        <ele>229.07</ele>
        <time>2018-04-27T10:22:14.000Z</time>
      </trkpt>
      <trkpt lat="44.15129" lon="1.11941">
        <ele>228.97</ele>
        <time>2018-04-27T10:22:24.000Z</time>
      </trkpt>
      <trkpt lat="44.15128" lon="1.11925">
        <ele>228.83</ele>
        <time>2018-04-27T10:22:34.000Z</time>
      </trkpt>
      <trkpt lat="44.15129" lon="1.1191">
        <ele>228.51</ele>
        <time>2018-04-27T10:22:44.000Z</time>
      </trkpt>
      <trkpt lat="44.15128" lon="1.11894">
        <ele>228.6</ele>
        <time>2018-04-27T10:22:54.000Z</time>
      </trkpt>
      <trkpt lat="44.15127" lon="1.11876">
        <ele>228.37</ele>
        <time>2018-04-27T10:23:04.000Z</time>
      </trkpt>
      <trkpt lat="44.15128" lon="1.11859">
        <ele>227.49</ele>
        <time>2018-04-27T10:23:14.000Z</time>
      </trkpt>
      <trkpt lat="44.15129" lon="1.11843">
        <ele>227.48</ele>
        <time>2018-04-27T10:23:24.000Z</time>
      </trkpt>
      <trkpt lat="44.15129" lon="1.11827">
        <ele>227.11</ele>
        <time>2018-04-27T10:23:34.000Z</time>
      </trkpt>
      <trkpt lat="44.15127" lon="1.11814">
        <ele>227.1</ele>
        <time>2018-04-27T10:23:44.000Z</time>
      </trkpt>
      <trkpt lat="44.15126" lon="1.11796">
        <ele>226.87</ele>
        <time>2018-04-27T10:23:54.000Z</time>
      </trkpt>
      <trkpt lat="44.15124" lon="1.11779">
        <ele>226.33</ele>
        <time>2018-04-27T10:24:04.000Z</time>
      </trkpt>
      <trkpt lat="44.15121" lon="1.11764">
        <ele>226.26</ele>
        <time>2018-04-27T10:24:14.000Z</time>
      </trkpt>
      <trkpt lat="44.15116" lon="1.11747">
        <ele>225.25</ele>
        <time>2018-04-27T10:24:24.000Z</time>
      </trkpt>
      <trkpt lat="44.15114" lon="1.11732">
        <ele>224.6</ele>
        <time>2018-04-27T10:24:34.000Z</time>
      </trkpt>
      <trkpt lat="44.1511" lon="1.11717">
        <ele>223.92</ele>
        <time>2018-04-27T10:24:44.000Z</time>
      </trkpt>
      <trkpt lat="44.15106" lon="1.11702">
        <ele>223.72</ele>
        <time>2018-04-27T10:24:54.000Z</time>
      </trkpt>
      <trkpt lat="44.15101" lon="1.11686">
        <ele>222.44</ele>
        <time>2018-04-27T10:25:04.000Z</time>
      </trkpt>
      <trkpt lat="44.15095" lon="1.11671">
        <ele>221.98</ele>
        <time>2018-04-27T10:25:14.000Z</time>
      </trkpt>
      <trkpt lat="44.15092" lon="1.11658">
        <ele>221.3</ele>
        <time>2018-04-27T10:25:24.000Z</time>
      </trkpt>
      <trkpt lat="44.15087" lon="1.11643">
        <ele>219.98</ele>
        <time>2018-04-27T10:25:34.000Z</time>
      </trkpt>
      <trkpt lat="44.15082" lon="1.1163">
        <ele>219.21</ele>
        <time>2018-04-27T10:25:44.000Z</time>
      </trkpt>
      <trkpt lat="44.15078" lon="1.11612">
        <ele>219.13</ele>
        <time>2018-04-27T10:25:55.000Z</time>
      </trkpt>
      <trkpt lat="44.15077" lon="1.1161">
        <ele>218.97</ele>
        <time>2018-04-27T10:26:05.000Z</time>
      </trkpt>
      <trkpt lat="44.15073" lon="1.116">
        <ele>217.79</ele>
        <time>2018-04-27T10:26:15.000Z</time>
      </trkpt>
      <trkpt lat="44.15072" lon="1.11591">
        <ele>217.74</ele>
        <time>2018-04-27T10:26:25.000Z</time>
      </trkpt>
      <trkpt lat="44.15069" lon="1.11578">
        <ele>216.86</ele>
        <time>2018-04-27T10:26:35.000Z</time>
      </trkpt>
      <trkpt lat="44.15066" lon="1.11563">
        <ele>216.31</ele>
        <time>2018-04-27T10:26:45.000Z</time>
      </trkpt>
      <trkpt lat="44.15059" lon="1.1155">
        <ele>215.64</ele>
        <time>2018-04-27T10:26:55.000Z</time>
      </trkpt>
      <trkpt lat="44.15055" lon="1.11541">
        <ele>215.82</ele>
        <time>2018-04-27T10:27:05.000Z</time>
      </trkpt>
      <trkpt lat="44.1505" lon="1.11529">
        <ele>215.36</ele>
        <time>2018-04-27T10:27:15.000Z</time>
      </trkpt>
      <trkpt lat="44.15046" lon="1.11515">
        <ele>214.57</ele>
        <time>2018-04-27T10:27:25.000Z</time>
      </trkpt>
      <trkpt lat="44.15042" lon="1.11499">
        <ele>213.22</ele>
        <time>2018-04-27T10:27:35.000Z</time>
      </trkpt>
      <trkpt lat="44.15037" lon="1.11485">
        <ele>212.03</ele>
        <time>2018-04-27T10:27:45.000Z</time>
      </trkpt>
      <trkpt lat="44.1503" lon="1.11474">
        <ele>211.2</ele>
        <time>2018-04-27T10:27:55.000Z</time>
      </trkpt>
      <trkpt lat="44.15023" lon="1.11462">
        <ele>210.45</ele>
        <time>2018-04-27T10:28:05.000Z</time>
      </trkpt>
      <trkpt lat="44.15015" lon="1.11449">
        <ele>209.47</ele>
        <time>2018-04-27T10:28:15.000Z</time>
      </trkpt>
      <trkpt lat="44.15006" lon="1.1144">
        <ele>209.28</ele>
        <time>2018-04-27T10:28:25.000Z</time>
      </trkpt>
      <trkpt lat="44.14996" lon="1.11433">
        <ele>208.44</ele>
        <time>2018-04-27T10:28:35.000Z</time>
      </trkpt>
      <trkpt lat="44.14986" lon="1.11426">
        <ele>207.67</ele>
        <time>2018-04-27T10:28:45.000Z</time>
      </trkpt>
      <trkpt lat="44.14976" lon="1.11419">
        <ele>206.7</ele>
        <time>2018-04-27T10:28:55.000Z</time>
      </trkpt>
      <trkpt lat="44.14966" lon="1.11411">
        <ele>205.88</ele>
        <time>2018-04-27T10:29:05.000Z</time>
      </trkpt>
      <trkpt lat="44.14956" lon="1.11405">
        <ele>205.41</ele>
        <time>2018-04-27T10:29:15.000Z</time>
      </trkpt>
      <trkpt lat="44.14946" lon="1.11399">
        <ele>204.64</ele>
        <time>2018-04-27T10:29:25.000Z</time>
      </trkpt>
      <trkpt lat="44.14937" lon="1.1139">
        <ele>203.86</ele>
        <time>2018-04-27T10:29:35.000Z</time>
      </trkpt>
      <trkpt lat="44.14926" lon="1.11383">
        <ele>203.32</ele>
        <time>2018-04-27T10:29:45.000Z</time>
      </trkpt>
      <trkpt lat="44.14916" lon="1.11375">
        <ele>202.52</ele>
        <time>2018-04-27T10:29:55.000Z</time>
      </trkpt>
      <trkpt lat="44.14906" lon="1.11368">
        <ele>201.88</ele>
        <time>2018-04-27T10:30:05.000Z</time>
      </trkpt>
      <trkpt lat="44.14894" lon="1.1136">
        <ele>201.1</ele>
        <time>2018-04-27T10:30:15.000Z</time>
      </trkpt>
      <trkpt lat="44.14884" lon="1.11353">
        <ele>200.09</ele>
        <time>2018-04-27T10:30:25.000Z</time>
      </trkpt>
      <trkpt lat="44.14872" lon="1.11348">
        <ele>199.39</ele>
        <time>2018-04-27T10:30:35.000Z</time>
      </trkpt>
      <trkpt lat="44.1486" lon="1.11342">
        <ele>198.67</ele>
        <time>2018-04-27T10:30:45.000Z</time>
      </trkpt>
      <trkpt lat="44.14849" lon="1.1134">
        <ele>197.87</ele>
        <time>2018-04-27T10:30:55.000Z</time>
      </trkpt>
      <trkpt lat="44.14836" lon="1.11339">
        <ele>197.37</ele>
        <time>2018-04-27T10:31:05.000Z</time>
      </trkpt>
      <trkpt lat="44.14824" lon="1.11338">
        <ele>196.61</ele>
        <time>2018-04-27T10:31:15.000Z</time>
      </trkpt>
      <trkpt lat="44.14812" lon="1.11338">
        <ele>195.93</ele>
        <time>2018-04-27T10:31:25.000Z</time>
      </trkpt>
      <trkpt lat="44.14801" lon="1.1134">
        <ele>194.73</ele>
        <time>2018-04-27T10:31:35.000Z</time>
      </trkpt>
      <trkpt lat="44.14789" lon="1.1134">
        <ele>194.2</ele>
        <time>2018-04-27T10:31:45.000Z</time>
      </trkpt>
      <trkpt lat="44.14778" lon="1.11341">
        <ele>193.12</ele>
        <time>2018-04-27T10:31:55.000Z</time>
      </trkpt>
      <trkpt lat="44.14767" lon="1.11342">
        <ele>192.27</ele>
        <time>2018-04-27T10:32:05.000Z</time>
      </trkpt>
      <trkpt lat="44.14755" lon="1.11342">
        <ele>191.61</ele>
        <time>2018-04-27T10:32:15.000Z</time>
      </trkpt>
      <trkpt lat="44.14744" lon="1.11343">
        <ele>191.12</ele>
        <time>2018-04-27T10:32:25.000Z</time>
      </trkpt>
      <trkpt lat="44.14732" lon="1.11343">
        <ele>191.3</ele>
        <time>2018-04-27T10:32:35.000Z</time>
      </trkpt>
      <trkpt lat="44.14719" lon="1.11342">
        <ele>190.62</ele>
        <time>2018-04-27T10:32:45.000Z</time>
      </trkpt>
      <trkpt lat="44.14708" lon="1.11341">
        <ele>190.42</ele>
        <time>2018-04-27T10:32:55.000Z</time>
      </trkpt>
      <trkpt lat="44.14696" lon="1.11339">
        <ele>190.32</ele>
        <time>2018-04-27T10:33:05.000Z</time>
      </trkpt>
      <trkpt lat="44.14684" lon="1.11338">
        <ele>190.49</ele>
        <time>2018-04-27T10:33:15.000Z</time>
      </trkpt>
      <trkpt lat="44.14673" lon="1.11336">
        <ele>191.04</ele>
        <time>2018-04-27T10:33:25.000Z</time>
      </trkpt>
      <trkpt lat="44.14663" lon="1.11333">
        <ele>191.3</ele>
        <time>2018-04-27T10:33:35.000Z</time>
      </trkpt>
      <trkpt lat="44.14653" lon="1.1133">
        <ele>191.94</ele>
        <time>2018-04-27T10:33:45.000Z</time>
      </trkpt>
      <trkpt lat="44.14645" lon="1.11324">
        <ele>192.37</ele>
        <time>2018-04-27T10:33:55.000Z</time>
      </trkpt>
      <trkpt lat="44.14633" lon="1.1132">
        <ele>192.61</ele>
        <time>2018-04-27T10:34:05.000Z</time>
      </trkpt>
      <trkpt lat="44.14622" lon="1.11314">
        <ele>192.98</ele>
        <time>2018-04-27T10:34:15.000Z</time>
      </trkpt>
      <trkpt lat="44.14611" lon="1.11309">
        <ele>193.1</ele>
        <time>2018-04-27T10:34:25.000Z</time>
      </trkpt>
      <trkpt lat="44.14601" lon="1.11304">
        <ele>193.41</ele>
        <time>2018-04-27T10:34:35.000Z</time>
      </trkpt>
      <trkpt lat="44.14591" lon="1.11299">
        <ele>193.75</ele>
        <time>2018-04-27T10:34:45.000Z</time>
      </trkpt>
      <trkpt lat="44.14581" lon="1.11295">
        <ele>194.04</ele>
        <time>2018-04-27T10:34:55.000Z</time>
      </trkpt>
      <trkpt lat="44.1457" lon="1.11289">
        <ele>194.43</ele>
        <time>2018-04-27T10:35:05.000Z</time>
      </trkpt>
      <trkpt lat="44.14559" lon="1.11284">
        <ele>194.41</ele>
        <time>2018-04-27T10:35:15.000Z</time>
      </trkpt>
      <trkpt lat="44.14549" lon="1.11277">
        <ele>195.12</ele>
        <time>2018-04-27T10:35:25.000Z</time>
      </trkpt>
      <trkpt lat="44.14537" lon="1.11271">
        <ele>195.02</ele>
        <time>2018-04-27T10:35:35.000Z</time>
      </trkpt>
      <trkpt lat="44.14527" lon="1.11264">
        <ele>195.26</ele>
        <time>2018-04-27T10:35:45.000Z</time>
      </trkpt>
      <trkpt lat="44.14517" lon="1.11258">
        <ele>196.22</ele>
        <time>2018-04-27T10:35:55.000Z</time>
      </trkpt>
      <trkpt lat="44.14506" lon="1.11254">
        <ele>197.04</ele>
        <time>2018-04-27T10:36:05.000Z</time>
      </trkpt>
      <trkpt lat="44.14494" lon="1.1125">
        <ele>197.53</ele>
        <time>2018-04-27T10:36:15.000Z</time>
      </trkpt>
      <trkpt lat="44.14484" lon="1.11246">
        <ele>197.64</ele>
        <time>2018-04-27T10:36:25.000Z</time>
      </trkpt>
      <trkpt lat="44.14475" lon="1.11243">
        <ele>198.32</ele>
        <time>2018-04-27T10:36:35.000Z</time>
      </trkpt>
      <trkpt lat="44.14463" lon="1.11243">
        <ele>198.45</ele>
        <time>2018-04-27T10:36:45.000Z</time>
      </trkpt>
      <trkpt lat="44.14452" lon="1.11242">
        <ele>199.1</ele>
        <time>2018-04-27T10:36:55.000Z</time>
      </trkpt>
      <trkpt lat="44.14441" lon="1.1124">
        <ele>199.72</ele>
        <time>2018-04-27T10:37:05.000Z</time>
      </trkpt>
      <trkpt lat="44.14431" lon="1.11238">
        <ele>199.81</ele>
        <time>2018-04-27T10:37:15.000Z</time>
      </trkpt>
      <trkpt lat="44.14419" lon="1.11236">
        <ele>200.45</ele>
        <time>2018-04-27T10:37:25.000Z</time>
      </trkpt>
      <trkpt lat="44.14408" lon="1.11232">
        <ele>200.14</ele>
        <time>2018-04-27T10:37:35.000Z</time>
      </trkpt>
      <trkpt lat="44.14395" lon="1.11227">
        <ele>200.3</ele>
        <time>2018-04-27T10:37:45.000Z</time>
      </trkpt>
      <trkpt lat="44.14384" lon="1.11223">
        <ele>200.54</ele>
        <time>2018-04-27T10:37:55.000Z</time>
      </trkpt>
      <trkpt lat="44.14373" lon="1.11221">
        <ele>200.8</ele>
        <time>2018-04-27T10:38:05.000Z</time>
      </trkpt>
      <trkpt lat="44.14362" lon="1.11218">
        <ele>200.83</ele>
        <time>2018-04-27T10:38:15.000Z</time>
      </trkpt>
      <trkpt lat="44.14351" lon="1.11214">
        <ele>200.47</ele>
        <time>2018-04-27T10:38:25.000Z</time>
      </trkpt>
      <trkpt lat="44.14339" lon="1.1121">
        <ele>200.63</ele>
        <time>2018-04-27T10:38:35.000Z</time>
      </trkpt>
      <trkpt lat="44.14326" lon="1.11207">
        <ele>200.87</ele>
        <time>2018-04-27T10:38:45.000Z</time>
      </trkpt>
      <trkpt lat="44.14316" lon="1.11201">
        <ele>201</ele>
        <time>2018-04-27T10:38:55.000Z</time>
      </trkpt>
      <trkpt lat="44.14305" lon="1.11197">
        <ele>200.86</ele>
        <time>2018-04-27T10:39:05.000Z</time>
      </trkpt>
      <trkpt lat="44.14293" lon="1.11193">
        <ele>201.08</ele>
        <time>2018-04-27T10:39:15.000Z</time>
      </trkpt>
      <trkpt lat="44.14282" lon="1.11189">
        <ele>200.8</ele>
        <time>2018-04-27T10:39:25.000Z</time>
      </trkpt>
      <trkpt lat="44.14271" lon="1.11183">
        <ele>200.53</ele>
        <time>2018-04-27T10:39:35.000Z</time>
      </trkpt>
      <trkpt lat="44.1426" lon="1.11179">
        <ele>200.34</ele>
        <time>2018-04-27T10:39:45.000Z</time>
      </trkpt>
      <trkpt lat="44.14251" lon="1.11179">
        <ele>199.92</ele>
        <time>2018-04-27T10:39:55.000Z</time>
      </trkpt>
      <trkpt lat="44.1425" lon="1.11178">
        <ele>200.2</ele>
        <time>2018-04-27T10:40:05.000Z</time>
      </trkpt>
      <trkpt lat="44.1424" lon="1.11173">
        <ele>200.33</ele>
        <time>2018-04-27T10:40:15.000Z</time>
      </trkpt>
      <trkpt lat="44.14229" lon="1.11169">
        <ele>199.7</ele>
        <time>2018-04-27T10:40:25.000Z</time>
      </trkpt>
      <trkpt lat="44.14218" lon="1.11166">
        <ele>199.82</ele>
        <time>2018-04-27T10:40:35.000Z</time>
      </trkpt>
      <trkpt lat="44.14206" lon="1.11162">
        <ele>199.63</ele>
        <time>2018-04-27T10:40:45.000Z</time>
      </trkpt>
      <trkpt lat="44.14194" lon="1.11159">
        <ele>199.24</ele>
        <time>2018-04-27T10:40:55.000Z</time>
      </trkpt>
      <trkpt lat="44.14182" lon="1.11158">
        <ele>199.76</ele>
        <time>2018-04-27T10:41:05.000Z</time>
      </trkpt>
      <trkpt lat="44.1417" lon="1.11157">
        <ele>199.38</ele>
        <time>2018-04-27T10:41:15.000Z</time>
      </trkpt>
      <trkpt lat="44.14157" lon="1.11156">
        <ele>199.37</ele>
        <time>2018-04-27T10:41:25.000Z</time>
      </trkpt>
      <trkpt lat="44.14144" lon="1.11156">
        <ele>198.95</ele>
        <time>2018-04-27T10:41:35.000Z</time>
      </trkpt>
      <trkpt lat="44.14132" lon="1.11157">
        <ele>198.41</ele>
        <time>2018-04-27T10:41:45.000Z</time>
      </trkpt>
      <trkpt lat="44.14122" lon="1.11158">
        <ele>198.1</ele>
        <time>2018-04-27T10:41:55.000Z</time>
      </trkpt>
      <trkpt lat="44.14113" lon="1.1116">
        <ele>198.29</ele>
        <time>2018-04-27T10:42:05.000Z</time>
      </trkpt>
      <trkpt lat="44.14106" lon="1.11161">
        <ele>198.18</ele>
        <time>2018-04-27T10:42:15.000Z</time>
      </trkpt>
      <trkpt lat="44.14093" lon="1.11162">
        <ele>198.46</ele>
        <time>2018-04-27T10:42:25.000Z</time>
      </trkpt>
      <trkpt lat="44.14081" lon="1.11163">
        <ele>198.18</ele>
        <time>2018-04-27T10:42:35.000Z</time>
      </trkpt>
      <trkpt lat="44.1407" lon="1.11165">
        <ele>198.61</ele>
        <time>2018-04-27T10:42:45.000Z</time>
      </trkpt>
      <trkpt lat="44.14058" lon="1.11167">
        <ele>198.51</ele>
        <time>2018-04-27T10:42:55.000Z</time>
      </trkpt>
      <trkpt lat="44.14047" lon="1.1117">
        <ele>198.49</ele>
        <time>2018-04-27T10:43:05.000Z</time>
      </trkpt>
      <trkpt lat="44.14034" lon="1.11171">
        <ele>198.36</ele>
        <time>2018-04-27T10:43:15.000Z</time>
      </trkpt>
      <trkpt lat="44.14024" lon="1.11174">
        <ele>198.4</ele>
        <time>2018-04-27T10:43:25.000Z</time>
      </trkpt>
      <trkpt lat="44.14011" lon="1.11174">
        <ele>198.02</ele>
        <time>2018-04-27T10:43:35.000Z</time>
      </trkpt>
      <trkpt lat="44.13999" lon="1.11176">
        <ele>198.08</ele>
        <time>2018-04-27T10:43:45.000Z</time>
      </trkpt>
      <trkpt lat="44.13987" lon="1.11177">
        <ele>198.47</ele>
        <time>2018-04-27T10:43:55.000Z</time>
      </trkpt>
      <trkpt lat="44.13976" lon="1.11178">
        <ele>198.63</ele>
        <time>2018-04-27T10:44:05.000Z</time>
      </trkpt>
      <trkpt lat="44.13963" lon="1.11178">
        <ele>198.74</ele>
        <time>2018-04-27T10:44:15.000Z</time>
      </trkpt>
      <trkpt lat="44.1395" lon="1.11177">
        <ele>198.66</ele>
        <time>2018-04-27T10:44:25.000Z</time>
      </trkpt>
      <trkpt lat="44.13939" lon="1.11175">
        <ele>198.27</ele>
        <time>2018-04-27T10:44:35.000Z</time>
      </trkpt>
      <trkpt lat="44.13924" lon="1.11172">
        <ele>198.89</ele>
        <time>2018-04-27T10:44:47.000Z</time>
      </trkpt>
      <trkpt lat="44.13912" lon="1.11167">
        <ele>199.21</ele>
        <time>2018-04-27T10:44:57.000Z</time>
      </trkpt>
      <trkpt lat="44.139" lon="1.11164">
        <ele>198.72</ele>
        <time>2018-04-27T10:45:07.000Z</time>
      </trkpt>
      <trkpt lat="44.13889" lon="1.11161">
        <ele>198.89</ele>
        <time>2018-04-27T10:45:17.000Z</time>
      </trkpt>
      <trkpt lat="44.13878" lon="1.11159">
        <ele>198.21</ele>
        <time>2018-04-27T10:45:27.000Z</time>
      </trkpt>
      <trkpt lat="44.13867" lon="1.11157">
        <ele>198.33</ele>
        <time>2018-04-27T10:45:37.000Z</time>
      </trkpt>
      <trkpt lat="44.13857" lon="1.11152">
        <ele>198.65</ele>
        <time>2018-04-27T10:45:47.000Z</time>
      </trkpt>
      <trkpt lat="44.13845" lon="1.11148">
        <ele>198.5</ele>
        <time>2018-04-27T10:45:57.000Z</time>
      </trkpt>
      <trkpt lat="44.13832" lon="1.11143">
        <ele>198.22</ele>
        <time>2018-04-27T10:46:07.000Z</time>
      </trkpt>
      <trkpt lat="44.13821" lon="1.11139">
        <ele>198.71</ele>
        <time>2018-04-27T10:46:17.000Z</time>
      </trkpt>
      <trkpt lat="44.1381" lon="1.11134">
        <ele>198.25</ele>
        <time>2018-04-27T10:46:27.000Z</time>
      </trkpt>
      <trkpt lat="44.13798" lon="1.11131">
        <ele>198.57</ele>
        <time>2018-04-27T10:46:37.000Z</time>
      </trkpt>
      <trkpt lat="44.13786" lon="1.11125">
        <ele>198.51</ele>
        <time>2018-04-27T10:46:47.000Z</time>
      </trkpt>
      <trkpt lat="44.13774" lon="1.11122">
        <ele>198.34</ele>
        <time>2018-04-27T10:46:57.000Z</time>
      </trkpt>
      <trkpt lat="44.13762" lon="1.11119">
        <ele>198.04</ele>
        <time>2018-04-27T10:47:07.000Z</time>
      </trkpt>
      <trkpt lat="44.13749" lon="1.11117">
        <ele>197.98</ele>
        <time>2018-04-27T10:47:17.000Z</time>
      </trkpt>
      <trkpt lat="44.13737" lon="1.11115">
        <ele>197.93</ele>
        <time>2018-04-27T10:47:27.000Z</time>
      </trkpt>
      <trkpt lat="44.13725" lon="1.11114">
        <ele>197.49</ele>
        <time>2018-04-27T10:47:37.000Z</time>
      </trkpt>
      <trkpt lat="44.13714" lon="1.1111">
        <ele>197.43</ele>
        <time>2018-04-27T10:47:47.000Z</time>
      </trkpt>
      <trkpt lat="44.13712" lon="1.11109">
        <ele>197.47</ele>
        <time>2018-04-27T10:47:57.000Z</time>
      </trkpt>
      <trkpt lat="44.13711" lon="1.11107">
        <ele>197</ele>
        <time>2018-04-27T10:48:07.000Z</time>
      </trkpt>
      <trkpt lat="44.13709" lon="1.11096">
        <ele>197.91</ele>
        <time>2018-04-27T10:48:17.000Z</time>
      </trkpt>
      <trkpt lat="44.13714" lon="1.11083">
        <ele>198.01</ele>
        <time>2018-04-27T10:48:27.000Z</time>
      </trkpt>
      <trkpt lat="44.13723" lon="1.11076">
        <ele>198.94</ele>
        <time>2018-04-27T10:48:37.000Z</time>
      </trkpt>
      <trkpt lat="44.13732" lon="1.11064">
        <ele>199.28</ele>
        <time>2018-04-27T10:48:47.000Z</time>
      </trkpt>
      <trkpt lat="44.13738" lon="1.11053">
        <ele>198.66</ele>
        <time>2018-04-27T10:48:57.000Z</time>
      </trkpt>
      <trkpt lat="44.13745" lon="1.11051">
        <ele>198.69</ele>
        <time>2018-04-27T10:49:07.000Z</time>
      </trkpt>
      <trkpt lat="44.13755" lon="1.11049">
        <ele>199.24</ele>
        <time>2018-04-27T10:49:17.000Z</time>
      </trkpt>
      <trkpt lat="44.13765" lon="1.11053">
        <ele>201.33</ele>
        <time>2018-04-27T10:49:27.000Z</time>
      </trkpt>
      <trkpt lat="44.13774" lon="1.11054">
        <ele>200.95</ele>
        <time>2018-04-27T10:49:37.000Z</time>
      </trkpt>
      <trkpt lat="44.13778" lon="1.11059">
        <ele>201.35</ele>
        <time>2018-04-27T10:49:47.000Z</time>
      </trkpt>
      <trkpt lat="44.13777" lon="1.11062">
        <ele>201.28</ele>
        <time>2018-04-27T10:49:57.000Z</time>
      </trkpt>
      <trkpt lat="44.13778" lon="1.11061">
        <ele>202.03</ele>
        <time>2018-04-27T10:50:13.000Z</time>
      </trkpt>
      <trkpt lat="44.13777" lon="1.11062">
        <ele>202.39</ele>
        <time>2018-04-27T10:50:30.000Z</time>
      </trkpt>
      <trkpt lat="44.13777" lon="1.11061">
        <ele>201.76</ele>
        <time>2018-04-27T10:51:34.000Z</time>
      </trkpt>
      <trkpt lat="44.13776" lon="1.11061">
        <ele>202.05</ele>
        <time>2018-04-27T10:52:18.000Z</time>
      </trkpt>
      <trkpt lat="44.13771" lon="1.11061">
        <ele>202.02</ele>
        <time>2018-04-27T10:52:28.000Z</time>
      </trkpt>
      <trkpt lat="44.13772" lon="1.11061">
        <ele>201.42</ele>
        <time>2018-04-27T10:52:54.000Z</time>
      </trkpt>
      <trkpt lat="44.13774" lon="1.11061">
        <ele>201.72</ele>
        <time>2018-04-27T10:53:04.000Z</time>
      </trkpt>
      <trkpt lat="44.13775" lon="1.11061">
        <ele>201.95</ele>
        <time>2018-04-27T10:53:35.000Z</time>
      </trkpt>
      <trkpt lat="44.13776" lon="1.11061">
        <ele>201.75</ele>
        <time>2018-04-27T10:53:45.000Z</time>
      </trkpt>
      <trkpt lat="44.13777" lon="1.1106">
        <ele>201.21</ele>
        <time>2018-04-27T10:53:57.000Z</time>
      </trkpt>
      <trkpt lat="44.13777" lon="1.11054">
        <ele>201.12</ele>
        <time>2018-04-27T10:54:07.000Z</time>
      </trkpt>
      <trkpt lat="44.13777" lon="1.11053">
        <ele>201.59</ele>
        <time>2018-04-27T10:54:18.000Z</time>
      </trkpt>
      <trkpt lat="44.13778" lon="1.11053">
        <ele>201.66</ele>
        <time>2018-04-27T10:54:28.000Z</time>
      </trkpt>
      <trkpt lat="44.13779" lon="1.11053">
        <ele>201.49</ele>
        <time>2018-04-27T10:54:38.000Z</time>
      </trkpt>
      <trkpt lat="44.1378" lon="1.11052">
        <ele>201.1</ele>
        <time>2018-04-27T10:54:48.000Z</time>
      </trkpt>
      <trkpt lat="44.13781" lon="1.11052">
        <ele>200.85</ele>
        <time>2018-04-27T10:56:13.000Z</time>
      </trkpt>
      <trkpt lat="44.1378" lon="1.11053">
        <ele>201.22</ele>
        <time>2018-04-27T10:57:41.000Z</time>
      </trkpt>
      <trkpt lat="44.13779" lon="1.11054">
        <ele>200.37</ele>
        <time>2018-04-27T10:59:58.000Z</time>
      </trkpt>
      <trkpt lat="44.1378" lon="1.11055">
        <ele>200.48</ele>
        <time>2018-04-27T11:04:08.000Z</time>
      </trkpt>
      <trkpt lat="44.13781" lon="1.11056">
        <ele>201.34</ele>
        <time>2018-04-27T11:12:31.000Z</time>
      </trkpt>
      <trkpt lat="44.13781" lon="1.11057">
        <ele>201.46</ele>
        <time>2018-04-27T11:19:50.000Z</time>
      </trkpt>
      <trkpt lat="44.13781" lon="1.11056">
        <ele>200.95</ele>
        <time>2018-04-27T11:21:49.000Z</time>
      </trkpt>
      <trkpt lat="44.1378" lon="1.11055">
        <ele>201.11</ele>
        <time>2018-04-27T11:23:54.000Z</time>
      </trkpt>
      <trkpt lat="44.13779" lon="1.11055">
        <ele>201.6</ele>
        <time>2018-04-27T11:24:31.000Z</time>
      </trkpt>
      <trkpt lat="44.13773" lon="1.11057">
        <ele>201.45</ele>
        <time>2018-04-27T11:24:41.000Z</time>
      </trkpt>
      <trkpt lat="44.1377" lon="1.11058">
        <ele>201.76</ele>
        <time>2018-04-27T11:24:51.000Z</time>
      </trkpt>
      <trkpt lat="44.13771" lon="1.11059">
        <ele>201.42</ele>
        <time>2018-04-27T11:25:02.000Z</time>
      </trkpt>
      <trkpt lat="44.13777" lon="1.11059">
        <ele>201.65</ele>
        <time>2018-04-27T11:25:12.000Z</time>
      </trkpt>
      <trkpt lat="44.13778" lon="1.11058">
        <ele>201.15</ele>
        <time>2018-04-27T11:25:22.000Z</time>
      </trkpt>
      <trkpt lat="44.13778" lon="1.11056">
        <ele>200.96</ele>
        <time>2018-04-27T11:26:59.000Z</time>
      </trkpt>
      <trkpt lat="44.13778" lon="1.11055">
        <ele>200.73</ele>
        <time>2018-04-27T11:27:16.000Z</time>
      </trkpt>
      <trkpt lat="44.13778" lon="1.11059">
        <ele>200.52</ele>
        <time>2018-04-27T11:27:26.000Z</time>
      </trkpt>
      <trkpt lat="44.13779" lon="1.11055">
        <ele>200.43</ele>
        <time>2018-04-27T11:27:36.000Z</time>
      </trkpt>
      <trkpt lat="44.13779" lon="1.11053">
        <ele>200.91</ele>
        <time>2018-04-27T11:28:07.000Z</time>
      </trkpt>
      <trkpt lat="44.13778" lon="1.11053">
        <ele>200.85</ele>
        <time>2018-04-27T11:28:44.000Z</time>
      </trkpt>
      <trkpt lat="44.13777" lon="1.11052">
        <ele>199.73</ele>
        <time>2018-04-27T11:38:54.000Z</time>
      </trkpt>
      <trkpt lat="44.13778" lon="1.11054">
        <ele>200.01</ele>
        <time>2018-04-27T11:40:01.000Z</time>
      </trkpt>
      <trkpt lat="44.13778" lon="1.11056">
        <ele>200</ele>
        <time>2018-04-27T11:40:42.000Z</time>
      </trkpt>
      <trkpt lat="44.13779" lon="1.11058">
        <ele>200.8</ele>
        <time>2018-04-27T11:40:52.000Z</time>
      </trkpt>
      <trkpt lat="44.13778" lon="1.11058">
        <ele>200.98</ele>
        <time>2018-04-27T11:41:14.000Z</time>
      </trkpt>
      <trkpt lat="44.13772" lon="1.11054">
        <ele>200.4</ele>
        <time>2018-04-27T11:41:24.000Z</time>
      </trkpt>
      <trkpt lat="44.13766" lon="1.11054">
        <ele>199.77</ele>
        <time>2018-04-27T11:41:34.000Z</time>
      </trkpt>
      <trkpt lat="44.13758" lon="1.11054">
        <ele>198.64</ele>
        <time>2018-04-27T11:41:44.000Z</time>
      </trkpt>
      <trkpt lat="44.13748" lon="1.11054">
        <ele>198.36</ele>
        <time>2018-04-27T11:41:54.000Z</time>
      </trkpt>
      <trkpt lat="44.13742" lon="1.11055">
        <ele>197.52</ele>
        <time>2018-04-27T11:42:04.000Z</time>
      </trkpt>
      <trkpt lat="44.13735" lon="1.11063">
        <ele>197.59</ele>
        <time>2018-04-27T11:42:14.000Z</time>
      </trkpt>
      <trkpt lat="44.13729" lon="1.11075">
        <ele>197.76</ele>
        <time>2018-04-27T11:42:24.000Z</time>
      </trkpt>
      <trkpt lat="44.13722" lon="1.11082">
        <ele>197.19</ele>
        <time>2018-04-27T11:42:34.000Z</time>
      </trkpt>
      <trkpt lat="44.13713" lon="1.11087">
        <ele>196.5</ele>
        <time>2018-04-27T11:42:44.000Z</time>
      </trkpt>
      <trkpt lat="44.13708" lon="1.11098">
        <ele>196.47</ele>
        <time>2018-04-27T11:42:54.000Z</time>
      </trkpt>
      <trkpt lat="44.13705" lon="1.11113">
        <ele>195.69</ele>
        <time>2018-04-27T11:43:04.000Z</time>
      </trkpt>
      <trkpt lat="44.13695" lon="1.11117">
        <ele>195.75</ele>
        <time>2018-04-27T11:43:14.000Z</time>
      </trkpt>
      <trkpt lat="44.13685" lon="1.11117">
        <ele>195.75</ele>
        <time>2018-04-27T11:43:24.000Z</time>
      </trkpt>
      <trkpt lat="44.13674" lon="1.11119">
        <ele>195.04</ele>
        <time>2018-04-27T11:43:34.000Z</time>
      </trkpt>
      <trkpt lat="44.13663" lon="1.11121">
        <ele>195.83</ele>
        <time>2018-04-27T11:43:44.000Z</time>
      </trkpt>
      <trkpt lat="44.13653" lon="1.11121">
        <ele>196.06</ele>
        <time>2018-04-27T11:43:54.000Z</time>
      </trkpt>
      <trkpt lat="44.13642" lon="1.11125">
        <ele>195.89</ele>
        <time>2018-04-27T11:44:04.000Z</time>
      </trkpt>
      <trkpt lat="44.13631" lon="1.11128">
        <ele>195.76</ele>
        <time>2018-04-27T11:44:14.000Z</time>
      </trkpt>
      <trkpt lat="44.1362" lon="1.11132">
        <ele>196.1</ele>
        <time>2018-04-27T11:44:24.000Z</time>
      </trkpt>
      <trkpt lat="44.1361" lon="1.11135">
        <ele>195.96</ele>
        <time>2018-04-27T11:44:34.000Z</time>
      </trkpt>
      <trkpt lat="44.13599" lon="1.11137">
        <ele>196.17</ele>
        <time>2018-04-27T11:44:44.000Z</time>
      </trkpt>
      <trkpt lat="44.13591" lon="1.11136">
        <ele>196.52</ele>
        <time>2018-04-27T11:44:54.000Z</time>
      </trkpt>
      <trkpt lat="44.1358" lon="1.1114">
        <ele>196.39</ele>
        <time>2018-04-27T11:45:04.000Z</time>
      </trkpt>
      <trkpt lat="44.13568" lon="1.11143">
        <ele>196.81</ele>
        <time>2018-04-27T11:45:14.000Z</time>
      </trkpt>
      <trkpt lat="44.13556" lon="1.11146">
        <ele>196.44</ele>
        <time>2018-04-27T11:45:24.000Z</time>
      </trkpt>
      <trkpt lat="44.13546" lon="1.11147">
        <ele>195.86</ele>
        <time>2018-04-27T11:45:34.000Z</time>
      </trkpt>
      <trkpt lat="44.13536" lon="1.11149">
        <ele>195.89</ele>
        <time>2018-04-27T11:45:44.000Z</time>
      </trkpt>
      <trkpt lat="44.13526" lon="1.11152">
        <ele>196.33</ele>
        <time>2018-04-27T11:45:54.000Z</time>
      </trkpt>
      <trkpt lat="44.13516" lon="1.11151">
        <ele>196.55</ele>
        <time>2018-04-27T11:46:04.000Z</time>
      </trkpt>
      <trkpt lat="44.13503" lon="1.11153">
        <ele>196.43</ele>
        <time>2018-04-27T11:46:14.000Z</time>
      </trkpt>
      <trkpt lat="44.13492" lon="1.11154">
        <ele>196.3</ele>
        <time>2018-04-27T11:46:24.000Z</time>
      </trkpt>
      <trkpt lat="44.13481" lon="1.11152">
        <ele>196.04</ele>
        <time>2018-04-27T11:46:34.000Z</time>
      </trkpt>
      <trkpt lat="44.13469" lon="1.11152">
        <ele>196</ele>
        <time>2018-04-27T11:46:44.000Z</time>
      </trkpt>
      <trkpt lat="44.13458" lon="1.11148">
        <ele>195.68</ele>
        <time>2018-04-27T11:46:54.000Z</time>
      </trkpt>
      <trkpt lat="44.13448" lon="1.11142">
        <ele>195.65</ele>
        <time>2018-04-27T11:47:04.000Z</time>
      </trkpt>
      <trkpt lat="44.13437" lon="1.11136">
        <ele>196.2</ele>
        <time>2018-04-27T11:47:14.000Z</time>
      </trkpt>
      <trkpt lat="44.13427" lon="1.1113">
        <ele>195.82</ele>
        <time>2018-04-27T11:47:24.000Z</time>
      </trkpt>
      <trkpt lat="44.13416" lon="1.11124">
        <ele>196.1</ele>
        <time>2018-04-27T11:47:34.000Z</time>
      </trkpt>
      <trkpt lat="44.13407" lon="1.11117">
        <ele>195.61</ele>
        <time>2018-04-27T11:47:44.000Z</time>
      </trkpt>
      <trkpt lat="44.13396" lon="1.11111">
        <ele>195.61</ele>
        <time>2018-04-27T11:47:54.000Z</time>
      </trkpt>
      <trkpt lat="44.13386" lon="1.11104">
        <ele>195.84</ele>
        <time>2018-04-27T11:48:04.000Z</time>
      </trkpt>
      <trkpt lat="44.13376" lon="1.11097">
        <ele>195.42</ele>
        <time>2018-04-27T11:48:14.000Z</time>
      </trkpt>
      <trkpt lat="44.13366" lon="1.11091">
        <ele>194.9</ele>
        <time>2018-04-27T11:48:24.000Z</time>
      </trkpt>
      <trkpt lat="44.13356" lon="1.11088">
        <ele>194.02</ele>
        <time>2018-04-27T11:48:34.000Z</time>
      </trkpt>
      <trkpt lat="44.13344" lon="1.11085">
        <ele>193.24</ele>
        <time>2018-04-27T11:48:44.000Z</time>
      </trkpt>
      <trkpt lat="44.13334" lon="1.11083">
        <ele>192.17</ele>
        <time>2018-04-27T11:48:54.000Z</time>
      </trkpt>
      <trkpt lat="44.13323" lon="1.11083">
        <ele>190.44</ele>
        <time>2018-04-27T11:49:04.000Z</time>
      </trkpt>
      <trkpt lat="44.13313" lon="1.11084">
        <ele>189.13</ele>
        <time>2018-04-27T11:49:14.000Z</time>
      </trkpt>
      <trkpt lat="44.13302" lon="1.11086">
        <ele>188.14</ele>
        <time>2018-04-27T11:49:24.000Z</time>
      </trkpt>
      <trkpt lat="44.13291" lon="1.11087">
        <ele>187.19</ele>
        <time>2018-04-27T11:49:34.000Z</time>
      </trkpt>
      <trkpt lat="44.13281" lon="1.11087">
        <ele>186.3</ele>
        <time>2018-04-27T11:49:44.000Z</time>
      </trkpt>
      <trkpt lat="44.13271" lon="1.11085">
        <ele>184.57</ele>
        <time>2018-04-27T11:49:54.000Z</time>
      </trkpt>
      <trkpt lat="44.13261" lon="1.11084">
        <ele>183.57</ele>
        <time>2018-04-27T11:50:04.000Z</time>
      </trkpt>
      <trkpt lat="44.1325" lon="1.11083">
        <ele>182.44</ele>
        <time>2018-04-27T11:50:14.000Z</time>
      </trkpt>
      <trkpt lat="44.13239" lon="1.11082">
        <ele>181.73</ele>
        <time>2018-04-27T11:50:24.000Z</time>
      </trkpt>
      <trkpt lat="44.13229" lon="1.1108">
        <ele>180.99</ele>
        <time>2018-04-27T11:50:34.000Z</time>
      </trkpt>
      <trkpt lat="44.1322" lon="1.11079">
        <ele>180.21</ele>
        <time>2018-04-27T11:50:44.000Z</time>
      </trkpt>
      <trkpt lat="44.13213" lon="1.11077">
        <ele>179.73</ele>
        <time>2018-04-27T11:50:54.000Z</time>
      </trkpt>
      <trkpt lat="44.13201" lon="1.11074">
        <ele>179.71</ele>
        <time>2018-04-27T11:51:04.000Z</time>
      </trkpt>
      <trkpt lat="44.1319" lon="1.11073">
        <ele>180.37</ele>
        <time>2018-04-27T11:51:14.000Z</time>
      </trkpt>
      <trkpt lat="44.13181" lon="1.11074">
        <ele>180.98</ele>
        <time>2018-04-27T11:51:24.000Z</time>
      </trkpt>
      <trkpt lat="44.13172" lon="1.11073">
        <ele>181.73</ele>
        <time>2018-04-27T11:51:34.000Z</time>
      </trkpt>
      <trkpt lat="44.13161" lon="1.1107">
        <ele>183.37</ele>
        <time>2018-04-27T11:51:44.000Z</time>
      </trkpt>
      <trkpt lat="44.13153" lon="1.11067">
        <ele>184.14</ele>
        <time>2018-04-27T11:51:54.000Z</time>
      </trkpt>
      <trkpt lat="44.13144" lon="1.11064">
        <ele>184.94</ele>
        <time>2018-04-27T11:52:04.000Z</time>
      </trkpt>
      <trkpt lat="44.13135" lon="1.11061">
        <ele>186.29</ele>
        <time>2018-04-27T11:52:14.000Z</time>
      </trkpt>
      <trkpt lat="44.13126" lon="1.11058">
        <ele>187.45</ele>
        <time>2018-04-27T11:52:24.000Z</time>
      </trkpt>
      <trkpt lat="44.13118" lon="1.11056">
        <ele>188.41</ele>
        <time>2018-04-27T11:52:34.000Z</time>
      </trkpt>
      <trkpt lat="44.13111" lon="1.11052">
        <ele>189.64</ele>
        <time>2018-04-27T11:52:44.000Z</time>
      </trkpt>
      <trkpt lat="44.13103" lon="1.11047">
        <ele>191.02</ele>
        <time>2018-04-27T11:52:54.000Z</time>
      </trkpt>
      <trkpt lat="44.13096" lon="1.11043">
        <ele>191.76</ele>
        <time>2018-04-27T11:53:04.000Z</time>
      </trkpt>
      <trkpt lat="44.13088" lon="1.11038">
        <ele>192.33</ele>
        <time>2018-04-27T11:53:14.000Z</time>
      </trkpt>
      <trkpt lat="44.1308" lon="1.11032">
        <ele>193.53</ele>
        <time>2018-04-27T11:53:24.000Z</time>
      </trkpt>
      <trkpt lat="44.13071" lon="1.11027">
        <ele>194.18</ele>
        <time>2018-04-27T11:53:34.000Z</time>
      </trkpt>
      <trkpt lat="44.13063" lon="1.11019">
        <ele>193.91</ele>
        <time>2018-04-27T11:53:44.000Z</time>
      </trkpt>
      <trkpt lat="44.13054" lon="1.11011">
        <ele>194.91</ele>
        <time>2018-04-27T11:53:54.000Z</time>
      </trkpt>
      <trkpt lat="44.13045" lon="1.11003">
        <ele>195.26</ele>
        <time>2018-04-27T11:54:04.000Z</time>
      </trkpt>
      <trkpt lat="44.13036" lon="1.10997">
        <ele>195.74</ele>
        <time>2018-04-27T11:54:14.000Z</time>
      </trkpt>
      <trkpt lat="44.13027" lon="1.10991">
        <ele>196.19</ele>
        <time>2018-04-27T11:54:24.000Z</time>
      </trkpt>
      <trkpt lat="44.13018" lon="1.10985">
        <ele>197.12</ele>
        <time>2018-04-27T11:54:34.000Z</time>
      </trkpt>
      <trkpt lat="44.13009" lon="1.10986">
        <ele>197.5</ele>
        <time>2018-04-27T11:54:44.000Z</time>
      </trkpt>
      <trkpt lat="44.12999" lon="1.10988">
        <ele>198.03</ele>
        <time>2018-04-27T11:54:54.000Z</time>
      </trkpt>
      <trkpt lat="44.12989" lon="1.10993">
        <ele>197.91</ele>
        <time>2018-04-27T11:55:04.000Z</time>
      </trkpt>
      <trkpt lat="44.1298" lon="1.11001">
        <ele>197.93</ele>
        <time>2018-04-27T11:55:14.000Z</time>
      </trkpt>
      <trkpt lat="44.12971" lon="1.11008">
        <ele>197.75</ele>
        <time>2018-04-27T11:55:24.000Z</time>
      </trkpt>
      <trkpt lat="44.12962" lon="1.11014">
        <ele>196.71</ele>
        <time>2018-04-27T11:55:34.000Z</time>
      </trkpt>
      <trkpt lat="44.1295" lon="1.1102">
        <ele>195.5</ele>
        <time>2018-04-27T11:55:44.000Z</time>
      </trkpt>
      <trkpt lat="44.1294" lon="1.11025">
        <ele>194.57</ele>
        <time>2018-04-27T11:55:54.000Z</time>
      </trkpt>
      <trkpt lat="44.12929" lon="1.11028">
        <ele>193.75</ele>
        <time>2018-04-27T11:56:04.000Z</time>
      </trkpt>
      <trkpt lat="44.1292" lon="1.11031">
        <ele>192.36</ele>
        <time>2018-04-27T11:56:14.000Z</time>
      </trkpt>
      <trkpt lat="44.12911" lon="1.11035">
        <ele>190.7</ele>
        <time>2018-04-27T11:56:24.000Z</time>
      </trkpt>
      <trkpt lat="44.12901" lon="1.11039">
        <ele>189.41</ele>
        <time>2018-04-27T11:56:34.000Z</time>
      </trkpt>
      <trkpt lat="44.12891" lon="1.11043">
        <ele>188.45</ele>
        <time>2018-04-27T11:56:44.000Z</time>
      </trkpt>
      <trkpt lat="44.1288" lon="1.11047">
        <ele>187.05</ele>
        <time>2018-04-27T11:56:54.000Z</time>
      </trkpt>
      <trkpt lat="44.12868" lon="1.11052">
        <ele>186.03</ele>
        <time>2018-04-27T11:57:04.000Z</time>
      </trkpt>
      <trkpt lat="44.12857" lon="1.11057">
        <ele>185.17</ele>
        <time>2018-04-27T11:57:14.000Z</time>
      </trkpt>
      <trkpt lat="44.12846" lon="1.11064">
        <ele>184.03</ele>
        <time>2018-04-27T11:57:24.000Z</time>
      </trkpt>
      <trkpt lat="44.12834" lon="1.11072">
        <ele>183.24</ele>
        <time>2018-04-27T11:57:34.000Z</time>
      </trkpt>
      <trkpt lat="44.12823" lon="1.11079">
        <ele>182.86</ele>
        <time>2018-04-27T11:57:44.000Z</time>
      </trkpt>
      <trkpt lat="44.12812" lon="1.11087">
        <ele>182.87</ele>
        <time>2018-04-27T11:57:54.000Z</time>
      </trkpt>
      <trkpt lat="44.12803" lon="1.11096">
        <ele>182.53</ele>
        <time>2018-04-27T11:58:04.000Z</time>
      </trkpt>
      <trkpt lat="44.12792" lon="1.11106">
        <ele>181.63</ele>
        <time>2018-04-27T11:58:14.000Z</time>
      </trkpt>
      <trkpt lat="44.12783" lon="1.11116">
        <ele>181.65</ele>
        <time>2018-04-27T11:58:24.000Z</time>
      </trkpt>
      <trkpt lat="44.12774" lon="1.11126">
        <ele>181.28</ele>
        <time>2018-04-27T11:58:34.000Z</time>
      </trkpt>
      <trkpt lat="44.12765" lon="1.11135">
        <ele>180.98</ele>
        <time>2018-04-27T11:58:44.000Z</time>
      </trkpt>
      <trkpt lat="44.12755" lon="1.11144">
        <ele>180.88</ele>
        <time>2018-04-27T11:58:54.000Z</time>
      </trkpt>
      <trkpt lat="44.12746" lon="1.11154">
        <ele>180.48</ele>
        <time>2018-04-27T11:59:04.000Z</time>
      </trkpt>
      <trkpt lat="44.12736" lon="1.11162">
        <ele>180.32</ele>
        <time>2018-04-27T11:59:14.000Z</time>
      </trkpt>
      <trkpt lat="44.12725" lon="1.11169">
        <ele>180.29</ele>
        <time>2018-04-27T11:59:24.000Z</time>
      </trkpt>
      <trkpt lat="44.12713" lon="1.11174">
        <ele>180.55</ele>
        <time>2018-04-27T11:59:34.000Z</time>
      </trkpt>
      <trkpt lat="44.12702" lon="1.11178">
        <ele>180.62</ele>
        <time>2018-04-27T11:59:44.000Z</time>
      </trkpt>
      <trkpt lat="44.12692" lon="1.11181">
        <ele>181.03</ele>
        <time>2018-04-27T11:59:54.000Z</time>
      </trkpt>
      <trkpt lat="44.12681" lon="1.11181">
        <ele>181.22</ele>
        <time>2018-04-27T12:00:04.000Z</time>
      </trkpt>
      <trkpt lat="44.1267" lon="1.11181">
        <ele>181.23</ele>
        <time>2018-04-27T12:00:14.000Z</time>
      </trkpt>
      <trkpt lat="44.12658" lon="1.1118">
        <ele>181.59</ele>
        <time>2018-04-27T12:00:24.000Z</time>
      </trkpt>
      <trkpt lat="44.12646" lon="1.11177">
        <ele>181.57</ele>
        <time>2018-04-27T12:00:34.000Z</time>
      </trkpt>
      <trkpt lat="44.12635" lon="1.11176">
        <ele>182.12</ele>
        <time>2018-04-27T12:00:44.000Z</time>
      </trkpt>
      <trkpt lat="44.12623" lon="1.11173">
        <ele>182.72</ele>
        <time>2018-04-27T12:00:54.000Z</time>
      </trkpt>
      <trkpt lat="44.12611" lon="1.11169">
        <ele>183.16</ele>
        <time>2018-04-27T12:01:04.000Z</time>
      </trkpt>
      <trkpt lat="44.126" lon="1.11164">
        <ele>184.7</ele>
        <time>2018-04-27T12:01:14.000Z</time>
      </trkpt>
      <trkpt lat="44.1259" lon="1.11158">
        <ele>185.34</ele>
        <time>2018-04-27T12:01:24.000Z</time>
      </trkpt>
      <trkpt lat="44.12579" lon="1.11156">
        <ele>186.1</ele>
        <time>2018-04-27T12:01:34.000Z</time>
      </trkpt>
      <trkpt lat="44.1257" lon="1.11152">
        <ele>187.22</ele>
        <time>2018-04-27T12:01:44.000Z</time>
      </trkpt>
      <trkpt lat="44.12562" lon="1.11149">
        <ele>187.62</ele>
        <time>2018-04-27T12:01:54.000Z</time>
      </trkpt>
      <trkpt lat="44.12552" lon="1.11144">
        <ele>189.13</ele>
        <time>2018-04-27T12:02:04.000Z</time>
      </trkpt>
      <trkpt lat="44.12543" lon="1.11139">
        <ele>190.18</ele>
        <time>2018-04-27T12:02:14.000Z</time>
      </trkpt>
      <trkpt lat="44.12536" lon="1.11136">
        <ele>191.31</ele>
        <time>2018-04-27T12:02:24.000Z</time>
      </trkpt>
      <trkpt lat="44.12529" lon="1.11132">
        <ele>192.55</ele>
        <time>2018-04-27T12:02:34.000Z</time>
      </trkpt>
      <trkpt lat="44.12521" lon="1.11127">
        <ele>193.86</ele>
        <time>2018-04-27T12:02:44.000Z</time>
      </trkpt>
      <trkpt lat="44.12511" lon="1.11124">
        <ele>194.65</ele>
        <time>2018-04-27T12:02:54.000Z</time>
      </trkpt>
      <trkpt lat="44.12503" lon="1.1112">
        <ele>196</ele>
        <time>2018-04-27T12:03:04.000Z</time>
      </trkpt>
      <trkpt lat="44.12494" lon="1.11117">
        <ele>196.58</ele>
        <time>2018-04-27T12:03:14.000Z</time>
      </trkpt>
      <trkpt lat="44.12484" lon="1.11113">
        <ele>196.7</ele>
        <time>2018-04-27T12:03:24.000Z</time>
      </trkpt>
      <trkpt lat="44.12473" lon="1.11107">
        <ele>196.3</ele>
        <time>2018-04-27T12:03:34.000Z</time>
      </trkpt>
      <trkpt lat="44.12463" lon="1.11103">
        <ele>196.35</ele>
        <time>2018-04-27T12:03:44.000Z</time>
      </trkpt>
      <trkpt lat="44.12454" lon="1.111">
        <ele>195.55</ele>
        <time>2018-04-27T12:03:54.000Z</time>
      </trkpt>
      <trkpt lat="44.12443" lon="1.11096">
        <ele>195.66</ele>
        <time>2018-04-27T12:04:04.000Z</time>
      </trkpt>
      <trkpt lat="44.12433" lon="1.11095">
        <ele>194.49</ele>
        <time>2018-04-27T12:04:14.000Z</time>
      </trkpt>
      <trkpt lat="44.12423" lon="1.11092">
        <ele>194.03</ele>
        <time>2018-04-27T12:04:24.000Z</time>
      </trkpt>
      <trkpt lat="44.12415" lon="1.11089">
        <ele>193.26</ele>
        <time>2018-04-27T12:04:34.000Z</time>
      </trkpt>
      <trkpt lat="44.12404" lon="1.11085">
        <ele>192.91</ele>
        <time>2018-04-27T12:04:44.000Z</time>
      </trkpt>
      <trkpt lat="44.12393" lon="1.11081">
        <ele>191.96</ele>
        <time>2018-04-27T12:04:54.000Z</time>
      </trkpt>
      <trkpt lat="44.12383" lon="1.11076">
        <ele>191.75</ele>
        <time>2018-04-27T12:05:04.000Z</time>
      </trkpt>
      <trkpt lat="44.12372" lon="1.11069">
        <ele>191.17</ele>
        <time>2018-04-27T12:05:14.000Z</time>
      </trkpt>
      <trkpt lat="44.12361" lon="1.11061">
        <ele>190.42</ele>
        <time>2018-04-27T12:05:24.000Z</time>
      </trkpt>
      <trkpt lat="44.1235" lon="1.11054">
        <ele>189.55</ele>
        <time>2018-04-27T12:05:34.000Z</time>
      </trkpt>
      <trkpt lat="44.1234" lon="1.11046">
        <ele>188.76</ele>
        <time>2018-04-27T12:05:44.000Z</time>
      </trkpt>
      <trkpt lat="44.12331" lon="1.1104">
        <ele>188.41</ele>
        <time>2018-04-27T12:05:54.000Z</time>
      </trkpt>
      <trkpt lat="44.12321" lon="1.11032">
        <ele>187.88</ele>
        <time>2018-04-27T12:06:04.000Z</time>
      </trkpt>
      <trkpt lat="44.12313" lon="1.11022">
        <ele>186.42</ele>
        <time>2018-04-27T12:06:14.000Z</time>
      </trkpt>
      <trkpt lat="44.12307" lon="1.1101">
        <ele>185.23</ele>
        <time>2018-04-27T12:06:24.000Z</time>
      </trkpt>
      <trkpt lat="44.12301" lon="1.11">
        <ele>183.41</ele>
        <time>2018-04-27T12:06:34.000Z</time>
      </trkpt>
      <trkpt lat="44.12295" lon="1.10991">
        <ele>181.32</ele>
        <time>2018-04-27T12:06:44.000Z</time>
      </trkpt>
      <trkpt lat="44.1229" lon="1.10982">
        <ele>179.19</ele>
        <time>2018-04-27T12:06:54.000Z</time>
      </trkpt>
      <trkpt lat="44.12283" lon="1.10973">
        <ele>178.01</ele>
        <time>2018-04-27T12:07:04.000Z</time>
      </trkpt>
      <trkpt lat="44.12276" lon="1.10965">
        <ele>176.61</ele>
        <time>2018-04-27T12:07:14.000Z</time>
      </trkpt>
      <trkpt lat="44.12268" lon="1.10957">
        <ele>176.01</ele>
        <time>2018-04-27T12:07:24.000Z</time>
      </trkpt>
      <trkpt lat="44.12258" lon="1.10949">
        <ele>174.45</ele>
        <time>2018-04-27T12:07:34.000Z</time>
      </trkpt>
      <trkpt lat="44.1225" lon="1.10944">
        <ele>173.41</ele>
        <time>2018-04-27T12:07:44.000Z</time>
      </trkpt>
      <trkpt lat="44.12241" lon="1.10936">
        <ele>172.45</ele>
        <time>2018-04-27T12:07:54.000Z</time>
      </trkpt>
      <trkpt lat="44.12237" lon="1.10931">
        <ele>171.75</ele>
        <time>2018-04-27T12:08:04.000Z</time>
      </trkpt>
      <trkpt lat="44.12229" lon="1.10918">
        <ele>169.77</ele>
        <time>2018-04-27T12:08:14.000Z</time>
      </trkpt>
      <trkpt lat="44.12224" lon="1.10907">
        <ele>168.41</ele>
        <time>2018-04-27T12:08:24.000Z</time>
      </trkpt>
      <trkpt lat="44.12218" lon="1.10897">
        <ele>167.21</ele>
        <time>2018-04-27T12:08:34.000Z</time>
      </trkpt>
      <trkpt lat="44.12213" lon="1.10885">
        <ele>166.06</ele>
        <time>2018-04-27T12:08:44.000Z</time>
      </trkpt>
      <trkpt lat="44.12208" lon="1.10873">
        <ele>164.79</ele>
        <time>2018-04-27T12:08:54.000Z</time>
      </trkpt>
      <trkpt lat="44.12201" lon="1.10861">
        <ele>163.4</ele>
        <time>2018-04-27T12:09:04.000Z</time>
      </trkpt>
      <trkpt lat="44.12194" lon="1.1085">
        <ele>161.99</ele>
        <time>2018-04-27T12:09:14.000Z</time>
      </trkpt>
      <trkpt lat="44.12186" lon="1.10839">
        <ele>160.77</ele>
        <time>2018-04-27T12:09:24.000Z</time>
      </trkpt>
      <trkpt lat="44.12178" lon="1.10831">
        <ele>159.22</ele>
        <time>2018-04-27T12:09:34.000Z</time>
      </trkpt>
      <trkpt lat="44.12172" lon="1.10825">
        <ele>156.96</ele>
        <time>2018-04-27T12:09:44.000Z</time>
      </trkpt>
      <trkpt lat="44.12166" lon="1.10817">
        <ele>155.14</ele>
        <time>2018-04-27T12:09:54.000Z</time>
      </trkpt>
      <trkpt lat="44.12159" lon="1.10808">
        <ele>153.3</ele>
        <time>2018-04-27T12:10:04.000Z</time>
      </trkpt>
      <trkpt lat="44.12153" lon="1.108">
        <ele>151.67</ele>
        <time>2018-04-27T12:10:14.000Z</time>
      </trkpt>
      <trkpt lat="44.12146" lon="1.10792">
        <ele>150.22</ele>
        <time>2018-04-27T12:10:24.000Z</time>
      </trkpt>
      <trkpt lat="44.12141" lon="1.10787">
        <ele>149.3</ele>
        <time>2018-04-27T12:10:34.000Z</time>
      </trkpt>
      <trkpt lat="44.12135" lon="1.1078">
        <ele>148</ele>
        <time>2018-04-27T12:10:44.000Z</time>
      </trkpt>
      <trkpt lat="44.12125" lon="1.10773">
        <ele>146.6</ele>
        <time>2018-04-27T12:10:54.000Z</time>
      </trkpt>
      <trkpt lat="44.12117" lon="1.10766">
        <ele>144.94</ele>
        <time>2018-04-27T12:11:04.000Z</time>
      </trkpt>
      <trkpt lat="44.12108" lon="1.10761">
        <ele>143.58</ele>
        <time>2018-04-27T12:11:14.000Z</time>
      </trkpt>
      <trkpt lat="44.121" lon="1.10756">
        <ele>141.95</ele>
        <time>2018-04-27T12:11:24.000Z</time>
      </trkpt>
      <trkpt lat="44.12091" lon="1.10748">
        <ele>140.17</ele>
        <time>2018-04-27T12:11:34.000Z</time>
      </trkpt>
      <trkpt lat="44.1208" lon="1.10741">
        <ele>138.62</ele>
        <time>2018-04-27T12:11:44.000Z</time>
      </trkpt>
      <trkpt lat="44.1207" lon="1.10736">
        <ele>137.03</ele>
        <time>2018-04-27T12:11:54.000Z</time>
      </trkpt>
      <trkpt lat="44.12061" lon="1.1073">
        <ele>136.08</ele>
        <time>2018-04-27T12:12:04.000Z</time>
      </trkpt>
      <trkpt lat="44.12051" lon="1.10723">
        <ele>135.64</ele>
        <time>2018-04-27T12:12:14.000Z</time>
      </trkpt>
      <trkpt lat="44.12041" lon="1.10716">
        <ele>134.57</ele>
        <time>2018-04-27T12:12:24.000Z</time>
      </trkpt>
      <trkpt lat="44.12032" lon="1.10711">
        <ele>133.9</ele>
        <time>2018-04-27T12:12:34.000Z</time>
      </trkpt>
      <trkpt lat="44.12022" lon="1.10705">
        <ele>132.38</ele>
        <time>2018-04-27T12:12:44.000Z</time>
      </trkpt>
      <trkpt lat="44.12012" lon="1.10698">
        <ele>132.13</ele>
        <time>2018-04-27T12:12:54.000Z</time>
      </trkpt>
      <trkpt lat="44.12" lon="1.10692">
        <ele>131.19</ele>
        <time>2018-04-27T12:13:04.000Z</time>
      </trkpt>
      <trkpt lat="44.11989" lon="1.10689">
        <ele>130.49</ele>
        <time>2018-04-27T12:13:14.000Z</time>
      </trkpt>
      <trkpt lat="44.11985" lon="1.10689">
        <ele>130.1</ele>
        <time>2018-04-27T12:13:24.000Z</time>
      </trkpt>
      <trkpt lat="44.11984" lon="1.10689">
        <ele>130.44</ele>
        <time>2018-04-27T12:13:35.000Z</time>
      </trkpt>
      <trkpt lat="44.11981" lon="1.1069">
        <ele>130.37</ele>
        <time>2018-04-27T12:13:45.000Z</time>
      </trkpt>
      <trkpt lat="44.11979" lon="1.1069">
        <ele>130.27</ele>
        <time>2018-04-27T12:14:43.000Z</time>
      </trkpt>
      <trkpt lat="44.11971" lon="1.10688">
        <ele>130.12</ele>
        <time>2018-04-27T12:14:53.000Z</time>
      </trkpt>
      <trkpt lat="44.11962" lon="1.10688">
        <ele>129.85</ele>
        <time>2018-04-27T12:15:03.000Z</time>
      </trkpt>
      <trkpt lat="44.11953" lon="1.1069">
        <ele>129.4</ele>
        <time>2018-04-27T12:15:13.000Z</time>
      </trkpt>
      <trkpt lat="44.11942" lon="1.10688">
        <ele>129.2</ele>
        <time>2018-04-27T12:15:23.000Z</time>
      </trkpt>
      <trkpt lat="44.1193" lon="1.10686">
        <ele>128.58</ele>
        <time>2018-04-27T12:15:33.000Z</time>
      </trkpt>
      <trkpt lat="44.11918" lon="1.10684">
        <ele>127.52</ele>
        <time>2018-04-27T12:15:43.000Z</time>
      </trkpt>
      <trkpt lat="44.11907" lon="1.10685">
        <ele>127.55</ele>
        <time>2018-04-27T12:15:53.000Z</time>
      </trkpt>
      <trkpt lat="44.11895" lon="1.10683">
        <ele>127.46</ele>
        <time>2018-04-27T12:16:03.000Z</time>
      </trkpt>
      <trkpt lat="44.11884" lon="1.10677">
        <ele>126.9</ele>
        <time>2018-04-27T12:16:13.000Z</time>
      </trkpt>
      <trkpt lat="44.11876" lon="1.10666">
        <ele>127.44</ele>
        <time>2018-04-27T12:16:23.000Z</time>
      </trkpt>
      <trkpt lat="44.11868" lon="1.10653">
        <ele>126.97</ele>
        <time>2018-04-27T12:16:33.000Z</time>
      </trkpt>
      <trkpt lat="44.11863" lon="1.1064">
        <ele>125.95</ele>
        <time>2018-04-27T12:16:43.000Z</time>
      </trkpt>
      <trkpt lat="44.11856" lon="1.10632">
        <ele>124.55</ele>
        <time>2018-04-27T12:16:53.000Z</time>
      </trkpt>
      <trkpt lat="44.11851" lon="1.10624">
        <ele>124.41</ele>
        <time>2018-04-27T12:17:03.000Z</time>
      </trkpt>
      <trkpt lat="44.11849" lon="1.10612">
        <ele>124.34</ele>
        <time>2018-04-27T12:17:13.000Z</time>
      </trkpt>
      <trkpt lat="44.11847" lon="1.10599">
        <ele>125.26</ele>
        <time>2018-04-27T12:17:23.000Z</time>
      </trkpt>
      <trkpt lat="44.11842" lon="1.10588">
        <ele>125.78</ele>
        <time>2018-04-27T12:17:33.000Z</time>
      </trkpt>
      <trkpt lat="44.11837" lon="1.10576">
        <ele>126.6</ele>
        <time>2018-04-27T12:17:43.000Z</time>
      </trkpt>
      <trkpt lat="44.11829" lon="1.10568">
        <ele>126.91</ele>
        <time>2018-04-27T12:17:53.000Z</time>
      </trkpt>
      <trkpt lat="44.11823" lon="1.10556">
        <ele>127.19</ele>
        <time>2018-04-27T12:18:03.000Z</time>
      </trkpt>
      <trkpt lat="44.11816" lon="1.10548">
        <ele>128.37</ele>
        <time>2018-04-27T12:18:13.000Z</time>
      </trkpt>
      <trkpt lat="44.1181" lon="1.10541">
        <ele>128.61</ele>
        <time>2018-04-27T12:18:23.000Z</time>
      </trkpt>
      <trkpt lat="44.11803" lon="1.10531">
        <ele>128.9</ele>
        <time>2018-04-27T12:18:33.000Z</time>
      </trkpt>
      <trkpt lat="44.11794" lon="1.10524">
        <ele>129.37</ele>
        <time>2018-04-27T12:18:43.000Z</time>
      </trkpt>
      <trkpt lat="44.11785" lon="1.10526">
        <ele>129.63</ele>
        <time>2018-04-27T12:18:53.000Z</time>
      </trkpt>
      <trkpt lat="44.11775" lon="1.10535">
        <ele>129.59</ele>
        <time>2018-04-27T12:19:03.000Z</time>
      </trkpt>
      <trkpt lat="44.11765" lon="1.1054">
        <ele>129.56</ele>
        <time>2018-04-27T12:19:13.000Z</time>
      </trkpt>
      <trkpt lat="44.11756" lon="1.10544">
        <ele>129.64</ele>
        <time>2018-04-27T12:19:23.000Z</time>
      </trkpt>
      <trkpt lat="44.11746" lon="1.10551">
        <ele>129.6</ele>
        <time>2018-04-27T12:19:33.000Z</time>
      </trkpt>
      <trkpt lat="44.11739" lon="1.10559">
        <ele>129.55</ele>
        <time>2018-04-27T12:19:43.000Z</time>
      </trkpt>
      <trkpt lat="44.1173" lon="1.10565">
        <ele>129.6</ele>
        <time>2018-04-27T12:19:53.000Z</time>
      </trkpt>
      <trkpt lat="44.1172" lon="1.10569">
        <ele>129.2</ele>
        <time>2018-04-27T12:20:03.000Z</time>
      </trkpt>
      <trkpt lat="44.11711" lon="1.10572">
        <ele>129.25</ele>
        <time>2018-04-27T12:20:13.000Z</time>
      </trkpt>
      <trkpt lat="44.11701" lon="1.10576">
        <ele>129.43</ele>
        <time>2018-04-27T12:20:23.000Z</time>
      </trkpt>
      <trkpt lat="44.11691" lon="1.10578">
        <ele>129.41</ele>
        <time>2018-04-27T12:20:33.000Z</time>
      </trkpt>
      <trkpt lat="44.11681" lon="1.10582">
        <ele>129.37</ele>
        <time>2018-04-27T12:20:43.000Z</time>
      </trkpt>
      <trkpt lat="44.1167" lon="1.10583">
        <ele>129.09</ele>
        <time>2018-04-27T12:20:53.000Z</time>
      </trkpt>
      <trkpt lat="44.11661" lon="1.10583">
        <ele>129.25</ele>
        <time>2018-04-27T12:21:03.000Z</time>
      </trkpt>
      <trkpt lat="44.1165" lon="1.10581">
        <ele>129.4</ele>
        <time>2018-04-27T12:21:13.000Z</time>
      </trkpt>
      <trkpt lat="44.1164" lon="1.10588">
        <ele>129.51</ele>
        <time>2018-04-27T12:21:23.000Z</time>
      </trkpt>
      <trkpt lat="44.1163" lon="1.10588">
        <ele>128.81</ele>
        <time>2018-04-27T12:21:33.000Z</time>
      </trkpt>
      <trkpt lat="44.11621" lon="1.10582">
        <ele>128.94</ele>
        <time>2018-04-27T12:21:43.000Z</time>
      </trkpt>
      <trkpt lat="44.1161" lon="1.1058">
        <ele>128.85</ele>
        <time>2018-04-27T12:21:53.000Z</time>
      </trkpt>
      <trkpt lat="44.11601" lon="1.1058">
        <ele>129.08</ele>
        <time>2018-04-27T12:22:03.000Z</time>
      </trkpt>
      <trkpt lat="44.11592" lon="1.10577">
        <ele>128.84</ele>
        <time>2018-04-27T12:22:13.000Z</time>
      </trkpt>
      <trkpt lat="44.11581" lon="1.10576">
        <ele>129.09</ele>
        <time>2018-04-27T12:22:23.000Z</time>
      </trkpt>
      <trkpt lat="44.1157" lon="1.10575">
        <ele>128.38</ele>
        <time>2018-04-27T12:22:33.000Z</time>
      </trkpt>
      <trkpt lat="44.11559" lon="1.10576">
        <ele>128.65</ele>
        <time>2018-04-27T12:22:43.000Z</time>
      </trkpt>
      <trkpt lat="44.11548" lon="1.10574">
        <ele>128.73</ele>
        <time>2018-04-27T12:22:53.000Z</time>
      </trkpt>
      <trkpt lat="44.11539" lon="1.10572">
        <ele>128.85</ele>
        <time>2018-04-27T12:23:03.000Z</time>
      </trkpt>
      <trkpt lat="44.11528" lon="1.10568">
        <ele>129.05</ele>
        <time>2018-04-27T12:23:13.000Z</time>
      </trkpt>
      <trkpt lat="44.11517" lon="1.10565">
        <ele>129.29</ele>
        <time>2018-04-27T12:23:23.000Z</time>
      </trkpt>
      <trkpt lat="44.11507" lon="1.10565">
        <ele>128.82</ele>
        <time>2018-04-27T12:23:33.000Z</time>
      </trkpt>
      <trkpt lat="44.11497" lon="1.10562">
        <ele>128.65</ele>
        <time>2018-04-27T12:23:43.000Z</time>
      </trkpt>
      <trkpt lat="44.11486" lon="1.10558">
        <ele>128.59</ele>
        <time>2018-04-27T12:23:53.000Z</time>
      </trkpt>
      <trkpt lat="44.11475" lon="1.10554">
        <ele>128.82</ele>
        <time>2018-04-27T12:24:03.000Z</time>
      </trkpt>
      <trkpt lat="44.11463" lon="1.10551">
        <ele>128.45</ele>
        <time>2018-04-27T12:24:13.000Z</time>
      </trkpt>
      <trkpt lat="44.11451" lon="1.10546">
        <ele>128.66</ele>
        <time>2018-04-27T12:24:23.000Z</time>
      </trkpt>
      <trkpt lat="44.11441" lon="1.10545">
        <ele>128.58</ele>
        <time>2018-04-27T12:24:33.000Z</time>
      </trkpt>
      <trkpt lat="44.11432" lon="1.10544">
        <ele>128.39</ele>
        <time>2018-04-27T12:24:43.000Z</time>
      </trkpt>
      <trkpt lat="44.1143" lon="1.10542">
        <ele>128.42</ele>
        <time>2018-04-27T12:24:53.000Z</time>
      </trkpt>
      <trkpt lat="44.11423" lon="1.10531">
        <ele>127.89</ele>
        <time>2018-04-27T12:25:03.000Z</time>
      </trkpt>
      <trkpt lat="44.11411" lon="1.10528">
        <ele>127.08</ele>
        <time>2018-04-27T12:25:13.000Z</time>
      </trkpt>
      <trkpt lat="44.11399" lon="1.10525">
        <ele>126.46</ele>
        <time>2018-04-27T12:25:23.000Z</time>
      </trkpt>
      <trkpt lat="44.11388" lon="1.10523">
        <ele>126.21</ele>
        <time>2018-04-27T12:25:33.000Z</time>
      </trkpt>
      <trkpt lat="44.11378" lon="1.1052">
        <ele>125.7</ele>
        <time>2018-04-27T12:25:43.000Z</time>
      </trkpt>
      <trkpt lat="44.11367" lon="1.10518">
        <ele>125.87</ele>
        <time>2018-04-27T12:25:53.000Z</time>
      </trkpt>
      <trkpt lat="44.11356" lon="1.10516">
        <ele>125.82</ele>
        <time>2018-04-27T12:26:03.000Z</time>
      </trkpt>
      <trkpt lat="44.11345" lon="1.10513">
        <ele>126.12</ele>
        <time>2018-04-27T12:26:13.000Z</time>
      </trkpt>
      <trkpt lat="44.11334" lon="1.10513">
        <ele>125.93</ele>
        <time>2018-04-27T12:26:23.000Z</time>
      </trkpt>
      <trkpt lat="44.11324" lon="1.1051">
        <ele>126.32</ele>
        <time>2018-04-27T12:26:33.000Z</time>
      </trkpt>
      <trkpt lat="44.11312" lon="1.10507">
        <ele>125.92</ele>
        <time>2018-04-27T12:26:43.000Z</time>
      </trkpt>
      <trkpt lat="44.11302" lon="1.10505">
        <ele>125.86</ele>
        <time>2018-04-27T12:26:53.000Z</time>
      </trkpt>
      <trkpt lat="44.11291" lon="1.10503">
        <ele>125.77</ele>
        <time>2018-04-27T12:27:03.000Z</time>
      </trkpt>
      <trkpt lat="44.1128" lon="1.105">
        <ele>125.83</ele>
        <time>2018-04-27T12:27:13.000Z</time>
      </trkpt>
      <trkpt lat="44.11269" lon="1.10497">
        <ele>125.9</ele>
        <time>2018-04-27T12:27:23.000Z</time>
      </trkpt>
      <trkpt lat="44.11258" lon="1.10496">
        <ele>125.52</ele>
        <time>2018-04-27T12:27:33.000Z</time>
      </trkpt>
      <trkpt lat="44.11247" lon="1.10493">
        <ele>125.37</ele>
        <time>2018-04-27T12:27:43.000Z</time>
      </trkpt>
      <trkpt lat="44.11236" lon="1.10488">
        <ele>125.57</ele>
        <time>2018-04-27T12:27:53.000Z</time>
      </trkpt>
      <trkpt lat="44.11227" lon="1.10478">
        <ele>125.91</ele>
        <time>2018-04-27T12:28:03.000Z</time>
      </trkpt>
      <trkpt lat="44.11219" lon="1.10468">
        <ele>125.34</ele>
        <time>2018-04-27T12:28:13.000Z</time>
      </trkpt>
      <trkpt lat="44.1121" lon="1.10459">
        <ele>125.6</ele>
        <time>2018-04-27T12:28:23.000Z</time>
      </trkpt>
      <trkpt lat="44.11201" lon="1.1045">
        <ele>126.1</ele>
        <time>2018-04-27T12:28:33.000Z</time>
      </trkpt>
      <trkpt lat="44.11192" lon="1.10442">
        <ele>126.22</ele>
        <time>2018-04-27T12:28:43.000Z</time>
      </trkpt>
      <trkpt lat="44.11184" lon="1.10431">
        <ele>125.85</ele>
        <time>2018-04-27T12:28:53.000Z</time>
      </trkpt>
      <trkpt lat="44.11174" lon="1.10423">
        <ele>125.76</ele>
        <time>2018-04-27T12:29:03.000Z</time>
      </trkpt>
      <trkpt lat="44.11164" lon="1.10412">
        <ele>125.64</ele>
        <time>2018-04-27T12:29:13.000Z</time>
      </trkpt>
      <trkpt lat="44.11155" lon="1.10403">
        <ele>125.22</ele>
        <time>2018-04-27T12:29:23.000Z</time>
      </trkpt>
      <trkpt lat="44.11146" lon="1.10394">
        <ele>125.06</ele>
        <time>2018-04-27T12:29:33.000Z</time>
      </trkpt>
      <trkpt lat="44.11136" lon="1.10385">
        <ele>124.99</ele>
        <time>2018-04-27T12:29:43.000Z</time>
      </trkpt>
      <trkpt lat="44.11127" lon="1.10376">
        <ele>124.97</ele>
        <time>2018-04-27T12:29:53.000Z</time>
      </trkpt>
      <trkpt lat="44.11117" lon="1.10366">
        <ele>124.56</ele>
        <time>2018-04-27T12:30:03.000Z</time>
      </trkpt>
      <trkpt lat="44.11108" lon="1.10358">
        <ele>124.81</ele>
        <time>2018-04-27T12:30:13.000Z</time>
      </trkpt>
      <trkpt lat="44.111" lon="1.10352">
        <ele>124.58</ele>
        <time>2018-04-27T12:30:23.000Z</time>
      </trkpt>
      <trkpt lat="44.11091" lon="1.10342">
        <ele>124.55</ele>
        <time>2018-04-27T12:30:33.000Z</time>
      </trkpt>
      <trkpt lat="44.11082" lon="1.10332">
        <ele>124.36</ele>
        <time>2018-04-27T12:30:43.000Z</time>
      </trkpt>
      <trkpt lat="44.11074" lon="1.1032">
        <ele>124.8</ele>
        <time>2018-04-27T12:30:53.000Z</time>
      </trkpt>
      <trkpt lat="44.11066" lon="1.10308">
        <ele>124.59</ele>
        <time>2018-04-27T12:31:03.000Z</time>
      </trkpt>
      <trkpt lat="44.11061" lon="1.10294">
        <ele>124.79</ele>
        <time>2018-04-27T12:31:13.000Z</time>
      </trkpt>
      <trkpt lat="44.11056" lon="1.1028">
        <ele>124.65</ele>
        <time>2018-04-27T12:31:23.000Z</time>
      </trkpt>
      <trkpt lat="44.11051" lon="1.10266">
        <ele>125.1</ele>
        <time>2018-04-27T12:31:33.000Z</time>
      </trkpt>
      <trkpt lat="44.11046" lon="1.10253">
        <ele>125.84</ele>
        <time>2018-04-27T12:31:43.000Z</time>
      </trkpt>
      <trkpt lat="44.11042" lon="1.10237">
        <ele>125.69</ele>
        <time>2018-04-27T12:31:53.000Z</time>
      </trkpt>
      <trkpt lat="44.11037" lon="1.10223">
        <ele>125.15</ele>
        <time>2018-04-27T12:32:03.000Z</time>
      </trkpt>
      <trkpt lat="44.11032" lon="1.10209">
        <ele>124.67</ele>
        <time>2018-04-27T12:32:13.000Z</time>
      </trkpt>
      <trkpt lat="44.11027" lon="1.10194">
        <ele>125.03</ele>
        <time>2018-04-27T12:32:23.000Z</time>
      </trkpt>
      <trkpt lat="44.11022" lon="1.1018">
        <ele>125.46</ele>
        <time>2018-04-27T12:32:33.000Z</time>
      </trkpt>
      <trkpt lat="44.11016" lon="1.10166">
        <ele>125.69</ele>
        <time>2018-04-27T12:32:43.000Z</time>
      </trkpt>
      <trkpt lat="44.11009" lon="1.10154">
        <ele>126.21</ele>
        <time>2018-04-27T12:32:53.000Z</time>
      </trkpt>
      <trkpt lat="44.11003" lon="1.10141">
        <ele>126.31</ele>
        <time>2018-04-27T12:33:03.000Z</time>
      </trkpt>
      <trkpt lat="44.10997" lon="1.10132">
        <ele>125.55</ele>
        <time>2018-04-27T12:33:13.000Z</time>
      </trkpt>
      <trkpt lat="44.10989" lon="1.10121">
        <ele>125.08</ele>
        <time>2018-04-27T12:33:23.000Z</time>
      </trkpt>
      <trkpt lat="44.10982" lon="1.10109">
        <ele>124.99</ele>
        <time>2018-04-27T12:33:33.000Z</time>
      </trkpt>
      <trkpt lat="44.10974" lon="1.10097">
        <ele>124.39</ele>
        <time>2018-04-27T12:33:43.000Z</time>
      </trkpt>
      <trkpt lat="44.10966" lon="1.10085">
        <ele>124.55</ele>
        <time>2018-04-27T12:33:53.000Z</time>
      </trkpt>
      <trkpt lat="44.10959" lon="1.10072">
        <ele>124.39</ele>
        <time>2018-04-27T12:34:03.000Z</time>
      </trkpt>
      <trkpt lat="44.1095" lon="1.1006">
        <ele>123.94</ele>
        <time>2018-04-27T12:34:13.000Z</time>
      </trkpt>
      <trkpt lat="44.10942" lon="1.1005">
        <ele>123.3</ele>
        <time>2018-04-27T12:34:23.000Z</time>
      </trkpt>
      <trkpt lat="44.10933" lon="1.1004">
        <ele>123.24</ele>
        <time>2018-04-27T12:34:33.000Z</time>
      </trkpt>
      <trkpt lat="44.10923" lon="1.10031">
        <ele>123.39</ele>
        <time>2018-04-27T12:34:43.000Z</time>
      </trkpt>
      <trkpt lat="44.10913" lon="1.10023">
        <ele>123.58</ele>
        <time>2018-04-27T12:34:53.000Z</time>
      </trkpt>
      <trkpt lat="44.10905" lon="1.10014">
        <ele>123.16</ele>
        <time>2018-04-27T12:35:03.000Z</time>
      </trkpt>
      <trkpt lat="44.10897" lon="1.10006">
        <ele>123.38</ele>
        <time>2018-04-27T12:35:13.000Z</time>
      </trkpt>
      <trkpt lat="44.10889" lon="1.09997">
        <ele>122.76</ele>
        <time>2018-04-27T12:35:23.000Z</time>
      </trkpt>
      <trkpt lat="44.1088" lon="1.09987">
        <ele>122.75</ele>
        <time>2018-04-27T12:35:33.000Z</time>
      </trkpt>
      <trkpt lat="44.10871" lon="1.09977">
        <ele>123.05</ele>
        <time>2018-04-27T12:35:43.000Z</time>
      </trkpt>
      <trkpt lat="44.10863" lon="1.09968">
        <ele>122.65</ele>
        <time>2018-04-27T12:35:53.000Z</time>
      </trkpt>
      <trkpt lat="44.10854" lon="1.09956">
        <ele>123.07</ele>
        <time>2018-04-27T12:36:03.000Z</time>
      </trkpt>
      <trkpt lat="44.10846" lon="1.09945">
        <ele>123.15</ele>
        <time>2018-04-27T12:36:13.000Z</time>
      </trkpt>
      <trkpt lat="44.10836" lon="1.09937">
        <ele>123.42</ele>
        <time>2018-04-27T12:36:23.000Z</time>
      </trkpt>
      <trkpt lat="44.10826" lon="1.0993">
        <ele>123</ele>
        <time>2018-04-27T12:36:33.000Z</time>
      </trkpt>
      <trkpt lat="44.10816" lon="1.09923">
        <ele>122.4</ele>
        <time>2018-04-27T12:36:43.000Z</time>
      </trkpt>
      <trkpt lat="44.10808" lon="1.09911">
        <ele>121.75</ele>
        <time>2018-04-27T12:36:53.000Z</time>
      </trkpt>
      <trkpt lat="44.10803" lon="1.09898">
        <ele>121.92</ele>
        <time>2018-04-27T12:37:03.000Z</time>
      </trkpt>
      <trkpt lat="44.108" lon="1.09885">
        <ele>122.11</ele>
        <time>2018-04-27T12:37:13.000Z</time>
      </trkpt>
      <trkpt lat="44.10797" lon="1.0987">
        <ele>122.2</ele>
        <time>2018-04-27T12:37:23.000Z</time>
      </trkpt>
      <trkpt lat="44.10791" lon="1.09857">
        <ele>122.11</ele>
        <time>2018-04-27T12:37:33.000Z</time>
      </trkpt>
      <trkpt lat="44.10786" lon="1.09842">
        <ele>122.31</ele>
        <time>2018-04-27T12:37:43.000Z</time>
      </trkpt>
      <trkpt lat="44.10782" lon="1.09828">
        <ele>122.6</ele>
        <time>2018-04-27T12:37:53.000Z</time>
      </trkpt>
      <trkpt lat="44.10778" lon="1.09813">
        <ele>122.6</ele>
        <time>2018-04-27T12:38:03.000Z</time>
      </trkpt>
      <trkpt lat="44.10776" lon="1.09799">
        <ele>122.77</ele>
        <time>2018-04-27T12:38:13.000Z</time>
      </trkpt>
      <trkpt lat="44.10771" lon="1.09784">
        <ele>122.85</ele>
        <time>2018-04-27T12:38:23.000Z</time>
      </trkpt>
      <trkpt lat="44.10765" lon="1.09769">
        <ele>123.1</ele>
        <time>2018-04-27T12:38:33.000Z</time>
      </trkpt>
      <trkpt lat="44.10761" lon="1.09756">
        <ele>123.29</ele>
        <time>2018-04-27T12:38:43.000Z</time>
      </trkpt>
      <trkpt lat="44.10755" lon="1.09742">
        <ele>122.62</ele>
        <time>2018-04-27T12:38:53.000Z</time>
      </trkpt>
      <trkpt lat="44.10751" lon="1.09728">
        <ele>122.43</ele>
        <time>2018-04-27T12:39:03.000Z</time>
      </trkpt>
      <trkpt lat="44.10746" lon="1.09715">
        <ele>122.4</ele>
        <time>2018-04-27T12:39:13.000Z</time>
      </trkpt>
      <trkpt lat="44.10742" lon="1.09701">
        <ele>122.7</ele>
        <time>2018-04-27T12:39:23.000Z</time>
      </trkpt>
      <trkpt lat="44.10738" lon="1.09687">
        <ele>122.93</ele>
        <time>2018-04-27T12:39:33.000Z</time>
      </trkpt>
      <trkpt lat="44.10733" lon="1.09672">
        <ele>122.31</ele>
        <time>2018-04-27T12:39:43.000Z</time>
      </trkpt>
      <trkpt lat="44.10729" lon="1.09658">
        <ele>122.38</ele>
        <time>2018-04-27T12:39:53.000Z</time>
      </trkpt>
      <trkpt lat="44.10723" lon="1.09643">
        <ele>122.91</ele>
        <time>2018-04-27T12:40:03.000Z</time>
      </trkpt>
      <trkpt lat="44.10718" lon="1.09631">
        <ele>122.79</ele>
        <time>2018-04-27T12:40:13.000Z</time>
      </trkpt>
      <trkpt lat="44.10714" lon="1.09621">
        <ele>122.9</ele>
        <time>2018-04-27T12:40:23.000Z</time>
      </trkpt>
      <trkpt lat="44.10709" lon="1.09611">
        <ele>122.48</ele>
        <time>2018-04-27T12:40:33.000Z</time>
      </trkpt>
      <trkpt lat="44.10703" lon="1.09601">
        <ele>122.3</ele>
        <time>2018-04-27T12:40:43.000Z</time>
      </trkpt>
      <trkpt lat="44.10697" lon="1.09584">
        <ele>121.46</ele>
        <time>2018-04-27T12:40:53.000Z</time>
      </trkpt>
      <trkpt lat="44.10692" lon="1.0957">
        <ele>120.99</ele>
        <time>2018-04-27T12:41:03.000Z</time>
      </trkpt>
      <trkpt lat="44.10685" lon="1.09558">
        <ele>121.03</ele>
        <time>2018-04-27T12:41:13.000Z</time>
      </trkpt>
      <trkpt lat="44.10675" lon="1.09545">
        <ele>120.91</ele>
        <time>2018-04-27T12:41:23.000Z</time>
      </trkpt>
      <trkpt lat="44.10669" lon="1.0953">
        <ele>121</ele>
        <time>2018-04-27T12:41:33.000Z</time>
      </trkpt>
      <trkpt lat="44.10666" lon="1.09515">
        <ele>121.34</ele>
        <time>2018-04-27T12:41:43.000Z</time>
      </trkpt>
      <trkpt lat="44.10666" lon="1.095">
        <ele>121.91</ele>
        <time>2018-04-27T12:41:53.000Z</time>
      </trkpt>
      <trkpt lat="44.10666" lon="1.09485">
        <ele>121.86</ele>
        <time>2018-04-27T12:42:03.000Z</time>
      </trkpt>
      <trkpt lat="44.10667" lon="1.0947">
        <ele>122.45</ele>
        <time>2018-04-27T12:42:13.000Z</time>
      </trkpt>
      <trkpt lat="44.10668" lon="1.09455">
        <ele>122.56</ele>
        <time>2018-04-27T12:42:23.000Z</time>
      </trkpt>
      <trkpt lat="44.10669" lon="1.0944">
        <ele>122.64</ele>
        <time>2018-04-27T12:42:33.000Z</time>
      </trkpt>
      <trkpt lat="44.10669" lon="1.09425">
        <ele>122.3</ele>
        <time>2018-04-27T12:42:43.000Z</time>
      </trkpt>
      <trkpt lat="44.10669" lon="1.0941">
        <ele>122.5</ele>
        <time>2018-04-27T12:42:53.000Z</time>
      </trkpt>
      <trkpt lat="44.10667" lon="1.09395">
        <ele>122.77</ele>
        <time>2018-04-27T12:43:03.000Z</time>
      </trkpt>
      <trkpt lat="44.10667" lon="1.0938">
        <ele>123.52</ele>
        <time>2018-04-27T12:43:13.000Z</time>
      </trkpt>
      <trkpt lat="44.10668" lon="1.09364">
        <ele>123.81</ele>
        <time>2018-04-27T12:43:23.000Z</time>
      </trkpt>
      <trkpt lat="44.10668" lon="1.0935">
        <ele>123.93</ele>
        <time>2018-04-27T12:43:33.000Z</time>
      </trkpt>
      <trkpt lat="44.10668" lon="1.09334">
        <ele>123.96</ele>
        <time>2018-04-27T12:43:43.000Z</time>
      </trkpt>
      <trkpt lat="44.10667" lon="1.09319">
        <ele>124.12</ele>
        <time>2018-04-27T12:43:53.000Z</time>
      </trkpt>
      <trkpt lat="44.10667" lon="1.09304">
        <ele>124.16</ele>
        <time>2018-04-27T12:44:03.000Z</time>
      </trkpt>
      <trkpt lat="44.10665" lon="1.09289">
        <ele>124.32</ele>
        <time>2018-04-27T12:44:13.000Z</time>
      </trkpt>
      <trkpt lat="44.10663" lon="1.09274">
        <ele>124.78</ele>
        <time>2018-04-27T12:44:23.000Z</time>
      </trkpt>
      <trkpt lat="44.10663" lon="1.09258">
        <ele>125.07</ele>
        <time>2018-04-27T12:44:33.000Z</time>
      </trkpt>
      <trkpt lat="44.10662" lon="1.09243">
        <ele>125.59</ele>
        <time>2018-04-27T12:44:43.000Z</time>
      </trkpt>
      <trkpt lat="44.10662" lon="1.09227">
        <ele>126.21</ele>
        <time>2018-04-27T12:44:53.000Z</time>
      </trkpt>
      <trkpt lat="44.1066" lon="1.09212">
        <ele>125.48</ele>
        <time>2018-04-27T12:45:03.000Z</time>
      </trkpt>
      <trkpt lat="44.10659" lon="1.09198">
        <ele>125.86</ele>
        <time>2018-04-27T12:45:13.000Z</time>
      </trkpt>
      <trkpt lat="44.10658" lon="1.09184">
        <ele>125.71</ele>
        <time>2018-04-27T12:45:23.000Z</time>
      </trkpt>
      <trkpt lat="44.1065" lon="1.0918">
        <ele>125.03</ele>
        <time>2018-04-27T12:45:33.000Z</time>
      </trkpt>
      <trkpt lat="44.10638" lon="1.09183">
        <ele>124.04</ele>
        <time>2018-04-27T12:45:43.000Z</time>
      </trkpt>
      <trkpt lat="44.1063" lon="1.09184">
        <ele>123.6</ele>
        <time>2018-04-27T12:45:53.000Z</time>
      </trkpt>
      <trkpt lat="44.10619" lon="1.09187">
        <ele>122.96</ele>
        <time>2018-04-27T12:46:03.000Z</time>
      </trkpt>
      <trkpt lat="44.10609" lon="1.0919">
        <ele>122.44</ele>
        <time>2018-04-27T12:46:13.000Z</time>
      </trkpt>
      <trkpt lat="44.10598" lon="1.09194">
        <ele>120.99</ele>
        <time>2018-04-27T12:46:23.000Z</time>
      </trkpt>
      <trkpt lat="44.10588" lon="1.092">
        <ele>120.52</ele>
        <time>2018-04-27T12:46:33.000Z</time>
      </trkpt>
      <trkpt lat="44.10581" lon="1.09202">
        <ele>120.58</ele>
        <time>2018-04-27T12:46:43.000Z</time>
      </trkpt>
      <trkpt lat="44.10576" lon="1.09193">
        <ele>120.88</ele>
        <time>2018-04-27T12:46:53.000Z</time>
      </trkpt>
      <trkpt lat="44.10574" lon="1.09178">
        <ele>120.77</ele>
        <time>2018-04-27T12:47:03.000Z</time>
      </trkpt>
      <trkpt lat="44.10571" lon="1.09162">
        <ele>120.11</ele>
        <time>2018-04-27T12:47:13.000Z</time>
      </trkpt>
      <trkpt lat="44.10563" lon="1.09149">
        <ele>120.67</ele>
        <time>2018-04-27T12:47:23.000Z</time>
      </trkpt>
      <trkpt lat="44.10558" lon="1.09132">
        <ele>119.84</ele>
        <time>2018-04-27T12:47:33.000Z</time>
      </trkpt>
      <trkpt lat="44.10554" lon="1.09117">
        <ele>119.73</ele>
        <time>2018-04-27T12:47:43.000Z</time>
      </trkpt>
      <trkpt lat="44.10547" lon="1.09104">
        <ele>119.88</ele>
        <time>2018-04-27T12:47:53.000Z</time>
      </trkpt>
      <trkpt lat="44.10546" lon="1.09085">
        <ele>120.07</ele>
        <time>2018-04-27T12:48:03.000Z</time>
      </trkpt>
      <trkpt lat="44.1054" lon="1.09072">
        <ele>119.47</ele>
        <time>2018-04-27T12:48:13.000Z</time>
      </trkpt>
      <trkpt lat="44.10535" lon="1.09057">
        <ele>120.05</ele>
        <time>2018-04-27T12:48:23.000Z</time>
      </trkpt>
      <trkpt lat="44.10535" lon="1.0904">
        <ele>119.95</ele>
        <time>2018-04-27T12:48:33.000Z</time>
      </trkpt>
      <trkpt lat="44.10535" lon="1.09024">
        <ele>119.22</ele>
        <time>2018-04-27T12:48:43.000Z</time>
      </trkpt>
      <trkpt lat="44.10527" lon="1.09012">
        <ele>119.46</ele>
        <time>2018-04-27T12:48:53.000Z</time>
      </trkpt>
      <trkpt lat="44.1052" lon="1.08998">
        <ele>120.04</ele>
        <time>2018-04-27T12:49:03.000Z</time>
      </trkpt>
      <trkpt lat="44.10514" lon="1.08985">
        <ele>119.54</ele>
        <time>2018-04-27T12:49:13.000Z</time>
      </trkpt>
      <trkpt lat="44.10509" lon="1.08975">
        <ele>120.23</ele>
        <time>2018-04-27T12:49:23.000Z</time>
      </trkpt>
      <trkpt lat="44.10502" lon="1.08967">
        <ele>119.37</ele>
        <time>2018-04-27T12:49:33.000Z</time>
      </trkpt>
      <trkpt lat="44.10493" lon="1.08956">
        <ele>119</ele>
        <time>2018-04-27T12:49:43.000Z</time>
      </trkpt>
      <trkpt lat="44.10485" lon="1.08946">
        <ele>119.48</ele>
        <time>2018-04-27T12:49:53.000Z</time>
      </trkpt>
      <trkpt lat="44.10477" lon="1.08934">
        <ele>119.52</ele>
        <time>2018-04-27T12:50:03.000Z</time>
      </trkpt>
      <trkpt lat="44.1047" lon="1.08922">
        <ele>119.65</ele>
        <time>2018-04-27T12:50:13.000Z</time>
      </trkpt>
      <trkpt lat="44.10462" lon="1.0891">
        <ele>119.5</ele>
        <time>2018-04-27T12:50:23.000Z</time>
      </trkpt>
      <trkpt lat="44.10456" lon="1.08896">
        <ele>119.12</ele>
        <time>2018-04-27T12:50:33.000Z</time>
      </trkpt>
      <trkpt lat="44.1045" lon="1.08885">
        <ele>119.3</ele>
        <time>2018-04-27T12:50:43.000Z</time>
      </trkpt>
      <trkpt lat="44.10446" lon="1.08876">
        <ele>119.2</ele>
        <time>2018-04-27T12:50:53.000Z</time>
      </trkpt>
      <trkpt lat="44.10439" lon="1.08868">
        <ele>119.35</ele>
        <time>2018-04-27T12:51:03.000Z</time>
      </trkpt>
      <trkpt lat="44.10432" lon="1.08853">
        <ele>119.52</ele>
        <time>2018-04-27T12:51:13.000Z</time>
      </trkpt>
      <trkpt lat="44.10427" lon="1.08841">
        <ele>120.09</ele>
        <time>2018-04-27T12:51:23.000Z</time>
      </trkpt>
      <trkpt lat="44.1043" lon="1.08818">
        <ele>120.47</ele>
        <time>2018-04-27T12:51:33.000Z</time>
      </trkpt>
      <trkpt lat="44.10434" lon="1.08802">
        <ele>119.93</ele>
        <time>2018-04-27T12:51:43.000Z</time>
      </trkpt>
      <trkpt lat="44.10428" lon="1.08792">
        <ele>120.27</ele>
        <time>2018-04-27T12:51:53.000Z</time>
      </trkpt>
      <trkpt lat="44.1042" lon="1.08789">
        <ele>120.11</ele>
        <time>2018-04-27T12:52:03.000Z</time>
      </trkpt>
      <trkpt lat="44.10417" lon="1.08788">
        <ele>119.62</ele>
        <time>2018-04-27T12:52:13.000Z</time>
      </trkpt>
      <trkpt lat="44.10414" lon="1.08777">
        <ele>119.71</ele>
        <time>2018-04-27T12:52:23.000Z</time>
      </trkpt>
      <trkpt lat="44.10411" lon="1.08762">
        <ele>119.19</ele>
        <time>2018-04-27T12:52:33.000Z</time>
      </trkpt>
      <trkpt lat="44.10409" lon="1.08748">
        <ele>119.5</ele>
        <time>2018-04-27T12:52:43.000Z</time>
      </trkpt>
      <trkpt lat="44.10408" lon="1.08732">
        <ele>119.81</ele>
        <time>2018-04-27T12:52:53.000Z</time>
      </trkpt>
      <trkpt lat="44.10407" lon="1.0872">
        <ele>120.23</ele>
        <time>2018-04-27T12:53:03.000Z</time>
      </trkpt>
      <trkpt lat="44.10405" lon="1.08707">
        <ele>119.33</ele>
        <time>2018-04-27T12:53:13.000Z</time>
      </trkpt>
      <trkpt lat="44.10407" lon="1.08696">
        <ele>119.75</ele>
        <time>2018-04-27T12:53:23.000Z</time>
      </trkpt>
      <trkpt lat="44.10408" lon="1.08686">
        <ele>120.39</ele>
        <time>2018-04-27T12:53:33.000Z</time>
      </trkpt>
      <trkpt lat="44.10409" lon="1.08672">
        <ele>120</ele>
        <time>2018-04-27T12:53:43.000Z</time>
      </trkpt>
      <trkpt lat="44.10409" lon="1.08659">
        <ele>119.65</ele>
        <time>2018-04-27T12:53:53.000Z</time>
      </trkpt>
      <trkpt lat="44.10411" lon="1.08645">
        <ele>120.42</ele>
        <time>2018-04-27T12:54:03.000Z</time>
      </trkpt>
      <trkpt lat="44.10412" lon="1.08629">
        <ele>120.76</ele>
        <time>2018-04-27T12:54:13.000Z</time>
      </trkpt>
      <trkpt lat="44.10412" lon="1.08614">
        <ele>120.74</ele>
        <time>2018-04-27T12:54:23.000Z</time>
      </trkpt>
      <trkpt lat="44.10414" lon="1.08601">
        <ele>120.68</ele>
        <time>2018-04-27T12:54:33.000Z</time>
      </trkpt>
      <trkpt lat="44.10415" lon="1.08588">
        <ele>121.37</ele>
        <time>2018-04-27T12:54:43.000Z</time>
      </trkpt>
      <trkpt lat="44.10415" lon="1.08572">
        <ele>121.78</ele>
        <time>2018-04-27T12:54:53.000Z</time>
      </trkpt>
      <trkpt lat="44.10416" lon="1.08558">
        <ele>122.19</ele>
        <time>2018-04-27T12:55:03.000Z</time>
      </trkpt>
      <trkpt lat="44.10414" lon="1.08542">
        <ele>122.29</ele>
        <time>2018-04-27T12:55:13.000Z</time>
      </trkpt>
      <trkpt lat="44.10408" lon="1.08526">
        <ele>122.37</ele>
        <time>2018-04-27T12:55:23.000Z</time>
      </trkpt>
      <trkpt lat="44.10401" lon="1.08516">
        <ele>122.49</ele>
        <time>2018-04-27T12:55:33.000Z</time>
      </trkpt>
      <trkpt lat="44.10396" lon="1.08507">
        <ele>122.7</ele>
        <time>2018-04-27T12:55:43.000Z</time>
      </trkpt>
      <trkpt lat="44.10394" lon="1.08494">
        <ele>123.19</ele>
        <time>2018-04-27T12:55:53.000Z</time>
      </trkpt>
      <trkpt lat="44.10396" lon="1.08492">
        <ele>122.65</ele>
        <time>2018-04-27T12:56:03.000Z</time>
      </trkpt>
      <trkpt lat="44.10394" lon="1.08493">
        <ele>122.84</ele>
        <time>2018-04-27T12:56:37.000Z</time>
      </trkpt>
      <trkpt lat="44.10389" lon="1.08497">
        <ele>122.97</ele>
        <time>2018-04-27T12:56:47.000Z</time>
      </trkpt>
      <trkpt lat="44.10388" lon="1.08496">
        <ele>122.5</ele>
        <time>2018-04-27T12:57:07.000Z</time>
      </trkpt>
      <trkpt lat="44.10387" lon="1.08494">
        <ele>122.24</ele>
        <time>2018-04-27T12:57:17.000Z</time>
      </trkpt>
      <trkpt lat="44.10388" lon="1.08494">
        <ele>122.1</ele>
        <time>2018-04-27T12:57:32.000Z</time>
      </trkpt>
      <trkpt lat="44.1039" lon="1.08495">
        <ele>122.52</ele>
        <time>2018-04-27T12:57:42.000Z</time>
      </trkpt>
      <trkpt lat="44.10397" lon="1.0849">
        <ele>122.78</ele>
        <time>2018-04-27T12:57:52.000Z</time>
      </trkpt>
      <trkpt lat="44.10405" lon="1.08486">
        <ele>122.79</ele>
        <time>2018-04-27T12:58:02.000Z</time>
      </trkpt>
      <trkpt lat="44.10413" lon="1.08483">
        <ele>123.27</ele>
        <time>2018-04-27T12:58:12.000Z</time>
      </trkpt>
      <trkpt lat="44.10424" lon="1.08479">
        <ele>122.99</ele>
        <time>2018-04-27T12:58:22.000Z</time>
      </trkpt>
      <trkpt lat="44.10435" lon="1.08474">
        <ele>123.33</ele>
        <time>2018-04-27T12:58:32.000Z</time>
      </trkpt>
      <trkpt lat="44.10448" lon="1.08468">
        <ele>123.06</ele>
        <time>2018-04-27T12:58:42.000Z</time>
      </trkpt>
      <trkpt lat="44.10459" lon="1.08461">
        <ele>123.08</ele>
        <time>2018-04-27T12:58:52.000Z</time>
      </trkpt>
      <trkpt lat="44.10468" lon="1.08473">
        <ele>124.09</ele>
        <time>2018-04-27T12:59:02.000Z</time>
      </trkpt>
      <trkpt lat="44.10475" lon="1.08474">
        <ele>124.1</ele>
        <time>2018-04-27T12:59:12.000Z</time>
      </trkpt>
      <trkpt lat="44.10481" lon="1.08474">
        <ele>123.91</ele>
        <time>2018-04-27T12:59:22.000Z</time>
      </trkpt>
      <trkpt lat="44.10486" lon="1.08475">
        <ele>123.77</ele>
        <time>2018-04-27T12:59:32.000Z</time>
      </trkpt>
      <trkpt lat="44.10492" lon="1.08475">
        <ele>124.02</ele>
        <time>2018-04-27T12:59:42.000Z</time>
      </trkpt>
      <trkpt lat="44.10501" lon="1.08474">
        <ele>124.34</ele>
        <time>2018-04-27T12:59:52.000Z</time>
      </trkpt>
      <trkpt lat="44.10509" lon="1.08463">
        <ele>123.29</ele>
        <time>2018-04-27T13:00:02.000Z</time>
      </trkpt>
      <trkpt lat="44.10516" lon="1.08455">
        <ele>123.2</ele>
        <time>2018-04-27T13:00:12.000Z</time>
      </trkpt>
      <trkpt lat="44.10518" lon="1.08453">
        <ele>123.2</ele>
        <time>2018-04-27T13:00:22.000Z</time>
      </trkpt>
      <trkpt lat="44.10518" lon="1.08451">
        <ele>123.42</ele>
        <time>2018-04-27T13:00:41.000Z</time>
      </trkpt>
      <trkpt lat="44.10518" lon="1.0844">
        <ele>123.6</ele>
        <time>2018-04-27T13:00:51.000Z</time>
      </trkpt>
      <trkpt lat="44.10517" lon="1.08438">
        <ele>123.34</ele>
        <time>2018-04-27T13:01:01.000Z</time>
      </trkpt>
      <trkpt lat="44.10518" lon="1.08437">
        <ele>123.74</ele>
        <time>2018-04-27T13:01:11.000Z</time>
      </trkpt>
      <trkpt lat="44.10526" lon="1.08433">
        <ele>123.5</ele>
        <time>2018-04-27T13:01:21.000Z</time>
      </trkpt>
      <trkpt lat="44.10534" lon="1.08432">
        <ele>123.34</ele>
        <time>2018-04-27T13:01:31.000Z</time>
      </trkpt>
      <trkpt lat="44.10545" lon="1.0843">
        <ele>123.78</ele>
        <time>2018-04-27T13:01:41.000Z</time>
      </trkpt>
      <trkpt lat="44.1055" lon="1.08427">
        <ele>124.87</ele>
        <time>2018-04-27T13:01:51.000Z</time>
      </trkpt>
      <trkpt lat="44.1055" lon="1.08429">
        <ele>124.29</ele>
        <time>2018-04-27T13:02:06.000Z</time>
      </trkpt>
      <trkpt lat="44.10553" lon="1.0843">
        <ele>124.16</ele>
        <time>2018-04-27T13:02:16.000Z</time>
      </trkpt>
      <trkpt lat="44.10554" lon="1.0843">
        <ele>124.45</ele>
        <time>2018-04-27T13:02:36.000Z</time>
      </trkpt>
      <trkpt lat="44.10556" lon="1.08426">
        <ele>124.13</ele>
        <time>2018-04-27T13:02:46.000Z</time>
      </trkpt>
      <trkpt lat="44.10559" lon="1.08425">
        <ele>123.98</ele>
        <time>2018-04-27T13:02:56.000Z</time>
      </trkpt>
      <trkpt lat="44.1056" lon="1.08428">
        <ele>124.17</ele>
        <time>2018-04-27T13:03:06.000Z</time>
      </trkpt>
      <trkpt lat="44.10561" lon="1.08428">
        <ele>124.15</ele>
        <time>2018-04-27T13:03:16.000Z</time>
      </trkpt>
      <trkpt lat="44.1056" lon="1.08427">
        <ele>124.36</ele>
        <time>2018-04-27T13:03:43.000Z</time>
      </trkpt>
      <trkpt lat="44.10557" lon="1.08428">
        <ele>124.18</ele>
        <time>2018-04-27T13:03:53.000Z</time>
      </trkpt>
      <trkpt lat="44.10554" lon="1.08428">
        <ele>124.23</ele>
        <time>2018-04-27T13:04:03.000Z</time>
      </trkpt>
      <trkpt lat="44.10557" lon="1.08433">
        <ele>123.95</ele>
        <time>2018-04-27T13:04:13.000Z</time>
      </trkpt>
      <trkpt lat="44.10559" lon="1.08431">
        <ele>124.04</ele>
        <time>2018-04-27T13:04:23.000Z</time>
      </trkpt>
      <trkpt lat="44.10563" lon="1.08427">
        <ele>123.66</ele>
        <time>2018-04-27T13:04:33.000Z</time>
      </trkpt>
      <trkpt lat="44.10558" lon="1.08417">
        <ele>124.04</ele>
        <time>2018-04-27T13:04:43.000Z</time>
      </trkpt>
      <trkpt lat="44.10556" lon="1.08415">
        <ele>124.47</ele>
        <time>2018-04-27T13:04:53.000Z</time>
      </trkpt>
      <trkpt lat="44.10556" lon="1.08414">
        <ele>124.16</ele>
        <time>2018-04-27T13:05:07.000Z</time>
      </trkpt>
      <trkpt lat="44.10558" lon="1.08411">
        <ele>123.47</ele>
        <time>2018-04-27T13:05:17.000Z</time>
      </trkpt>
      <trkpt lat="44.10557" lon="1.08414">
        <ele>123.59</ele>
        <time>2018-04-27T13:05:27.000Z</time>
      </trkpt>
      <trkpt lat="44.10551" lon="1.08423">
        <ele>124.01</ele>
        <time>2018-04-27T13:05:37.000Z</time>
      </trkpt>
      <trkpt lat="44.10549" lon="1.08423">
        <ele>123.81</ele>
        <time>2018-04-27T13:05:47.000Z</time>
      </trkpt>
      <trkpt lat="44.1055" lon="1.08424">
        <ele>123.82</ele>
        <time>2018-04-27T13:05:57.000Z</time>
      </trkpt>
      <trkpt lat="44.1055" lon="1.08428">
        <ele>124.05</ele>
        <time>2018-04-27T13:06:07.000Z</time>
      </trkpt>
      <trkpt lat="44.10552" lon="1.0843">
        <ele>123.89</ele>
        <time>2018-04-27T13:06:17.000Z</time>
      </trkpt>
      <trkpt lat="44.10553" lon="1.08428">
        <ele>123.86</ele>
        <time>2018-04-27T13:06:27.000Z</time>
      </trkpt>
      <trkpt lat="44.10557" lon="1.08424">
        <ele>124.16</ele>
        <time>2018-04-27T13:06:37.000Z</time>
      </trkpt>
      <trkpt lat="44.10561" lon="1.08422">
        <ele>126.39</ele>
        <time>2018-04-27T13:06:47.000Z</time>
      </trkpt>
      <trkpt lat="44.10564" lon="1.08421">
        <ele>128.9</ele>
        <time>2018-04-27T13:06:57.000Z</time>
      </trkpt>
      <trkpt lat="44.1057" lon="1.08422">
        <ele>130.24</ele>
        <time>2018-04-27T13:07:07.000Z</time>
      </trkpt>
      <trkpt lat="44.10578" lon="1.08419">
        <ele>130.77</ele>
        <time>2018-04-27T13:07:17.000Z</time>
      </trkpt>
      <trkpt lat="44.10587" lon="1.08416">
        <ele>129.82</ele>
        <time>2018-04-27T13:07:27.000Z</time>
      </trkpt>
      <trkpt lat="44.10597" lon="1.08413">
        <ele>129.69</ele>
        <time>2018-04-27T13:07:37.000Z</time>
      </trkpt>
      <trkpt lat="44.10602" lon="1.08414">
        <ele>129.36</ele>
        <time>2018-04-27T13:07:47.000Z</time>
      </trkpt>
      <trkpt lat="44.10604" lon="1.08413">
        <ele>129.91</ele>
        <time>2018-04-27T13:07:57.000Z</time>
      </trkpt>
      <trkpt lat="44.10604" lon="1.08411">
        <ele>129.93</ele>
        <time>2018-04-27T13:08:07.000Z</time>
      </trkpt>
      <trkpt lat="44.10602" lon="1.08405">
        <ele>130.05</ele>
        <time>2018-04-27T13:08:18.000Z</time>
      </trkpt>
      <trkpt lat="44.10613" lon="1.08388">
        <ele>130</ele>
        <time>2018-04-27T13:08:28.000Z</time>
      </trkpt>
      <trkpt lat="44.10619" lon="1.08383">
        <ele>129.91</ele>
        <time>2018-04-27T13:08:38.000Z</time>
      </trkpt>
      <trkpt lat="44.10616" lon="1.08388">
        <ele>130.02</ele>
        <time>2018-04-27T13:08:48.000Z</time>
      </trkpt>
      <trkpt lat="44.10624" lon="1.08385">
        <ele>129.8</ele>
        <time>2018-04-27T13:08:58.000Z</time>
      </trkpt>
      <trkpt lat="44.10618" lon="1.08397">
        <ele>129.54</ele>
        <time>2018-04-27T13:09:08.000Z</time>
      </trkpt>
      <trkpt lat="44.10626" lon="1.08397">
        <ele>129.46</ele>
        <time>2018-04-27T13:09:18.000Z</time>
      </trkpt>
      <trkpt lat="44.10628" lon="1.08395">
        <ele>129.28</ele>
        <time>2018-04-27T13:09:28.000Z</time>
      </trkpt>
      <trkpt lat="44.1063" lon="1.08393">
        <ele>129.62</ele>
        <time>2018-04-27T13:09:40.512Z</time>
      </trkpt>
      <trkpt lat="44.10617" lon="1.0839">
        <ele>129.75</ele>
        <time>2018-04-27T13:09:50.000Z</time>
      </trkpt>
      <trkpt lat="44.10606" lon="1.08397">
        <ele>129.73</ele>
        <time>2018-04-27T13:10:05.704Z</time>
      </trkpt>
      <trkpt lat="44.10614" lon="1.08399">
        <ele>129.25</ele>
        <time>2018-04-27T13:12:01.000Z</time>
      </trkpt>
      <trkpt lat="44.10633" lon="1.08391">
        <ele>129.53</ele>
        <time>2018-04-27T13:12:11.000Z</time>
      </trkpt>
      <trkpt lat="44.1064" lon="1.08383">
        <ele>129.45</ele>
        <time>2018-04-27T13:12:21.000Z</time>
      </trkpt>
      <trkpt lat="44.10642" lon="1.0838">
        <ele>129.44</ele>
        <time>2018-04-27T13:12:31.433Z</time>
      </trkpt>
      <trkpt lat="44.10614" lon="1.08357">
        <ele>129.51</ele>
        <time>2018-04-27T13:12:41.000Z</time>
      </trkpt>
      <trkpt lat="44.10615" lon="1.08367">
        <ele>129.32</ele>
        <time>2018-04-27T13:12:56.506Z</time>
      </trkpt>
      <trkpt lat="44.10681" lon="1.08401">
        <ele>129.58</ele>
        <time>2018-04-27T13:14:13.000Z</time>
      </trkpt>
      <trkpt lat="44.10666" lon="1.08363">
        <ele>129.6</ele>
        <time>2018-04-27T13:14:23.000Z</time>
      </trkpt>
      <trkpt lat="44.10662" lon="1.08357">
        <ele>129.71</ele>
        <time>2018-04-27T13:14:34.209Z</time>
      </trkpt>
      <trkpt lat="44.10663" lon="1.0832">
        <ele>129.79</ele>
        <time>2018-04-27T13:14:38.000Z</time>
      </trkpt>
    </trkseg>
  </trk>
</gpx>